[[{"header":{"parameterUnit":"m.s-1","parameterCategory":1,"la1":30.6,"la2":28.766,"lo1":-90.7593,"lo2":-88.6598,"dy":0.0162,"dx":0.0183,"nx":116,"ny":114,"refTime":"2023-07-12T06:00:00:Z","depth":0,"parameterNumber":2,"parameterNumberName":"U-component_of_WINDS"},"data":[0.0,0.0,0.0,0.0,0.0,0.0,0.0,0.0,0.0,0.0,0.0,0.0,0.0,0.0,0.0,0.0,0.0,0.0,0.0,0.0,0.0,0.0,0.0,0.0,0.0,0.0,0.0,0.0,0.0,0.0,0.0,0.0,0.0,0.0,0.0,0.0,0.0,0.0,0.0,0.0,0.0,0.0,0.0,0.0,0.0,0.0,0.0,0.0,0.0,0.0,0.0,0.0,0.0,0.0,0.0,0.0,0.0,0.0,0.0,0.0,0.0,0.0,0.0,0.0,0.0,0.0,0.0,0.0,0.0,0.0,0.0,0.0,0.0,0.0,0.0,0.0,0.0,0.0,0.0,0.0,0.0,0.0,0.0,0.0,0.0,0.0,0.0,0.0,0.0,0.0,0.0,0.0,0.0,0.0,0.0,0.0,0.0,0.0,0.0,0.0,0.0,0.0,0.0,0.0,0.0,0.0,0.0,0.0,0.0,0.0,0.0,0.0,0.0,0.0,0.0,0.0,0.0,0.0,0.0,0.0,0.0,0.0,0.0,0.0,0.0,0.0,0.0,0.0,0.0,0.0,0.0,0.0,0.0,0.0,0.0,0.0,0.0,0.0,0.0,0.0,0.0,0.0,0.0,0.0,0.0,0.0,0.0,0.0,0.0,0.0,0.0,0.0,0.0,0.0,0.0,0.0,0.0,0.0,0.0,0.0,0.0,0.0,0.0,0.0,0.0,0.0,0.0,0.0,0.0,0.0,0.0,0.0,0.0,0.0,0.0,0.0,0.0,0.0,0.0,0.0,0.0,0.0,0.0,0.0,0.0,0.0,0.0,0.0,0.0,0.0,0.0,0.0,0.0,0.0,0.0,0.0,0.0,0.0,0.0,0.0,0.0,0.0,0.0,0.0,0.0,0.0,0.0,0.0,0.0,0.0,0.0,0.0,0.0,0.0,0.0,0.0,0.0,0.0,0.0,0.0,0.0,0.0,0.0,0.0,0.0,0.0,0.0,0.0,0.0,0.0,0.0,0.0,0.0,0.0,0.0,0.0,0.0,0.0,0.0,0.0,0.0,0.0,0.0,0.0,0.0,0.0,0.0,0.0,0.0,0.0,0.0,0.0,0.0,0.0,0.0,0.0,0.0,0.0,0.0,0.0,0.0,0.0,0.0,0.0,0.0,0.0,0.0,0.0,0.0,0.0,0.0,0.0,0.0,0.0,0.0,0.0,0.0,0.0,0.0,0.0,0.0,0.0,0.0,0.0,0.0,0.0,0.0,0.0,0.0,0.0,0.0,0.0,0.0,0.0,0.0,0.0,0.0,0.0,0.0,0.0,0.0,0.0,0.0,0.0,0.0,0.0,0.0,0.0,0.0,0.0,0.0,0.0,0.0,0.0,0.0,0.0,0.0,0.0,0.0,0.0,0.0,0.0,0.0,0.0,0.0,0.0,0.0,0.0,0.0,0.0,0.0,0.0,0.0,0.0,0.0,0.0,0.0,0.0,0.0,0.0,0.0,0.0,0.0,0.0,0.0,0.0,0.0,0.0,0.0,0.0,0.0,0.0,0.0,0.0,0.0,0.0,0.0,0.0,0.0,0.0,0.0,0.0,0.0,0.0,0.0,0.0,0.0,0.0,0.0,0.0,0.0,0.0,0.0,0.0,0.0,0.0,0.0,0.0,0.0,0.0,0.0,0.0,0.0,0.0,0.0,0.0,0.0,0.0,0.0,0.0,0.0,0.0,0.0,0.0,0.0,0.0,0.0,0.0,0.0,0.0,0.0,0.0,0.0,0.0,0.0,0.0,0.0,0.0,0.0,0.0,0.0,0.0,0.0,0.0,0.0,0.0,0.0,0.0,0.0,0.0,0.0,0.0,0.0,0.0,0.0,0.0,0.0,0.0,0.0,0.0,0.0,0.0,0.0,0.0,0.0,0.0,0.0,0.0,0.0,0.0,0.0,0.0,0.0,0.0,0.0,0.0,0.0,0.0,0.0,0.0,0.0,0.0,0.0,0.0,0.0,0.0,0.0,0.0,0.0,0.0,0.0,0.0,0.0,0.0,0.0,0.0,0.0,0.0,0.0,0.0,0.0,0.0,0.0,0.0,0.0,0.0,0.0,0.0,0.0,0.0,0.0,0.0,0.0,0.0,0.0,0.0,0.0,0.0,0.0,0.0,0.0,0.0,0.0,0.0,0.0,0.0,0.0,0.0,0.0,0.0,0.0,0.0,0.0,0.0,0.0,0.0,0.0,0.0,0.0,0.0,0.0,0.0,0.0,0.0,0.0,0.0,0.0,0.0,0.0,0.0,0.0,0.0,0.0,0.0,0.0,0.0,0.0,0.0,0.0,0.0,0.0,0.0,0.0,0.0,0.0,0.0,0.0,0.0,0.0,0.0,0.0,0.0,0.0,0.0,0.0,0.0,0.0,0.0,0.0,0.0,0.0,0.0,0.0,0.0,0.0,0.0,0.0,0.0,0.0,0.0,0.0,0.0,0.0,0.0,0.0,0.0,0.0,0.0,0.0,0.0,0.0,0.0,0.0,0.0,0.0,0.0,0.0,0.0,0.0,0.0,0.0,0.0,0.0,0.0,0.0,0.0,0.0,0.0,0.0,0.0,0.0,0.0,0.0,0.0,0.0,0.0,0.0,0.0,0.0,0.0,0.0,0.0,0.0,0.0,0.0,0.0,0.0,0.0,0.0,0.0,0.0,0.0,0.0,0.0,0.0,0.0,0.0,0.0,0.0,0.0,0.0,0.0,0.0,0.0,0.0,0.0,0.0,0.0,0.0,0.0,0.0,0.0,0.0,0.0,0.0,0.0,0.0,0.0,0.0,0.0,0.0,0.0,0.0,0.0,0.0,0.0,0.0,0.0,0.0,0.0,0.0,0.0,0.0,0.0,0.0,0.0,0.0,0.0,0.0,0.0,0.0,0.0,0.0,0.0,0.0,0.0,0.0,0.0,0.0,0.0,0.0,0.0,0.0,0.0,0.0,0.0,0.0,0.0,0.0,0.0,0.0,0.0,0.0,0.0,0.0,0.0,0.0,0.0,0.0,0.0,0.0,0.0,0.0,0.0,0.0,0.0,0.0,0.0,0.0,0.0,0.0,0.0,0.0,0.0,0.0,0.0,0.0,0.0,0.0,0.0,0.0,0.0,0.0,0.0,0.0,0.0,0.0,0.0,0.0,0.0,0.0,0.0,0.0,0.0,0.0,0.0,0.0,0.0,0.0,0.0,0.0,0.0,0.0,0.0,0.0,0.0,0.0,0.0,0.0,0.0,0.0,0.0,0.0,0.0,0.0,0.0,0.0,0.0,0.0,0.0,0.0,0.0,0.0,0.0,0.0,0.0,0.0,0.0,0.0,0.0,0.0,0.0,0.0,0.0,0.0,0.0,0.0,0.0,0.0,0.0,0.0,0.0,0.0,0.0,0.0,0.0,0.0,0.0,0.0,0.0,0.0,0.0,0.0,0.0,0.0,0.0,0.0,0.0,0.0,0.0,0.0,0.0,0.0,0.0,0.0,0.0,0.0,0.0,0.0,0.0,0.0,0.0,0.0,0.0,0.0,0.0,0.0,0.0,0.0,0.0,0.0,0.0,0.0,0.0,0.0,0.0,0.0,0.0,0.0,0.0,0.0,0.0,0.0,0.0,0.0,0.0,0.0,0.0,0.0,0.0,0.0,0.0,0.0,0.0,0.0,0.0,0.0,0.0,0.0,0.0,0.0,0.0,0.0,0.0,0.0,0.0,0.0,0.0,0.0,0.0,0.0,0.0,0.0,0.0,0.0,0.0,0.0,0.0,0.0,0.0,0.0,0.0,0.0,0.0,0.0,0.0,0.0,0.0,0.0,0.0,0.0,0.0,0.0,0.0,0.0,0.0,0.0,0.0,0.0,0.0,0.0,0.0,0.0,0.0,0.0,0.0,0.0,0.0,0.0,0.0,0.0,0.0,0.0,0.0,0.0,0.0,0.0,0.0,0.0,0.0,0.0,0.0,0.0,0.0,0.0,0.0,0.0,0.0,0.0,0.0,0.0,0.0,0.0,0.0,0.0,0.0,0.0,0.0,0.0,0.0,0.0,0.0,0.0,0.0,0.0,0.0,0.0,0.0,0.0,0.0,0.0,0.0,0.0,0.0,0.0,0.0,0.0,0.0,0.0,0.0,0.0,0.0,0.0,0.0,0.0,0.0,0.0,0.0,0.0,0.0,0.0,0.0,0.0,0.0,0.0,0.0,0.0,0.0,0.0,0.0,0.0,0.0,0.0,0.0,0.0,0.0,0.0,0.0,0.0,0.0,0.0,0.0,0.0,0.0,0.0,0.0,0.0,0.0,0.0,0.0,0.0,0.0,0.0,0.0,0.0,0.0,0.0,0.0,0.0,0.0,0.0,0.0,0.0,0.0,0.0,0.0,0.0,0.0,0.0,0.0,0.0,0.0,0.0,0.0,0.0,0.0,0.0,0.0,0.0,0.0,0.0,0.0,0.0,0.0,0.0,0.0,0.0,0.0,0.0,0.0,0.0,0.0,0.0,0.0,0.0,0.0,0.0,0.0,0.0,0.0,0.0,0.0,0.0,0.0,0.0,0.0,0.0,0.0,0.0,0.0,0.0,0.0,0.0,0.0,0.0,0.0,0.0,0.0,0.0,0.0,0.0,0.0,0.0,0.0,0.0,0.0,0.0,0.0,0.0,0.0,0.0,0.0,0.0,0.0,0.0,0.0,0.0,0.0,0.0,0.0,0.0,0.0,0.0,0.0,0.0,0.0,0.0,0.0,0.0,0.0,0.0,0.0,0.0,0.0,0.0,0.0,0.0,0.0,0.0,0.0,0.0,0.0,0.0,0.0,0.0,0.0,0.0,0.0,0.0,0.0,0.0,0.0,0.0,0.0,0.0,0.0,0.0,0.0,0.0,0.0,0.0,0.0,0.0,0.0,0.0,0.0,0.0,0.0,0.0,0.0,0.0,0.0,0.0,0.0,0.0,0.0,0.0,0.0,0.0,0.0,0.0,0.0,0.0,0.0,0.0,0.0,0.0,0.0,0.0,0.0,0.0,0.0,0.0,0.0,0.0,0.0,0.0,0.0,0.0,0.0,0.0,0.0,0.0,0.0,0.0,0.0,0.0,0.0,0.0,0.0,0.0,0.0,0.0,0.0,0.0,0.0,0.0,0.0,0.0,0.0,0.0,0.0,0.0,0.0,0.0,0.0,0.0,0.0,0.0,0.0,0.0,0.0,0.0,0.0,0.0,0.0,0.0,0.0,0.0,0.0,0.0,0.0,0.0,0.0,0.0,0.0,0.0,0.0,0.0,0.0,0.0,0.0,0.0,0.0,0.0,0.0,0.0,0.0,0.0,0.0,0.0,0.0,0.0,0.0,0.0,0.0,0.0,0.0,0.0,0.0,0.0,0.0,0.0,0.0,0.0,0.0,0.0,0.0,0.0,0.0,0.0,0.0,0.0,0.0,0.0,0.0,0.0,0.0,0.0,0.0,0.0,0.0,0.0,0.0,0.0,0.0,0.0,0.0,0.0,0.0,0.0,0.0,0.0,0.0,0.0,0.0,0.0,0.0,0.0,0.0,0.0,0.0,0.0,0.0,0.0,0.0,0.0,0.0,0.0,0.0,0.0,0.0,0.0,0.0,0.0,0.0,0.0,0.0,0.0,0.0,0.0,0.0,0.0,0.0,0.0,0.0,0.0,0.0,0.0,0.0,0.0,0.0,0.0,0.0,0.0,0.0,0.0,0.0,0.0,0.0,0.0,0.0,0.0,0.0,0.0,0.0,0.0,0.0,0.0,0.0,0.0,0.0,0.0,0.0,0.0,0.0,0.0,0.0,0.0,0.0,0.0,0.0,0.0,0.0,0.0,0.0,0.0,0.0,0.0,0.0,0.0,0.0,0.0,0.0,0.0,0.0,0.0,0.0,0.0,0.0,0.0,0.0,0.0,0.0,0.0,0.0,0.0,0.0,0.0,0.0,0.0,0.0,0.0,0.0,0.0,0.0,0.0,0.0,0.0,0.0,0.0,0.0,0.0,0.0,0.0,0.0,0.0,0.0,0.0,0.0,0.0,0.0,0.0,0.0,0.0,0.0,0.0,0.0,0.0,0.0,-1.5737,0.0,0.0,0.0,0.0,0.0,0.0,0.0,0.0,0.0,0.0,0.0,0.0,0.0,0.0,0.0,0.0,0.0,0.0,0.0,0.0,0.0,0.0,0.0,0.0,0.0,0.0,0.0,0.0,0.0,0.0,0.0,0.0,0.0,0.0,0.0,0.0,0.0,0.0,0.0,0.0,0.0,0.0,0.0,0.0,0.0,0.0,0.0,0.0,0.0,0.0,0.0,0.0,0.0,0.0,0.0,0.0,0.0,0.0,0.0,0.0,0.0,0.0,0.0,0.0,0.0,0.0,0.0,0.0,0.0,0.0,0.0,0.0,0.0,0.0,0.0,0.0,0.0,0.0,0.0,0.0,0.0,0.0,0.0,0.0,0.0,0.0,0.0,0.0,0.0,0.0,0.0,0.0,0.0,0.0,0.0,0.0,0.0,0.0,0.0,0.0,0.0,0.0,0.0,0.0,0.0,0.0,0.0,0.0,0.0,0.0,0.0,0.0,0.0,0.0,0.0,0.0,-1.6484,0.0,0.0,0.0,0.0,0.0,0.0,0.0,0.0,0.0,0.0,0.0,0.0,0.0,0.0,0.0,0.0,0.0,0.0,0.0,0.0,0.0,0.0,0.0,0.0,0.0,0.0,0.0,0.0,0.0,0.0,0.0,0.0,0.0,0.0,0.0,0.0,0.0,0.0,0.0,0.0,0.0,0.0,0.0,0.0,0.0,0.0,0.0,0.0,0.0,0.0,0.0,0.0,0.0,0.0,0.0,0.0,0.0,0.0,0.0,0.0,0.0,0.0,0.0,0.0,0.0,0.0,0.0,0.0,0.0,0.0,0.0,0.0,0.0,0.0,0.0,0.0,0.0,0.0,0.0,0.0,0.0,0.0,0.0,0.0,0.0,0.0,0.0,0.0,0.0,0.0,0.0,0.0,0.0,0.0,0.0,0.0,0.0,0.0,0.0,0.0,0.0,0.0,0.0,0.0,0.0,0.0,0.0,0.0,-1.8994,-1.9773,-2.0059,-2.0353,-2.0678,-2.0901,-1.8883,-1.7866,-1.7679,-1.7509,0.0,0.0,0.0,0.0,0.0,0.0,0.0,0.0,0.0,0.0,0.0,0.0,0.0,0.0,0.0,0.0,0.0,0.0,0.0,0.0,0.0,0.0,0.0,0.0,0.0,0.0,0.0,0.0,0.0,0.0,0.0,0.0,0.0,0.0,0.0,0.0,0.0,0.0,-1.8401,-1.9609,-1.9516,-1.8359,-1.7963,0.0,0.0,0.0,0.0,0.0,0.0,0.0,0.0,0.0,0.0,0.0,0.0,0.0,0.0,0.0,0.0,0.0,0.0,0.0,0.0,0.0,0.0,0.0,0.0,0.0,0.0,0.0,0.0,0.0,0.0,0.0,0.0,0.0,0.0,0.0,0.0,0.0,0.0,0.0,0.0,0.0,0.0,0.0,-1.5864,-1.6174,0.0,0.0,0.0,0.0,0.0,0.0,0.0,0.0,0.0,0.0,0.0,0.0,0.0,-1.8271,-1.8947,-1.9327,-1.963,-1.9979,-2.017,-2.044,-2.0782,-2.0829,-2.1044,-2.1309,-2.0992,0.0,-1.905,-1.8422,0.0,0.0,0.0,0.0,0.0,0.0,0.0,0.0,0.0,0.0,0.0,0.0,0.0,0.0,0.0,0.0,0.0,0.0,0.0,0.0,0.0,0.0,0.0,0.0,0.0,0.0,0.0,0.0,0.0,0.0,0.0,0.0,0.0,0.0,0.0,0.0,-1.9629,-1.9646,-1.8668,-1.9233,-1.9347,-1.9105,-1.8884,-1.8515,-1.8073,-1.7544,0.0,0.0,0.0,0.0,0.0,0.0,0.0,0.0,0.0,0.0,0.0,0.0,0.0,0.0,0.0,0.0,0.0,0.0,0.0,0.0,0.0,0.0,0.0,0.0,0.0,0.0,0.0,0.0,0.0,0.0,0.0,0.0,0.0,0.0,0.0,0.0,0.0,0.0,0.0,-1.5761,-1.6103,-1.642,-1.6602,-1.6554,0.0,0.0,0.0,0.0,0.0,0.0,0.0,0.0,0.0,-1.9002,-1.9511,-1.9924,-2.0241,-2.0972,-2.1417,-2.1576,-2.237,-2.2831,-2.299,-2.3387,-2.3599,-2.371,-2.3173,-2.2458,-2.16,-2.0098,-1.9042,-1.8343,0.0,0.0,0.0,0.0,-1.7898,-1.8097,0.0,0.0,0.0,0.0,0.0,0.0,0.0,0.0,0.0,0.0,0.0,0.0,0.0,0.0,0.0,-1.9435,0.0,0.0,0.0,0.0,0.0,0.0,0.0,0.0,0.0,0.0,0.0,0.0,-2.0312,-2.0615,-1.9967,-1.9921,-1.9918,-2.0084,-2.0084,-1.9439,-1.8332,-1.8017,-1.766,0.0,0.0,0.0,0.0,0.0,0.0,0.0,0.0,0.0,0.0,0.0,0.0,0.0,0.0,0.0,0.0,0.0,0.0,0.0,0.0,0.0,0.0,0.0,0.0,0.0,0.0,0.0,0.0,0.0,0.0,0.0,0.0,0.0,0.0,0.0,0.0,0.0,0.0,-1.6269,-1.6675,-1.6808,-1.7191,-1.7199,0.0,0.0,0.0,0.0,0.0,0.0,-1.9717,-1.9852,-2.0257,-2.1036,-2.1409,-2.1679,-2.1854,-2.2633,-2.3109,-2.33,-2.4261,-2.4762,-2.4865,-2.5302,-2.55,-2.5461,-2.4666,-2.4126,-2.3657,-2.1624,-2.0281,-1.9415,-1.9105,-1.8804,-1.8581,-1.8581,-1.8748,-1.901,0.0,0.0,0.0,0.0,0.0,0.0,0.0,0.0,0.0,0.0,0.0,0.0,0.0,0.0,-2.0812,-2.0881,-2.0956,-2.0825,0.0,0.0,0.0,0.0,0.0,0.0,0.0,0.0,0.0,-2.0011,-2.1913,-2.295,-2.3091,-2.288,-2.2459,-2.1884,-2.1884,-2.1111,-1.9742,-1.87,-1.8446,-1.8591,0.0,0.0,0.0,0.0,0.0,0.0,0.0,0.0,0.0,0.0,0.0,0.0,0.0,0.0,0.0,0.0,0.0,0.0,0.0,0.0,0.0,0.0,0.0,0.0,0.0,0.0,0.0,0.0,0.0,0.0,0.0,0.0,0.0,0.0,0.0,0.0,0.0,0.0,0.0,-1.7329,-1.843,0.0,0.0,0.0,0.0,-1.8678,-1.9074,-1.9741,-2.079,-2.1111,-2.1761,-2.2855,-2.3171,-2.3729,-2.4388,-2.4444,-2.4809,-2.5414,-2.5206,-2.5262,-2.5509,-2.527,-2.5135,-2.5127,-2.5079,-2.4857,-2.4388,-2.2664,-2.1655,-2.123,-2.0881,-2.0782,-2.0758,-2.0758,-2.0774,-2.079,0.0,0.0,0.0,0.0,0.0,0.0,0.0,0.0,0.0,0.0,0.0,0.0,0.0,-2.0205,-2.104,-2.1428,-2.212,-2.2057,-2.0907,0.0,0.0,0.0,0.0,0.0,0.0,0.0,-2.1588,-2.3259,-2.3252,-2.3749,-2.4725,-2.4905,-2.5005,-2.5028,-2.5302,-2.4683,-2.3277,-2.0725,-1.9328,-1.8726,-1.8176,-1.7795,0.0,0.0,0.0,0.0,0.0,0.0,0.0,0.0,0.0,0.0,0.0,0.0,0.0,0.0,0.0,0.0,0.0,0.0,0.0,0.0,0.0,0.0,0.0,0.0,0.0,0.0,0.0,0.0,0.0,0.0,0.0,0.0,0.0,0.0,0.0,0.0,0.0,-1.8921,-1.963,0.0,-1.9495,-1.9685,-1.9836,-1.9836,-2.079,-2.164,-2.2235,-2.303,-2.3745,-2.4341,-2.4921,-2.5342,-2.565,-2.5818,-2.6057,-2.6303,-2.6176,-2.6184,-2.6303,-2.6176,-2.5993,-2.5763,-2.5548,-2.5246,-2.4857,-2.3999,-2.3173,-2.2339,-2.1814,-2.1457,-2.1206,-2.1206,-2.1206,-2.1238,0.0,0.0,0.0,0.0,0.0,0.0,0.0,0.0,0.0,0.0,0.0,-1.8534,-1.93,-2.0708,-2.1803,-2.2216,-2.2906,-2.2785,-2.1505,0.0,0.0,0.0,0.0,0.0,0.0,-2.2029,-2.3244,-2.5086,-2.4485,-2.4734,-2.5764,-2.5361,-2.5441,-2.5828,-2.6113,-2.6009,-2.5412,-2.2624,-2.0845,-1.982,-1.9113,-1.873,-1.8483,0.0,0.0,0.0,0.0,0.0,0.0,0.0,0.0,0.0,0.0,0.0,0.0,0.0,0.0,0.0,0.0,0.0,0.0,0.0,0.0,0.0,0.0,0.0,0.0,0.0,0.0,0.0,0.0,0.0,0.0,0.0,0.0,0.0,0.0,0.0,-1.9264,-1.9955,-2.0774,-2.1187,-2.0941,-2.125,-2.1505,-2.1624,-2.2601,-2.3451,-2.4039,-2.473,-2.5326,-2.5802,-2.6144,-2.6447,-2.6566,-2.6621,-2.674,-2.6851,-2.6732,-2.6676,-2.6668,-2.643,-2.6199,-2.5953,-2.5612,-2.5326,-2.5087,-2.4857,-2.4349,-2.3649,-2.2999,-2.2529,-2.2331,-2.2331,-2.2259,-2.2118,0.0,0.0,0.0,0.0,0.0,0.0,0.0,0.0,0.0,0.0,-1.8119,-1.8905,-1.9408,-2.1592,-2.3118,-2.3425,-2.3302,-2.2906,-2.2153,-2.0667,0.0,0.0,0.0,0.0,-2.0596,-2.363,-2.5259,-2.5401,-2.5717,-2.6079,-2.6364,-2.4568,-2.3985,-2.4314,-2.4314,-2.501,-2.6024,-2.4301,-2.3046,-2.2025,-2.0538,-1.9957,-1.9829,0.0,0.0,0.0,0.0,0.0,0.0,0.0,0.0,0.0,0.0,0.0,0.0,0.0,0.0,0.0,0.0,0.0,0.0,0.0,0.0,0.0,0.0,0.0,0.0,0.0,0.0,0.0,0.0,0.0,0.0,0.0,0.0,0.0,-1.7958,-1.9352,-2.0464,-2.0519,-2.2029,-2.2807,-2.2194,-2.3006,-2.3745,-2.4137,-2.4444,-2.5087,-2.6176,-2.624,-2.6558,-2.7185,-2.6883,-2.6875,-2.7216,-2.6875,-2.6883,-2.7232,-2.6875,-2.6716,-2.67,-2.6017,-2.5636,-2.5604,-2.5302,-2.5135,-2.5127,-2.5111,-2.5111,-2.504,-2.4341,-2.4129,-2.4129,-2.4129,-2.3856,-2.3449,0.0,0.0,0.0,0.0,0.0,0.0,0.0,0.0,0.0,0.0,-1.8403,-1.9528,-2.0402,-2.2291,-2.3671,-2.4153,-2.357,-2.2967,-2.2431,0.0,0.0,0.0,0.0,0.0,-2.3369,-2.4511,-2.6099,-2.8185,-2.7832,-2.7997,-2.8562,-2.9329,-2.9413,-2.8932,-2.8932,-2.8814,-2.8526,-2.6773,-2.5747,-2.4983,-2.2139,-2.0861,-2.0512,0.0,0.0,0.0,0.0,0.0,0.0,0.0,0.0,0.0,0.0,0.0,0.0,0.0,0.0,0.0,0.0,0.0,0.0,0.0,0.0,0.0,0.0,0.0,0.0,0.0,0.0,0.0,0.0,0.0,0.0,0.0,0.0,-2.0162,-2.0067,-2.0909,-2.2051,-2.3276,-2.3856,-2.4277,-2.4595,-2.4828,-2.5103,-2.5191,-2.5763,-2.6223,-2.6582,-2.6771,-2.7002,-2.72,-2.7359,-2.7486,-2.7582,-2.7486,-2.7606,-2.7939,-2.7606,-2.7566,-2.778,-2.7351,-2.7018,-2.674,-2.6128,-2.5715,-2.5469,-2.5214,-2.5111,-2.5063,-2.4611,-2.4436,-2.4436,-2.4436,-2.4213,-2.3864,0.0,0.0,0.0,0.0,0.0,0.0,0.0,0.0,0.0,0.0,-1.8348,-1.9408,-2.0172,-2.18,-2.3031,-2.353,-2.2783,-2.2158,-2.1885,0.0,0.0,0.0,0.0,-2.3443,-2.5068,-2.5821,-2.7246,-2.9301,-2.8987,-2.9023,-2.942,-3.027,-3.046,-2.9992,-3.0232,-3.0237,-2.9987,-2.806,-2.7693,-2.8007,-2.4692,-2.3033,-2.2388,-2.0672,-1.9765,-1.9352,-1.8994,-1.8589,-1.8152,-1.7704,0.0,0.0,0.0,0.0,0.0,0.0,0.0,0.0,0.0,0.0,0.0,0.0,0.0,0.0,0.0,0.0,0.0,0.0,0.0,0.0,0.0,0.0,0.0,0.0,-2.0853,-2.183,-2.2569,-2.2895,-2.3546,-2.4865,-2.5278,-2.562,-2.6033,-2.6207,-2.6295,-2.6295,-2.6668,-2.6899,-2.6899,-2.7089,-2.72,-2.72,-2.755,-2.7733,-2.7733,-2.7868,-2.8035,-2.8217,-2.8027,-2.7963,-2.8003,-2.7669,-2.732,-2.6954,-2.6455,-2.5953,-2.5557,-2.5421,-2.5238,-2.5087,0.0,0.0,0.0,0.0,-2.4512,-2.4281,0.0,0.0,0.0,0.0,0.0,0.0,0.0,0.0,0.0,0.0,0.0,-1.8873,-1.9364,-2.0664,-2.1723,-2.2233,-2.1446,-2.097,0.0,0.0,0.0,-2.1393,-2.3101,-2.4664,-2.6055,-2.7324,-2.8452,-2.9384,-2.9525,-2.957,-2.9575,-2.9446,-2.9396,-2.937,-2.9754,-3.0298,-3.0801,-2.861,-2.8874,-3.0509,-2.7334,-2.5629,-2.4727,-2.2184,-2.1115,-2.0925,-2.0488,-1.9757,-1.894,-1.8821,0.0,0.0,0.0,0.0,0.0,0.0,0.0,0.0,0.0,0.0,0.0,0.0,0.0,0.0,0.0,0.0,0.0,0.0,0.0,0.0,0.0,0.0,0.0,0.0,-2.2394,-2.3491,-2.5167,-2.5167,-2.5199,-2.5747,-2.6358,-2.6764,-2.6843,-2.7065,-2.7224,-2.7256,-2.7224,-2.72,-2.72,0.0,0.0,0.0,0.0,-2.7804,-2.7852,-2.8138,-2.8305,-2.8344,-2.8305,-2.813,-2.7836,-2.7526,-2.7161,-2.6771,-2.6487,-2.6049,-2.5628,-2.5588,-2.5429,-2.5111,-2.5111,-2.5111,-2.5071,-2.4754,-2.4619,-2.4539,0.0,0.0,0.0,0.0,0.0,0.0,0.0,0.0,0.0,-1.7445,-1.8137,-1.8873,-1.9364,-2.0369,-2.1317,-2.1995,-2.1226,-2.0698,0.0,0.0,-2.1834,-2.3318,-2.4395,-2.5606,-2.7009,-2.7966,-2.8928,-2.986,-3.0648,-3.0822,-3.0576,-3.1923,-3.2366,-3.2099,-3.1837,-3.1793,-3.1756,-2.8894,-2.8874,-3.0539,-2.757,-2.6188,-2.5611,-2.3937,-2.2454,-2.1174,-2.0297,-2.0019,-1.9963,-1.9067,-1.9066,-1.9312,-1.8708,0.0,0.0,0.0,0.0,0.0,0.0,0.0,0.0,0.0,0.0,0.0,0.0,0.0,0.0,0.0,0.0,0.0,0.0,0.0,0.0,-2.3357,-2.4671,-2.5921,-2.7057,-2.7391,-2.7367,-2.6946,-2.7018,-2.732,-2.7868,-2.7486,-2.732,-2.7606,-2.7367,-2.72,-2.72,-2.72,-2.7335,-2.7621,-2.7955,-2.8273,-2.8567,-2.863,-2.8805,-2.9083,-2.8797,0.0,-2.8567,-2.8495,-2.8122,-2.751,-2.7153,-2.6636,-2.6088,-2.5755,-2.5429,-2.5111,-2.5111,-2.5111,-2.5103,-2.5032,-2.4825,-2.4571,0.0,0.0,0.0,0.0,0.0,0.0,0.0,0.0,0.0,0.0,-1.8092,-1.8436,-1.8687,-1.9353,-1.9933,-2.0324,-2.0051,0.0,0.0,-2.147,-2.2913,-2.4336,-2.5691,-2.6869,-2.7914,-2.8607,-2.9301,-2.9994,-3.0926,-3.1322,-3.1134,-3.2666,-3.3312,-3.3145,-3.3377,-3.3347,-3.3015,-3.1105,-3.0987,-3.1894,-2.9832,-2.8378,-2.7257,-2.5574,-2.3933,-2.2347,-2.1695,-2.1107,-2.0575,-2.0051,-1.9868,-1.9821,-1.9264,-1.8859,-1.8507,0.0,0.0,0.0,0.0,0.0,0.0,0.0,0.0,0.0,0.0,0.0,0.0,0.0,0.0,-2.0305,0.0,0.0,-2.3524,-2.4934,-2.6049,-2.6978,-2.7852,-2.8273,-2.8305,-2.7772,-2.7717,-2.778,-2.7955,-2.7669,-2.7471,-2.7471,-2.7304,-2.72,-2.72,-2.7367,-2.755,-2.7657,-2.8233,-2.8583,-2.8765,-2.8948,-2.9123,-2.929,-2.8932,-2.867,-2.8487,-2.8329,-2.7963,-2.7447,-2.7097,-2.6636,-2.6168,-2.5588,-2.527,-2.5111,-2.5111,-2.5111,-2.5111,-2.5111,-2.5,-2.4841,0.0,0.0,0.0,0.0,0.0,0.0,0.0,0.0,0.0,0.0,-1.8036,-1.7972,-1.7868,-1.8196,-1.8447,0.0,0.0,0.0,0.0,-2.2088,-2.3833,-2.5103,-2.6869,-2.8059,-2.8597,-2.9113,-2.958,-2.9994,-3.0833,-3.1329,-3.1536,-3.2789,-3.3472,-3.3689,-3.4517,-3.4691,-3.4157,-3.3183,-3.3015,-3.331,-3.1919,-3.0403,-2.882,-2.7087,-2.5309,-2.3562,-2.2934,-2.1941,-2.0909,-2.0845,-2.0392,-1.9893,-1.9765,-1.9582,-1.9319,-1.8271,-1.8081,0.0,0.0,0.0,0.0,0.0,0.0,0.0,0.0,0.0,-1.9654,-2.0424,-2.1139,-2.191,-2.2831,-2.3848,-2.5061,-2.6399,-2.7089,-2.7701,-2.8249,-2.8583,-2.863,-2.8265,-2.8225,-2.8146,-2.7955,-2.7749,-2.7542,-2.732,-2.724,-2.72,-2.72,-2.7542,-2.7764,-2.7828,-2.844,-2.8805,-2.8869,-2.9155,-2.9298,-2.929,-2.8932,-2.8575,-2.8209,-2.7884,-2.7502,-2.7073,-2.6652,-2.6311,-2.6001,-2.5365,-2.5111,-2.5111,-2.5111,-2.5111,-2.5111,-2.5111,-2.5111,-2.5111,0.0,0.0,0.0,0.0,0.0,0.0,0.0,0.0,0.0,0.0,0.0,0.0,0.0,0.0,0.0,0.0,0.0,0.0,-2.1632,-2.3144,-2.4634,-2.6004,-2.7651,-2.8578,-2.8607,-2.9305,-2.9775,-2.9994,-3.0512,-3.1174,-3.1926,-3.2934,-3.3813,-3.4681,-3.5128,-3.5107,-3.4591,-3.2984,-3.2734,-3.3221,-3.1581,-3.0239,-2.9282,-2.8427,-2.644,-2.3843,-2.2196,-2.127,-2.0869,-2.0559,-2.0194,-2.002,-2.0559,-2.0313,-1.971,-1.8923,0.0,-1.7668,-1.6887,-1.6721,-1.7038,-1.825,-1.8446,-1.8939,0.0,0.0,-2.1894,-2.2919,-2.3681,-2.4301,-2.4738,-2.5675,-2.6732,-2.782,-2.8329,-2.8622,-2.8694,-2.8742,-2.863,-2.8265,-2.8225,-2.8336,-2.8622,-2.7812,-2.7375,-2.7653,-2.7383,-2.72,-2.72,-2.7542,-2.7868,-2.8162,-2.8559,-2.8916,-2.9234,-2.9282,-2.9298,-2.929,-2.8932,-2.8575,-2.8209,-2.7884,-2.7367,-2.67,-2.6041,-2.5668,-2.5659,-2.527,-2.5111,-2.5111,-2.5111,-2.5111,-2.5111,-2.5111,-2.5111,-2.5111,0.0,0.0,0.0,0.0,0.0,0.0,0.0,0.0,0.0,0.0,0.0,0.0,0.0,0.0,0.0,0.0,0.0,0.0,-2.1661,-2.3362,-2.504,-2.6585,-2.8107,-2.8758,-2.8421,-2.9241,-2.966,-2.9591,-3.0325,-3.1127,-3.1881,-3.2628,-3.3406,-3.4237,-3.4774,-3.4931,-3.4745,-3.4044,-3.3767,-3.3741,-3.2741,-3.0928,-2.875,-2.7825,-2.5534,-2.2768,-2.1783,-2.0786,0.0,0.0,-1.9526,-1.9678,-1.9924,-1.9948,-1.9742,-1.878,-1.8454,0.0,-1.7779,-1.7954,0.0,0.0,-2.0091,-2.1155,-2.2736,-2.33,-2.3729,-2.4587,-2.5318,-2.5842,-2.5993,-2.6716,-2.7431,0.0,-2.8408,-2.8694,-2.8479,-2.863,-2.8487,-2.7717,-2.7629,-2.7772,-2.813,-2.7764,-2.7486,-2.7431,-2.7478,-2.751,-2.751,-2.8035,-2.8305,-2.8225,-2.8773,-2.9051,-2.8988,-2.9194,-2.9298,-2.929,-2.8718,-2.8368,-2.8201,-2.7669,-2.7034,-2.6415,-2.6057,-2.5707,-2.5318,-2.5175,-2.5111,-2.5111,-2.5111,-2.5111,-2.5111,-2.5111,-2.5111,-2.5111,0.0,0.0,0.0,0.0,0.0,0.0,0.0,0.0,0.0,0.0,0.0,0.0,0.0,0.0,0.0,0.0,0.0,0.0,0.0,-2.2892,-2.4628,-2.6336,-2.7934,-2.8593,-2.8242,-2.9334,-2.977,-2.9505,-3.039,-3.1131,-3.1818,-3.2527,-3.3075,-3.3544,-3.4344,-3.4617,-3.4432,-3.4258,-3.401,-3.3648,-3.3058,-3.105,-2.8192,-2.6851,-2.4526,-2.1851,-2.0998,-1.9955,0.0,0.0,-1.851,-1.87,-1.8986,-1.9216,-1.92,-1.8494,-1.8343,-1.8383,-1.8319,0.0,0.0,-2.0307,-2.1624,-2.3014,-2.3853,-2.4587,-2.5214,-2.5921,-2.647,-2.6819,-2.6819,-2.732,-2.7733,-2.7733,-2.8233,-2.8495,-2.8138,-2.8146,-2.7876,-2.7018,-2.674,-2.6803,-2.7248,-2.7383,-2.7375,-2.7216,-2.7534,-2.7733,-2.7733,-2.8297,-2.8543,-2.8376,-2.8877,-2.9075,-2.8916,-2.9171,-2.925,-2.9139,-2.8519,-2.8178,-2.8066,-2.7272,-2.6581,-2.6001,-2.5969,-2.5572,-2.5111,-2.5111,-2.5111,-2.5111,-2.5111,-2.5111,-2.5111,-2.5111,-2.5111,-2.5111,0.0,0.0,0.0,0.0,0.0,0.0,0.0,0.0,0.0,0.0,0.0,0.0,0.0,0.0,0.0,0.0,0.0,0.0,0.0,-2.1535,-2.3129,-2.4807,-2.69,-2.8034,-2.8004,-2.9648,-3.0367,-3.0075,-3.0748,-3.1335,-3.1808,-3.2752,-3.3022,-3.2789,-3.3972,-3.4118,-3.3389,-3.2975,-3.2789,-3.2696,-3.1795,-3.0096,-2.7888,-2.5928,-2.3806,-2.1628,-1.9622,0.0,0.0,0.0,-1.7096,-1.6951,-1.8017,-1.8105,0.0,-1.8208,-1.7834,0.0,0.0,0.0,-1.9829,-2.1525,-2.2712,-2.3813,-2.52,-2.585,-2.6367,-2.701,-2.7169,-2.7185,-2.7185,-2.7486,-2.7733,-2.7733,-2.8019,-2.8122,-2.7796,-2.7161,-2.6597,-2.6288,-2.558,-2.5445,0.0,-2.6566,-2.6843,-2.7177,-2.7534,-2.7733,-2.7733,-2.805,-2.8392,-2.8742,-2.8773,-2.8948,-2.9282,-2.929,-2.9123,-2.8781,-2.8408,-2.8058,-2.7709,-2.6652,-2.5985,-2.5573,-2.5286,-2.5127,-2.5111,-2.5111,-2.5111,-2.5111,-2.5111,-2.5111,-2.5111,-2.5111,-2.5111,-2.5111,0.0,0.0,0.0,0.0,0.0,0.0,0.0,0.0,0.0,0.0,0.0,0.0,0.0,0.0,0.0,0.0,0.0,0.0,0.0,-2.1024,-2.2364,-2.3563,-2.5548,-2.6672,-2.6793,-2.8326,-2.9112,-2.9179,-2.9706,-3.0308,-3.0931,-3.0906,-3.1063,-3.1485,-3.1822,-3.1844,-3.1578,-3.1433,-3.1371,-3.1267,-3.0036,-2.8111,-2.5801,-2.4044,-2.1612,-1.8966,0.0,0.0,0.0,0.0,-1.5952,-1.6134,-1.6722,-1.6833,0.0,-1.7445,-1.7779,-1.8263,0.0,0.0,-2.1862,-2.361,-2.4666,-2.558,-2.6756,-2.7113,-2.72,-2.72,-2.6644,-2.6017,-2.5548,-2.5365,-2.5445,-2.5914,-2.6668,-2.724,-2.7359,-2.7383,-2.6899,-2.5612,-2.5461,0.0,0.0,0.0,0.0,-2.7145,-2.7534,-2.7828,-2.8043,-2.8392,-2.8638,-2.8836,-2.8765,-2.8821,-2.8948,-2.8948,-2.8885,-2.8757,-2.8178,-2.7717,-2.7359,-2.6764,-2.6367,-2.5953,-2.5612,-2.5326,-2.5111,-2.5111,-2.5111,-2.5111,-2.5111,-2.5111,-2.5111,-2.5111,-2.5111,-2.5111,0.0,0.0,0.0,0.0,0.0,0.0,0.0,0.0,0.0,0.0,0.0,0.0,0.0,0.0,0.0,0.0,0.0,0.0,0.0,0.0,-2.0981,-2.1906,-2.3514,-2.4505,-2.4811,-2.6065,-2.6767,-2.6924,-2.7611,-2.8203,-2.8703,-2.8843,-2.9003,-2.9162,-2.9532,-2.9568,-2.9197,-2.9042,-2.9063,-2.9094,-2.7717,-2.6104,-2.4334,-2.2523,-2.0539,0.0,0.0,0.0,0.0,-1.5385,-1.5133,-1.5388,-1.5864,-1.6357,-1.6849,-1.7318,-1.8208,-1.9399,0.0,-2.2434,-2.3753,-2.5135,-2.6104,-2.6859,-2.7415,-2.7447,-2.7216,-2.674,-2.5906,-2.5008,-2.4174,-2.3832,-2.3832,-2.4285,-2.5135,-2.5945,-2.6557,-2.6621,-2.6327,-2.5564,-2.5349,-2.5318,0.0,0.0,0.0,-2.7121,-2.7637,-2.8003,-2.8209,-2.8448,-2.8694,-2.8948,-2.871,-2.8694,-2.8956,-2.8829,-2.8646,-2.8392,-2.782,-2.7288,-2.6819,-2.6589,-2.6288,-2.5763,-2.5548,-2.5318,-2.5111,-2.5111,-2.5111,-2.5111,-2.5111,-2.5111,-2.5111,-2.5111,-2.5111,-2.5111,0.0,0.0,0.0,0.0,0.0,0.0,0.0,0.0,0.0,0.0,0.0,0.0,0.0,0.0,0.0,0.0,0.0,0.0,0.0,0.0,0.0,-1.9965,-2.0992,-2.1745,-2.2237,-2.3138,-2.3629,-2.3651,-2.474,-2.5272,-2.5304,-2.6711,-2.6883,-2.6065,-2.7179,-2.7199,-2.6376,-2.5941,-2.6003,-2.6293,-2.4859,-2.4073,-2.3464,-2.1381,0.0,0.0,0.0,0.0,0.0,0.0,0.0,0.0,0.0,0.0,-1.783,-1.7902,-1.9105,-2.079,-2.2227,-2.3864,-2.5334,-2.6112,-2.697,-2.7606,-2.7232,-2.6859,-2.639,-2.5683,-2.4921,-2.4078,0.0,0.0,-2.2903,-2.295,-2.3586,-2.446,-2.554,-2.5127,-2.5071,0.0,0.0,0.0,0.0,0.0,0.0,-2.7153,0.0,-2.8217,-2.8249,-2.8249,-2.8567,-2.925,-2.8607,-2.8575,-2.9266,-2.8916,-2.8392,-2.7701,-2.7359,-2.6843,-2.624,-2.6216,-2.5842,-2.5135,-2.5119,-2.5111,-2.5111,-2.5111,-2.5111,-2.5111,-2.5111,-2.5111,-2.5111,-2.5111,-2.5111,-2.5111,0.0,0.0,0.0,0.0,0.0,0.0,0.0,0.0,0.0,0.0,0.0,0.0,0.0,0.0,0.0,0.0,0.0,0.0,0.0,0.0,0.0,0.0,0.0,0.0,0.0,0.0,0.0,0.0,0.0,-2.3618,-2.3628,-2.3774,-2.3763,-2.3498,-2.3703,-2.3714,-2.371,-2.3595,-2.3534,-2.3443,0.0,-2.1537,-2.0777,0.0,0.0,0.0,0.0,0.0,0.0,0.0,0.0,0.0,0.0,0.0,-1.8021,-1.9073,0.0,-2.2035,-2.3912,-2.5143,-2.6112,-2.7081,-2.7328,-2.7177,-2.6622,-2.5945,-2.5238,-2.4218,-2.2895,-2.1608,0.0,0.0,0.0,-2.2154,-2.3475,0.0,-2.6223,-2.6485,0.0,0.0,0.0,-2.6144,-2.6208,-2.6541,0.0,0.0,-2.7757,-2.8082,-2.8599,-2.863,-2.871,-2.8893,-2.8726,-2.8718,-2.89,-2.8543,-2.8019,-2.7335,-2.7248,-2.697,-2.6525,-2.6327,-2.5914,-2.5485,-2.5222,-2.5111,-2.5111,-2.5111,-2.5111,-2.5111,-2.5111,-2.5111,-2.5111,-2.5111,-2.5111,-2.5111,0.0,0.0,0.0,0.0,0.0,0.0,0.0,0.0,0.0,0.0,0.0,0.0,0.0,0.0,0.0,0.0,0.0,0.0,0.0,0.0,0.0,0.0,0.0,0.0,0.0,0.0,0.0,0.0,0.0,0.0,0.0,-2.1157,-2.1161,-2.1067,-2.1094,-2.1149,-2.1188,-2.0943,0.0,0.0,0.0,0.0,0.0,0.0,0.0,0.0,0.0,0.0,0.0,0.0,0.0,-1.6492,-1.7151,-1.8184,-1.9431,-2.0837,0.0,-2.3697,-2.5349,-2.6533,-2.7434,-2.7661,-2.7471,-2.6899,-2.5794,-2.4801,-2.38,-2.2442,-2.125,0.0,0.0,0.0,0.0,0.0,0.0,0.0,-2.5532,-2.6064,-2.6366,0.0,-2.6787,0.0,-2.6843,-2.7335,-2.7796,0.0,-2.8186,-2.836,-2.875,-2.8765,-2.8837,-2.8996,-2.8694,-2.8464,-2.8313,-2.8249,-2.7884,-2.72,-2.72,-2.6938,-2.6503,-2.6303,-2.5874,-2.5397,-2.5199,-2.5111,-2.5111,-2.5111,-2.5111,-2.5111,-2.5111,-2.5111,-2.5111,-2.5111,-2.5111,-2.5173,0.0,0.0,0.0,0.0,0.0,0.0,0.0,0.0,0.0,0.0,0.0,0.0,0.0,0.0,0.0,0.0,0.0,0.0,0.0,0.0,0.0,0.0,0.0,0.0,0.0,0.0,0.0,0.0,0.0,0.0,0.0,0.0,0.0,0.0,0.0,0.0,0.0,0.0,0.0,0.0,0.0,0.0,0.0,0.0,0.0,0.0,0.0,0.0,0.0,0.0,-1.7111,-1.7676,-1.8764,-1.9986,-2.1401,-2.2807,-2.415,-2.5413,-2.6517,-2.7701,-2.8495,-2.7939,-2.7391,-2.6549,-2.4833,-2.3554,-2.2251,-2.0535,0.0,0.0,-1.8398,0.0,-1.9455,-1.998,0.0,-2.2696,-2.4404,-2.4992,-2.5715,-2.6978,-2.7216,-2.7375,-2.7637,-2.8043,-2.8408,-2.8678,-2.8781,-2.8837,-2.8837,-2.8837,-2.8956,-2.9218,-2.8535,-2.8019,-2.7665,-2.8011,-2.7836,-2.72,-2.72,-2.6835,-2.6208,-2.6208,-2.5834,-2.5111,-2.5111,-2.5111,-2.5111,-2.5111,-2.5111,-2.5111,-2.5111,-2.5111,-2.5111,-2.5288,-2.5349,-2.5525,0.0,0.0,0.0,0.0,0.0,0.0,0.0,0.0,0.0,0.0,0.0,0.0,0.0,0.0,0.0,0.0,0.0,0.0,0.0,0.0,0.0,0.0,0.0,0.0,0.0,0.0,0.0,0.0,0.0,0.0,0.0,0.0,0.0,0.0,0.0,0.0,0.0,0.0,0.0,0.0,0.0,0.0,0.0,0.0,0.0,0.0,0.0,0.0,0.0,0.0,-1.7795,-1.8796,-2.0089,-2.1322,-2.249,-2.3896,-2.4897,-2.5842,-2.7185,-2.7725,-2.7947,-2.8098,-2.7018,-2.5462,-2.4063,-2.2458,0.0,0.0,0.0,-1.8125,-1.7942,-1.8438,0.0,-2.0543,0.0,0.0,0.0,0.0,-2.6232,0.0,0.0,0.0,0.0,0.0,0.0,0.0,0.0,-2.9202,-2.9202,-2.9202,-2.9099,-2.8861,-2.8178,-2.7788,-2.7733,-2.7788,-2.7606,-2.72,-2.72,-2.6835,-2.6208,-2.6208,-2.5834,-2.5111,-2.5111,-2.5111,-2.5111,-2.5111,-2.5111,-2.5111,-2.5111,-2.5111,-2.5226,-2.6302,-2.6658,-2.684,0.0,0.0,0.0,0.0,0.0,0.0,0.0,0.0,0.0,0.0,-2.0875,0.0,0.0,0.0,0.0,0.0,0.0,0.0,0.0,0.0,0.0,0.0,0.0,0.0,0.0,0.0,0.0,0.0,0.0,0.0,0.0,0.0,0.0,0.0,0.0,0.0,0.0,0.0,0.0,0.0,0.0,0.0,0.0,0.0,0.0,0.0,0.0,0.0,0.0,0.0,-1.7811,-1.909,-2.0901,-2.2188,-2.3276,-2.4499,-2.5485,-2.6406,-2.7447,-2.7995,-2.8225,-2.8019,-2.6517,-2.4627,-2.2807,0.0,0.0,0.0,0.0,-1.7504,-1.727,0.0,0.0,0.0,0.0,0.0,0.0,0.0,0.0,0.0,0.0,0.0,0.0,0.0,0.0,0.0,0.0,-2.902,-2.902,-2.8845,-2.8654,-2.8487,-2.8162,-2.782,-2.7455,-2.7637,-2.7558,-2.72,-2.72,-2.6835,-2.6208,-2.6208,-2.5834,-2.5111,-2.5111,-2.5111,-2.5111,-2.5111,-2.5111,-2.5111,-2.5111,-2.5533,-2.6181,-2.6779,-2.7435,-2.8146,0.0,0.0,0.0,0.0,0.0,0.0,0.0,-2.1054,-2.1021,-2.1044,-2.0961,-2.0888,-2.0762,-2.0712,0.0,0.0,0.0,0.0,0.0,0.0,0.0,0.0,0.0,0.0,0.0,0.0,0.0,0.0,0.0,0.0,0.0,0.0,0.0,0.0,0.0,0.0,0.0,0.0,0.0,0.0,0.0,0.0,0.0,0.0,0.0,0.0,0.0,0.0,0.0,0.0,-1.7363,-1.8654,-2.0583,-2.2156,-2.3491,-2.4396,-2.5508,-2.6605,-2.7312,-2.8011,-2.8392,-2.7772,-2.5977,-2.3848,-2.1894,-1.9986,0.0,0.0,0.0,0.0,0.0,0.0,0.0,0.0,0.0,0.0,0.0,0.0,0.0,0.0,0.0,0.0,0.0,0.0,0.0,0.0,0.0,-2.8583,-2.8646,-2.8376,-2.8193,-2.8122,-2.8043,-2.7749,-2.7208,-2.7478,-2.7439,-2.7089,-2.7089,-2.6724,-2.6096,-2.6096,-2.588,-2.5533,-2.5533,-2.5533,-2.5533,-2.5533,-2.5533,-2.5533,-2.5533,-2.6302,-2.7435,-2.7727,-2.8444,-2.9512,0.0,0.0,0.0,0.0,0.0,0.0,0.0,-2.0496,-2.0627,-2.1113,-2.1071,-2.0961,-2.0888,-2.0762,0.0,0.0,0.0,0.0,0.0,0.0,0.0,0.0,0.0,0.0,0.0,0.0,0.0,0.0,0.0,0.0,0.0,0.0,0.0,0.0,0.0,0.0,0.0,0.0,0.0,0.0,0.0,0.0,0.0,0.0,0.0,0.0,0.0,0.0,0.0,0.0,0.0,-1.7085,-1.8279,-2.0448,-2.2664,-2.3085,0.0,0.0,-2.6581,-2.7288,-2.7733,-2.7351,-2.5429,-2.326,-2.1798,0.0,0.0,0.0,-1.6721,-1.6873,0.0,0.0,0.0,0.0,0.0,0.0,0.0,0.0,0.0,0.0,0.0,0.0,0.0,0.0,0.0,0.0,0.0,-2.7955,-2.8257,-2.8241,-2.8082,-2.7788,-2.7463,-2.7264,-2.72,-2.7232,-2.7073,-2.6724,-2.6724,-2.6358,-2.5683,-2.5683,-2.6075,-2.684,-2.684,-2.684,-2.684,-2.684,-2.684,-2.684,-2.684,-2.7607,-2.8861,-3.0051,-3.0519,-3.083,0.0,0.0,0.0,0.0,0.0,0.0,0.0,-2.0485,-2.0678,-2.1245,-2.1204,-2.112,-2.1071,-2.0924,0.0,0.0,0.0,0.0,0.0,0.0,0.0,0.0,0.0,0.0,0.0,0.0,0.0,0.0,0.0,0.0,0.0,0.0,0.0,0.0,0.0,0.0,0.0,0.0,0.0,0.0,0.0,0.0,0.0,0.0,0.0,0.0,0.0,0.0,0.0,0.0,0.0,0.0,-1.6357,-1.7771,0.0,0.0,-2.2847,-2.4349,-2.5683,-2.6565,-2.701,-2.6652,-2.4722,-2.2545,-2.1139,0.0,0.0,-1.6864,-1.6689,-1.6737,-1.6921,0.0,0.0,0.0,0.0,0.0,0.0,0.0,0.0,0.0,0.0,0.0,0.0,0.0,0.0,0.0,0.0,-2.7693,-2.7614,-2.7614,-2.7645,-2.7725,-2.7383,-2.72,-2.72,-2.6994,-2.6811,-2.6668,-2.6526,-2.6535,-2.6736,-2.6736,-2.7258,-2.8146,-2.8146,-2.8146,-2.8146,-2.8146,-2.8146,-2.8146,-2.8146,-2.892,-3.0109,-3.0587,-3.1295,-3.2018,0.0,0.0,0.0,0.0,0.0,0.0,-1.9944,-2.0152,-2.0477,-2.106,-2.1032,-2.1016,-2.1142,-2.0839,-2.0641,-2.0699,0.0,0.0,0.0,0.0,0.0,0.0,0.0,0.0,0.0,0.0,0.0,0.0,0.0,0.0,0.0,0.0,0.0,0.0,0.0,0.0,0.0,0.0,0.0,0.0,0.0,0.0,0.0,0.0,0.0,0.0,0.0,0.0,0.0,0.0,0.0,0.0,0.0,0.0,0.0,0.0,-2.1131,-2.2736,-2.4285,-2.5365,-2.5969,-2.5674,-2.384,-2.1838,0.0,0.0,0.0,-1.6816,-1.6689,-1.6689,-1.6689,0.0,0.0,0.0,0.0,0.0,0.0,0.0,0.0,0.0,0.0,0.0,0.0,0.0,0.0,0.0,0.0,-2.7471,-2.7216,-2.72,-2.732,-2.7566,-2.7335,-2.7153,-2.705,-2.6795,-2.6573,-2.6366,-2.6551,-2.6856,-2.7354,-2.7721,-2.8465,-2.9453,-2.9453,-2.9453,-2.9453,-2.9453,-2.9453,-2.9453,-2.9453,-3.0227,-3.1353,-3.1353,-3.2018,-3.2851,0.0,0.0,0.0,0.0,0.0,0.0,0.0,-1.9328,-1.9895,-2.045,-2.0448,-2.056,-2.0955,-2.0406,-2.0204,-2.066,0.0,0.0,0.0,0.0,0.0,0.0,0.0,0.0,0.0,0.0,0.0,-1.7306,-1.7306,0.0,0.0,0.0,0.0,0.0,0.0,0.0,0.0,0.0,0.0,0.0,0.0,0.0,0.0,0.0,0.0,0.0,0.0,0.0,0.0,0.0,0.0,0.0,0.0,0.0,0.0,0.0,-1.9296,-2.1171,-2.2235,-2.3538,-2.4515,-2.4225,-2.276,-2.1127,0.0,0.0,0.0,0.0,-1.6689,-1.6689,-1.6689,0.0,0.0,0.0,0.0,0.0,0.0,0.0,0.0,0.0,0.0,0.0,0.0,0.0,0.0,0.0,-2.7208,0.0,-2.72,-2.72,-2.72,-2.7208,-2.72,-2.7034,-2.6684,-2.6676,-2.6327,-2.5651,-2.686,-2.7328,-2.7021,-2.8334,-2.958,-3.0762,-3.0762,-3.0762,-3.0762,-3.0762,-3.0762,-3.0762,-3.0762,-3.1536,-3.2669,-3.2669,-3.2908,-3.3193,0.0,0.0,0.0,0.0,0.0,0.0,0.0,-1.8948,-1.9258,-1.9737,-1.9795,-1.9808,-1.9834,-1.9929,-2.0057,-2.0193,0.0,0.0,0.0,0.0,0.0,0.0,0.0,0.0,0.0,0.0,-1.7306,-1.7306,-1.7306,-1.7239,-1.7078,-1.7004,0.0,0.0,0.0,0.0,0.0,0.0,0.0,0.0,0.0,0.0,0.0,0.0,0.0,0.0,0.0,0.0,0.0,0.0,0.0,0.0,0.0,0.0,0.0,0.0,0.0,0.0,-2.0395,-2.137,-2.2053,-2.1941,-2.0964,-1.9812,-1.8978,0.0,0.0,0.0,0.0,0.0,0.0,0.0,0.0,0.0,0.0,0.0,0.0,0.0,0.0,0.0,0.0,0.0,0.0,0.0,0.0,0.0,-2.72,-2.72,-2.72,-2.697,-2.6954,-2.7193,-2.697,-2.6787,-2.6676,-2.707,-2.7148,-2.6914,-2.7982,-2.886,-2.9639,-2.9992,-3.0878,-3.2076,-3.2076,-3.2076,-3.2133,-3.2363,-3.242,-3.2477,-3.2638,-3.2934,-3.3296,-3.3296,-3.3409,-3.3466,0.0,0.0,0.0,0.0,0.0,0.0,0.0,-1.8636,-1.89,-1.92,-1.9153,-1.9137,-1.9274,-1.9297,-1.9469,-1.988,0.0,0.0,0.0,0.0,0.0,0.0,0.0,0.0,0.0,-1.7363,-1.7267,-1.7183,-1.7267,-1.7183,-1.6909,-1.6881,-1.6779,-1.6599,0.0,0.0,0.0,0.0,0.0,0.0,0.0,0.0,-1.6571,0.0,0.0,0.0,0.0,0.0,0.0,0.0,0.0,0.0,0.0,0.0,0.0,0.0,-1.584,0.0,0.0,-1.9495,-2.013,-2.013,-1.9542,0.0,0.0,0.0,0.0,0.0,0.0,0.0,0.0,0.0,0.0,0.0,0.0,0.0,0.0,0.0,0.0,0.0,0.0,0.0,0.0,0.0,0.0,0.0,-2.7258,-2.7202,-2.7516,-2.7352,-2.7335,-2.7564,-2.7352,-2.7412,-2.7709,-2.8049,-2.8167,-2.8035,-2.9099,-3.0051,-3.082,-3.1421,-3.2133,-3.2898,-3.3012,-3.3069,0.0,-3.3239,-3.3353,-3.3353,-3.3512,-3.3625,-3.3625,-3.3625,-3.3625,-3.3579,0.0,0.0,0.0,0.0,0.0,0.0,0.0,0.0,0.0,0.0,-1.8492,-1.8542,-1.9092,-1.8521,0.0,0.0,0.0,0.0,0.0,0.0,0.0,0.0,0.0,0.0,0.0,-1.6956,-1.7124,-1.6957,-1.7157,-1.7067,-1.6818,-1.6909,-1.6814,-1.6581,-1.6581,0.0,0.0,0.0,0.0,0.0,0.0,0.0,0.0,0.0,0.0,0.0,0.0,0.0,0.0,0.0,0.0,0.0,0.0,0.0,0.0,0.0,0.0,0.0,0.0,0.0,0.0,0.0,0.0,0.0,0.0,0.0,0.0,0.0,0.0,0.0,0.0,0.0,0.0,0.0,0.0,0.0,0.0,0.0,0.0,0.0,0.0,0.0,0.0,0.0,0.0,-2.8473,-2.7522,-2.731,-2.8215,-2.8226,-2.8217,-2.8334,-2.8317,-2.8632,-2.9368,-2.9461,-2.9329,-2.9039,-3.0344,-3.0946,-3.1005,-3.2545,-3.3193,0.0,-3.3466,-3.3625,-3.3625,-3.3625,-3.3625,-3.3625,-3.3681,-3.3681,-3.3681,-3.3681,-3.3681,-3.3681,0.0,0.0,0.0,0.0,0.0,0.0,0.0,0.0,0.0,0.0,0.0,-1.7741,-1.7829,-1.8004,0.0,0.0,0.0,0.0,0.0,0.0,0.0,0.0,0.0,0.0,0.0,-1.6306,-1.6312,-1.6634,-1.6575,-1.6632,-1.6818,-1.6722,-1.6609,-1.6459,-1.6459,0.0,0.0,0.0,0.0,0.0,0.0,0.0,0.0,0.0,0.0,0.0,-1.451,-1.4605,0.0,0.0,0.0,0.0,0.0,0.0,0.0,0.0,-1.466,-1.4867,-1.5515,0.0,-1.6826,-1.6826,0.0,0.0,0.0,0.0,0.0,0.0,0.0,0.0,0.0,0.0,0.0,0.0,0.0,0.0,0.0,0.0,0.0,0.0,0.0,0.0,0.0,0.0,0.0,-2.8271,-2.8822,-2.9351,-2.9564,-2.9258,-2.9514,-3.0553,-3.0319,-2.9905,-2.9395,-3.0109,-3.044,-3.0353,-3.1662,-3.2373,-3.2659,-3.3012,-3.3306,-3.3523,-3.3568,-3.3625,-3.3625,-3.3861,-3.3974,-3.3974,-3.4188,-3.43,-3.43,-3.43,-3.43,-3.4244,0.0,0.0,0.0,0.0,0.0,0.0,0.0,0.0,0.0,0.0,0.0,0.0,0.0,0.0,0.0,0.0,0.0,0.0,0.0,0.0,0.0,0.0,0.0,0.0,-1.5984,-1.6078,-1.6221,-1.6402,-1.6564,-1.6635,-1.6694,-1.6627,-1.6524,-1.6413,-1.6413,0.0,0.0,0.0,0.0,0.0,-1.6315,0.0,0.0,0.0,0.0,0.0,-1.4534,-1.4605,0.0,-1.4605,-1.4605,-1.4605,0.0,0.0,0.0,0.0,-1.4724,-1.4935,-1.5133,-1.557,-1.5999,-1.6166,-1.6468,-1.6689,0.0,0.0,0.0,0.0,0.0,0.0,0.0,0.0,0.0,0.0,0.0,0.0,0.0,0.0,0.0,0.0,0.0,0.0,0.0,0.0,-2.9705,-2.9583,-2.9644,-2.9937,-3.0366,-3.0131,-3.0365,-3.1034,-3.1588,-3.1588,-3.0926,-3.1424,-3.1767,-3.1893,-3.2602,-3.3079,-3.3409,-3.33,-3.349,-3.3851,-3.3738,-3.3815,-3.4019,-3.4199,-3.4311,-3.4311,-3.4468,-3.4524,-3.4524,-3.4524,-3.4412,-3.4311,0.0,0.0,0.0,0.0,0.0,0.0,0.0,0.0,0.0,0.0,0.0,0.0,0.0,0.0,0.0,0.0,0.0,0.0,0.0,0.0,0.0,0.0,0.0,-1.5429,-1.5116,-1.5891,-1.6303,-1.6305,-1.6692,-1.681,-1.6704,-1.6612,-1.6506,-1.6413,-1.6413,-1.6413,0.0,0.0,0.0,0.0,-1.6068,0.0,0.0,0.0,0.0,0.0,0.0,0.0,0.0,-1.4605,-1.4605,-1.4605,-1.4605,0.0,0.0,0.0,0.0,0.0,-1.5266,-1.5499,-1.5833,-1.6134,-1.6468,-1.6689,0.0,0.0,0.0,0.0,0.0,0.0,0.0,0.0,0.0,0.0,0.0,0.0,0.0,0.0,0.0,0.0,0.0,0.0,0.0,-2.9661,-3.0247,-3.116,-3.0427,-3.0275,-3.1141,-3.1179,-3.1179,-3.1237,-3.2534,-3.3136,-3.2841,-3.2841,-3.2955,-3.325,-3.325,-3.3367,-3.3564,-3.3437,-3.3603,-3.3961,-3.3759,-3.3923,-3.4305,-3.4305,-3.4305,-3.4305,-3.4305,-3.4305,-3.4305,-3.4382,-3.4247,-3.4045,0.0,0.0,0.0,0.0,0.0,0.0,0.0,0.0,0.0,0.0,0.0,0.0,0.0,0.0,0.0,0.0,0.0,0.0,0.0,0.0,0.0,0.0,-1.4582,-1.4766,-1.5094,-1.5247,-1.5651,-1.6305,-1.6261,-1.656,-1.7187,-1.6665,-1.6431,-1.6413,-1.6413,-1.6413,-1.6413,-1.6413,-1.6413,-1.6386,-1.6168,0.0,0.0,0.0,0.0,0.0,0.0,0.0,0.0,-1.4605,-1.4605,-1.4605,-1.4605,0.0,0.0,0.0,0.0,0.0,-1.5443,-1.5856,-1.6142,-1.619,-1.6468,-1.6689,0.0,0.0,0.0,0.0,0.0,0.0,0.0,0.0,0.0,0.0,0.0,0.0,0.0,0.0,0.0,0.0,0.0,0.0,0.0,-3.0761,-3.181,-3.0918,-3.1694,-3.2377,-3.2784,-3.2841,-3.2944,-3.3161,-3.3399,-3.3512,-3.3455,-3.3455,-3.3466,-3.3523,-3.3523,-3.3468,-3.334,-3.332,-3.3279,-3.3236,-3.3213,-3.3278,-3.3289,-3.3289,-3.3289,-3.3289,-3.3289,-3.3289,-3.3333,-3.3759,-3.3857,-3.3912,0.0,0.0,0.0,0.0,0.0,0.0,0.0,0.0,0.0,0.0,0.0,0.0,0.0,0.0,0.0,0.0,0.0,0.0,0.0,0.0,0.0,-1.4779,-1.4766,-1.4875,-1.5105,-1.5607,-1.5983,-1.6305,-1.6426,-1.6627,-1.6924,-1.6553,-1.6413,-1.6413,-1.6413,-1.6413,-1.6413,-1.6413,-1.6192,-1.5857,0.0,0.0,0.0,0.0,0.0,0.0,0.0,0.0,0.0,0.0,-1.4605,-1.4605,-1.4605,0.0,0.0,0.0,0.0,0.0,-1.5324,-1.5801,-1.6246,-1.6404,-1.6762,-1.6976,0.0,0.0,0.0,0.0,0.0,0.0,0.0,0.0,0.0,0.0,0.0,0.0,0.0,0.0,0.0,0.0,0.0,0.0,-3.0671,-3.1896,-3.244,-3.1893,-3.2545,-3.3022,-3.3193,-3.3363,-3.3466,-3.3625,-3.3805,-3.3861,-3.3861,-3.3761,-3.3632,-3.3454,-3.3454,-3.3374,-3.3171,-3.2922,-3.2931,-3.3103,-3.2809,-3.2895,-3.3124,-3.3124,-3.3124,-3.3124,-3.3124,-3.3124,-3.3146,-3.3322,-3.3399,-3.3431,0.0,0.0,0.0,0.0,0.0,0.0,0.0,0.0,0.0,0.0,0.0,0.0,0.0,0.0,0.0,0.0,0.0,0.0,0.0,0.0,-1.4689,-1.4919,-1.5159,-1.5323,-1.5432,-1.6116,-1.6499,-1.6466,-1.671,-1.6779,-1.6609,-1.6563,-1.6477,-1.6413,-1.6413,-1.6413,-1.6413,-1.6413,-1.6167,-1.5772,0.0,0.0,0.0,0.0,0.0,0.0,0.0,0.0,0.0,0.0,0.0,0.0,0.0,0.0,0.0,-1.4605,-1.4803,-1.5078,-1.5165,-1.569,-1.6269,-1.6507,0.0,0.0,0.0,0.0,0.0,0.0,0.0,0.0,0.0,0.0,0.0,0.0,0.0,0.0,0.0,0.0,0.0,0.0,0.0,-3.1079,-3.255,-3.2794,-3.2851,-3.2851,-3.3126,-3.3254,-3.3251,-3.3409,-3.3567,-3.3623,-3.3806,-3.3917,-3.4026,-3.3769,-3.3574,-3.3397,-3.3279,-3.315,-3.2896,-3.2536,-3.2514,-3.2711,-3.2361,-3.2405,-3.2732,-3.2732,-3.2732,-3.2732,-3.2732,-3.2851,-3.296,-3.296,-3.3026,-3.306,0.0,0.0,0.0,0.0,0.0,0.0,0.0,0.0,0.0,0.0,0.0,0.0,0.0,0.0,0.0,0.0,0.0,0.0,0.0,0.0,-1.4869,-1.4474,-1.5277,-1.5953,-1.6378,-1.6454,-1.6651,-1.6957,-1.6961,-1.6842,-1.662,-1.6846,-1.6748,-1.6413,-1.6413,-1.6413,-1.6413,-1.6413,-1.6593,-1.6846,-1.6296,0.0,0.0,0.0,0.0,0.0,0.0,0.0,0.0,0.0,0.0,0.0,0.0,0.0,-1.4605,-1.4605,-1.4621,-1.4716,-1.5094,-1.569,-1.6214,-1.6238,0.0,0.0,0.0,0.0,0.0,0.0,0.0,0.0,0.0,0.0,0.0,0.0,0.0,0.0,0.0,0.0,0.0,0.0,-3.2509,-3.254,-3.2669,-3.2965,-3.3136,-3.3136,-3.3409,-3.349,-3.3308,-3.3286,-3.3451,-3.3792,-3.341,-3.3388,-3.3846,-3.3366,-3.3344,-3.3792,-3.3333,-3.2874,-3.2427,-3.2394,-3.2143,-3.1728,-3.1695,-3.1695,-3.1728,-3.1728,-3.1728,-3.1728,-3.1728,-3.2012,-3.2427,-3.2427,-3.27,-3.3124,0.0,0.0,0.0,0.0,0.0,0.0,0.0,0.0,0.0,0.0,0.0,0.0,0.0,0.0,0.0,0.0,0.0,0.0,0.0,0.0,-1.5016,-1.4845,-1.5192,-1.5713,-1.6476,-1.683,-1.7015,-1.7011,-1.6814,-1.6712,-1.6609,-1.6626,-1.6539,-1.6413,-1.6413,-1.6529,-1.6758,-1.6758,-1.6808,-1.6836,-1.6348,-1.5917,0.0,0.0,0.0,0.0,0.0,0.0,0.0,0.0,-1.4605,-1.4605,0.0,0.0,-1.4605,-1.4605,-1.4605,-1.4637,-1.4771,-1.5924,-1.7058,-1.701,0.0,0.0,0.0,0.0,0.0,0.0,0.0,0.0,0.0,0.0,0.0,0.0,0.0,0.0,0.0,0.0,0.0,0.0,-3.2246,-3.2359,-3.2517,-3.2378,-3.2377,-3.2588,-3.2852,-3.292,-3.2846,-3.3063,-3.3225,-3.3344,-3.3169,-3.3212,-3.3333,-3.2874,-3.2732,-3.2918,-3.2732,-3.2394,-3.1913,-3.1913,-3.1804,-3.1618,-3.1618,-3.1618,-3.1618,-3.1618,-3.1618,-3.1618,-3.1618,-3.1738,-3.1913,-3.1913,-3.2022,-3.2164,0.0,0.0,0.0,0.0,0.0,0.0,0.0,0.0,0.0,0.0,0.0,0.0,0.0,0.0,0.0,0.0,0.0,0.0,0.0,-1.549,-1.5188,-1.4888,-1.5028,-1.5476,-1.6258,-1.6787,-1.7048,-1.7078,-1.6853,-1.674,-1.6712,-1.6591,-1.6488,-1.6459,-1.6605,-1.6786,-1.7027,-1.7172,-1.7236,-1.7284,-1.7012,-1.6555,0.0,0.0,0.0,0.0,0.0,0.0,0.0,0.0,0.0,0.0,0.0,0.0,0.0,0.0,-1.4856,-1.5153,-1.5153,-1.6529,-1.7955,0.0,0.0,0.0,0.0,0.0,0.0,0.0,0.0,0.0,0.0,0.0,0.0,0.0,0.0,0.0,0.0,0.0,0.0,-3.1979,-3.1937,-3.2038,-3.2304,-3.2184,-3.2156,-3.2308,-3.2577,-3.2674,-3.2522,-3.2735,-3.2906,-3.2906,-3.2689,-3.2689,-3.2906,-3.2383,-3.2143,-3.2143,-3.2143,-3.1968,-3.1618,-3.1618,-3.1618,-3.1618,-3.1618,-3.1618,-3.1618,-3.1618,-3.1618,-3.1618,-3.1618,-3.1618,-3.1618,-3.1618,-3.1618,-3.1618,0.0,0.0,0.0,0.0,0.0,0.0,0.0,0.0,0.0,0.0,0.0,0.0,0.0,0.0,0.0,0.0,0.0,0.0,-1.5876,-1.581,-1.5366,-1.4443,-1.4843,-1.5309,-1.58,-1.6258,-1.6776,-1.7306,-1.7106,-1.7011,-1.7011,-1.6864,-1.6733,-1.663,-1.7103,-1.7195,-1.7058,-1.7513,-1.7988,-1.8414,-1.8382,-1.8226,-1.7901,0.0,0.0,0.0,0.0,0.0,0.0,0.0,-1.5798,0.0,0.0,0.0,0.0,0.0,-1.5452,-1.6383,-1.642,-1.758,0.0,0.0,0.0,0.0,0.0,0.0,0.0,0.0,0.0,0.0,0.0,0.0,0.0,0.0,0.0,0.0,0.0,0.0,-3.148,-3.1787,-3.1787,-3.1885,-3.2145,-3.2459,-3.2609,-3.2609,-3.2889,-3.2853,-3.2394,-3.2372,-3.2372,-3.2372,-3.1891,-3.187,-3.2372,-3.187,-3.1618,-3.1567,-3.1618,-3.1618,-3.1618,-3.1618,-3.1618,-3.1618,-3.1618,-3.1618,-3.1618,-3.1618,-3.1618,-3.1618,-3.1618,-3.1618,-3.1618,-3.1618,-3.1618,-3.1618,0.0,0.0,0.0,0.0,0.0,0.0,0.0,0.0,0.0,0.0,0.0,0.0,0.0,0.0,0.0,0.0,0.0,0.0,-1.6337,-1.5976,-1.5534,-1.4926,-1.5034,-1.5309,-1.58,-1.6634,-1.7153,-1.7306,-1.7106,-1.6955,-1.6864,-1.7155,-1.714,-1.6919,-1.7527,-1.7945,-1.8208,-1.8196,-1.8518,-1.8934,-1.7807,-1.73,-1.7139,0.0,0.0,0.0,0.0,0.0,0.0,0.0,0.0,0.0,0.0,0.0,0.0,-1.607,-1.6297,-1.6529,-1.7027,0.0,0.0,0.0,0.0,0.0,0.0,0.0,0.0,0.0,0.0,0.0,0.0,0.0,0.0,0.0,0.0,0.0,0.0,0.0,-3.1671,-3.1593,-3.1614,-3.171,-3.1934,-3.1739,-3.1691,-3.1889,-3.2003,-3.199,-3.1859,-3.1848,-3.1848,-3.1848,-3.1695,-3.1695,-3.1848,-3.1695,-3.1455,-3.1116,-3.1455,-3.1618,-3.1618,-3.1618,-3.1618,-3.1618,-3.1618,-3.1618,-3.1618,-3.1618,-3.1618,-3.1618,-3.1618,-3.1618,-3.1618,-3.1618,-3.1618,-3.1618,0.0,0.0,0.0,0.0,0.0,0.0,0.0,0.0,0.0,0.0,0.0,0.0,0.0,0.0,0.0,0.0,0.0,0.0,0.0,0.0,-1.5512,-1.4857,-1.501,-1.5421,-1.6062,-1.6874,-1.7306,-1.7306,-1.7172,-1.7088,-1.6998,-1.7391,-1.7499,-1.7334,-1.8048,-1.8522,-1.8765,-1.8847,-1.9078,-1.9341,-1.8375,-1.7935,-1.7765,0.0,0.0,0.0,0.0,0.0,0.0,0.0,0.0,0.0,0.0,0.0,0.0,-1.695,-1.7349,-1.7697,-1.8328,0.0,0.0,0.0,0.0,0.0,0.0,0.0,0.0,0.0,0.0,0.0,0.0,0.0,0.0,0.0,0.0,-3.0621,-3.0766,-3.1159,-3.1402,-3.1368,-3.1378,-3.1418,-3.1484,-3.1265,-3.1066,-3.1022,-3.1061,-3.1138,-3.1323,-3.116,-3.1149,-3.1323,-3.116,-3.1061,-3.1061,-3.1061,-3.0908,-3.0624,-3.0919,-3.1061,-3.1072,-3.1455,-3.152,-3.1323,-3.1138,-3.1061,-3.1083,-3.1258,-3.1334,-3.1356,-3.1553,-3.1618,-3.1618,-3.1618,-3.1618,-3.1618,0.0,0.0,0.0,0.0,0.0,0.0,0.0,0.0,0.0,0.0,0.0,0.0,0.0,0.0,0.0,0.0,0.0,0.0,0.0,0.0,-1.5434,-1.4625,-1.5,-1.5662,-1.6541,-1.7038,-1.7306,-1.7306,-1.7306,-1.7306,-1.7289,-1.7618,-1.7798,-1.7862,-1.8645,-1.8998,-1.903,-1.9424,-1.9605,-1.9605,-1.9539,-1.9374,-1.9108,-1.8452,0.0,0.0,0.0,0.0,0.0,0.0,0.0,0.0,0.0,0.0,-1.7075,-1.7552,-1.8466,-1.9409,0.0,0.0,0.0,0.0,0.0,0.0,0.0,0.0,0.0,0.0,0.0,0.0,0.0,0.0,0.0,0.0,0.0,-3.0452,-3.0817,-3.0847,-3.0877,-3.1219,-3.1187,-3.1084,-3.0941,-3.0854,-3.0657,-3.0242,-3.0209,-3.0395,-3.081,-3.0439,-3.0406,-3.0821,-3.0428,-3.0209,-3.0209,-3.0209,-3.0188,-3.0144,-3.0188,-3.0188,-3.0177,-3.1083,-3.1247,-3.081,-3.0395,-3.0209,-3.0242,-3.0657,-3.0832,-3.0876,-3.1323,-3.152,-3.1564,-3.1564,-3.1586,-3.1618,0.0,0.0,0.0,0.0,0.0,0.0,0.0,0.0,0.0,0.0,0.0,0.0,0.0,0.0,0.0,0.0,0.0,0.0,0.0,0.0,-1.5869,-1.6033,-1.6154,-1.6492,-1.7092,-1.7251,-1.7306,-1.7306,-1.7306,-1.7211,-1.7099,-1.8042,-1.8354,-1.8144,0.0,-1.9684,-1.9684,-1.9628,-1.9605,-1.9539,-1.8988,-1.8543,-1.8273,-1.8216,-1.8172,0.0,0.0,0.0,0.0,0.0,0.0,0.0,-1.8172,-1.7901,-1.7979,-1.9018,-1.9308,0.0,0.0,0.0,0.0,0.0,0.0,0.0,0.0,0.0,0.0,0.0,0.0,0.0,0.0,0.0,0.0,0.0,-3.0176,-3.0016,-3.1265,-3.0957,-3.0798,-3.1432,-3.1189,-3.0967,-3.0908,-3.057,-3.0319,-3.022,-3.0209,-3.0253,-3.0351,-3.0264,-3.0264,-3.0351,-3.0264,-3.0209,-3.0209,-3.0209,-3.0024,-2.9642,-3.0024,-3.0013,-2.9663,-3.0253,-3.0461,-3.0351,-3.0253,-3.0209,-3.022,-3.0319,-3.0362,-3.0373,-3.0472,-3.0734,-3.105,-3.105,-3.1291,-3.1618,0.0,0.0,0.0,0.0,0.0,0.0,0.0,0.0,0.0,0.0,0.0,0.0,0.0,0.0,0.0,0.0,0.0,0.0,0.0,0.0,0.0,-1.6495,-1.6502,-1.6754,-1.7295,-1.7306,-1.7306,-1.7306,-1.7306,0.0,0.0,0.0,0.0,-1.8811,0.0,-1.9933,-1.9976,-1.9878,-1.9846,-1.9813,-1.9429,-1.9121,-1.8921,-1.8988,-1.8954,-1.8921,-1.9241,0.0,0.0,0.0,0.0,0.0,0.0,0.0,-1.9025,-1.984,-2.0104,-2.036,0.0,0.0,0.0,0.0,0.0,0.0,0.0,0.0,0.0,0.0,0.0,0.0,0.0,0.0,0.0,0.0,-2.9992,-2.9891,-3.0776,-3.0584,-3.0519,-3.0869,-3.0723,-3.0472,-3.0242,-3.0002,-2.9773,-2.9532,-2.9521,-2.962,-2.9849,-2.9642,-2.962,-2.986,-2.9642,-2.9521,-2.9521,-2.9521,-2.927,-2.8801,-2.9281,-2.9259,-2.8822,-2.9532,-2.986,-2.9849,-2.962,-2.9521,-2.9532,-2.9773,-2.986,-2.9893,-3.0122,-3.0351,-3.0592,-3.081,-3.0919,-3.0974,0.0,0.0,0.0,0.0,0.0,0.0,0.0,0.0,0.0,0.0,0.0,0.0,0.0,0.0,0.0,0.0,0.0,0.0,0.0,0.0,0.0,0.0,-1.6601,-1.6852,-1.7295,-1.7306,-1.7306,-1.7306,0.0,0.0,0.0,0.0,0.0,-1.9409,0.0,-2.0009,-2.0118,-2.0118,-2.0085,-2.0085,-2.0074,-2.0009,-1.9835,-1.99,-1.9802,-1.9638,-1.9605,-1.9605,-1.9605,-1.9417,0.0,0.0,0.0,0.0,-2.007,-2.0446,-2.085,-2.1254,0.0,0.0,0.0,0.0,0.0,0.0,0.0,0.0,0.0,0.0,0.0,0.0,0.0,0.0,0.0,0.0,-2.9737,-2.9732,-3.0139,-3.0144,-3.0122,-3.0199,-3.0144,-2.9925,-2.9521,-2.9449,-2.9241,-2.8836,-2.8803,-2.8946,-2.9216,-2.8855,-2.8779,-2.9095,-2.8713,-2.8552,-2.8552,-2.8552,-2.8309,-2.7871,-2.832,-2.8298,-2.7893,-2.8746,-2.9106,-2.9085,-2.8727,-2.8596,-2.8705,-2.9074,-2.9281,-2.9401,-2.9805,-3.0013,-3.0133,-3.0515,-3.0461,-3.0264,0.0,0.0,0.0,0.0,0.0,0.0,0.0,0.0,0.0,0.0,0.0,0.0,0.0,0.0,0.0,0.0,0.0,0.0,-1.8551,0.0,0.0,-1.654,-1.694,-1.724,-1.7306,-1.7306,-1.7306,-1.7306,0.0,0.0,0.0,0.0,0.0,-1.9409,0.0,0.0,-2.0118,-2.0118,-2.0042,-1.9933,-2.0042,-1.9911,-1.9671,-1.9835,-1.9868,-1.9835,-1.9671,-1.9704,-1.9835,-1.9638,-1.9815,0.0,0.0,0.0,-2.0917,-2.1177,-2.1319,0.0,0.0,0.0,0.0,0.0,0.0,0.0,0.0,0.0,0.0,0.0,0.0,0.0,0.0,0.0,0.0,0.0,-2.9452,-2.9248,-3.0089,-2.9849,-2.974,-3.0155,-2.9838,-2.9554,-2.9489,-2.9142,-2.8869,-2.8803,-2.8803,-2.8604,-2.8209,-2.8132,-2.7925,-2.761,-2.7534,-2.7501,-2.7501,-2.7501,-2.7468,-2.7413,-2.7479,-2.7468,-2.7413,-2.7545,-2.7599,-2.7599,-2.7534,-2.7741,-2.81,-2.8154,-2.8473,-2.8902,-2.8967,-2.9252,-2.9587,-2.9652,-2.9904,-3.022,0.0,0.0,0.0,0.0,0.0,0.0,0.0,0.0,0.0,0.0,0.0,0.0,0.0,0.0,0.0,-1.8548,-1.8261,-1.8196,-1.8435,-1.7953,-1.7445,-1.6967,-1.7158,-1.7306,-1.7306,-1.7306,-1.7306,0.0,0.0,0.0,0.0,-1.8971,-1.9322,0.0,0.0,0.0,0.0,0.0,-2.0085,-2.0009,-2.0074,-2.0009,-1.9878,-1.9976,-2.0205,-2.0444,-2.0377,-2.0551,-2.0812,-2.0608,-2.0679,-2.0815,-2.0631,0.0,0.0,0.0,-2.1734,0.0,0.0,0.0,0.0,0.0,0.0,0.0,0.0,0.0,0.0,0.0,0.0,0.0,0.0,0.0,0.0,0.0,-2.8855,-2.876,-2.8604,-2.8866,-2.9052,-2.8997,-2.9041,-2.8975,-2.8702,-2.8724,-2.8574,-2.7981,-2.82,-2.8145,-2.7609,-2.7632,-2.7489,-2.7315,-2.7315,-2.7315,-2.7315,-2.7315,-2.7315,-2.7304,-2.678,-2.666,-2.6878,-2.6649,-2.6813,-2.7315,-2.7315,-2.7588,-2.7991,-2.7991,-2.8331,-2.8803,-2.8803,-2.8935,-2.9153,-2.9379,-2.9445,-2.9434,0.0,0.0,0.0,0.0,0.0,0.0,0.0,0.0,0.0,0.0,0.0,0.0,0.0,0.0,0.0,0.0,-1.8637,-1.8227,-1.7911,-1.765,-1.7434,-1.7306,-1.7306,-1.7306,-1.7306,-1.7306,0.0,0.0,0.0,0.0,-1.8739,-1.9441,-1.9976,0.0,-2.0292,0.0,0.0,0.0,0.0,0.0,0.0,-2.0183,-2.0292,-2.0292,-2.0631,-2.108,-2.108,-2.131,-2.1592,-2.1417,-2.1458,-2.152,-2.1321,-2.1596,0.0,0.0,0.0,0.0,0.0,0.0,0.0,0.0,0.0,0.0,0.0,0.0,0.0,0.0,0.0,0.0,0.0,0.0,0.0,0.0,0.0,-2.8134,-2.7413,-2.7938,-2.8254,-2.7849,-2.8167,-2.8244,-2.7849,-2.8178,-2.8091,-2.737,-2.7609,-2.7609,-2.7162,-2.714,-2.7086,-2.6955,-2.6955,-2.6955,-2.6955,-2.6955,-2.6955,-2.6944,-2.6446,-2.6292,-2.6431,-2.6312,-2.649,-2.6966,-2.7086,-2.7304,-2.7653,-2.7893,-2.8254,-2.8628,-2.8749,-2.8803,-2.8847,-2.9208,-2.911,-2.8858,0.0,0.0,0.0,0.0,0.0,0.0,0.0,0.0,0.0,0.0,0.0,0.0,-1.9445,-2.0242,-2.0435,-1.9629,-1.9321,-1.8638,-1.7418,-1.7804,-1.7843,-1.7334,-1.7306,0.0,-1.7306,-1.7306,0.0,0.0,0.0,0.0,-1.872,-2.0161,-2.0829,-2.0861,-2.0861,-2.0861,-2.0861,0.0,0.0,0.0,0.0,0.0,0.0,0.0,-2.1157,0.0,0.0,-2.157,-2.1592,-2.1592,-2.1898,-2.2197,-2.202,-2.2381,-2.2883,0.0,0.0,0.0,0.0,0.0,0.0,0.0,0.0,0.0,0.0,0.0,0.0,0.0,0.0,0.0,0.0,0.0,0.0,0.0,0.0,-2.737,-2.7315,-2.7359,-2.7381,-2.7348,-2.737,-2.7381,-2.7348,-2.737,-2.737,-2.7315,-2.7337,-2.7151,-2.6649,-2.6617,-2.6452,-2.5994,-2.5972,-2.5972,-2.5972,-2.5972,-2.5972,-2.5972,-2.6768,-2.6715,-2.597,-2.6757,-2.6685,-2.6005,-2.642,-2.6639,-2.6726,-2.7631,-2.8012,-2.8078,-2.8617,-2.8803,-2.8803,-2.8825,-2.8825,-2.8803,0.0,0.0,0.0,0.0,0.0,0.0,0.0,0.0,0.0,0.0,0.0,0.0,0.0,-2.0351,-2.0357,-2.0424,-2.0003,-1.9371,-1.8575,-1.8267,-1.787,-1.7334,-1.7573,-1.7595,-1.7317,-1.7612,0.0,0.0,0.0,-1.8687,-1.8709,-1.9867,-2.0402,-2.0391,-2.1046,-2.1365,-2.1343,-2.1025,0.0,0.0,0.0,0.0,0.0,0.0,0.0,0.0,0.0,0.0,0.0,-2.2499,-2.2608,-2.2761,-2.2665,-2.2822,-2.3001,-2.2927,-2.2889,0.0,0.0,0.0,0.0,0.0,0.0,0.0,0.0,0.0,0.0,0.0,0.0,0.0,0.0,0.0,0.0,0.0,0.0,-2.7097,-2.6496,-2.6933,-2.7206,-2.6911,-2.714,-2.7195,-2.6857,-2.714,-2.7064,-2.6452,-2.6693,-2.6671,-2.619,-2.6157,-2.6081,-2.5906,-2.5895,-2.5895,-2.5895,-2.6456,-2.6745,-2.6745,-2.7568,-2.7799,-2.7516,-2.7839,-2.7528,-2.6768,-2.7234,-2.7119,-2.6617,-2.6944,-2.7271,-2.7621,-2.8102,-2.8298,-2.8331,-2.8683,-2.8803,-2.8803,0.0,0.0,0.0,0.0,0.0,0.0,0.0,0.0,0.0,0.0,0.0,0.0,0.0,0.0,-2.0422,-2.0662,-2.0169,-1.9669,-1.9239,-1.8697,-1.8251,-1.7893,-1.8282,-1.8367,-1.8062,-1.8152,0.0,0.0,0.0,0.0,0.0,-1.9932,-2.0358,-2.0391,-2.1232,-2.1592,0.0,0.0,0.0,-2.1789,0.0,0.0,-2.1843,0.0,0.0,0.0,0.0,0.0,0.0,0.0,-2.3241,-2.322,-2.3056,-2.3001,-2.3001,-2.3001,-2.3001,0.0,0.0,0.0,0.0,0.0,0.0,0.0,0.0,0.0,0.0,0.0,0.0,0.0,0.0,0.0,0.0,0.0,0.0,-2.6616,-2.5994,-2.6441,-2.6725,-2.642,-2.6649,-2.6715,-2.6409,-2.6907,-2.6904,-2.5992,-2.6444,-2.653,-2.5917,-2.6188,-2.6343,-2.6343,-2.6063,-2.6021,-2.6343,-2.6899,-2.7336,-2.7609,-2.8426,-2.8664,-2.8426,-2.8703,-2.8398,-2.7632,-2.7929,-2.744,-2.6377,-2.6868,-2.714,-2.7381,-2.8025,-2.8287,-2.832,-2.8683,-2.8803,-2.8803,0.0,0.0,0.0,0.0,0.0,0.0,0.0,0.0,0.0,-2.0351,0.0,0.0,0.0,0.0,0.0,-2.0334,-1.9926,-1.9576,-1.9314,-1.9168,-1.9062,-1.9035,-1.9343,-1.9524,-1.9502,-1.8999,0.0,0.0,0.0,0.0,0.0,0.0,-2.0872,-2.0894,-2.1386,-2.157,-2.1603,0.0,-2.2302,-2.228,0.0,-2.192,-2.2375,0.0,0.0,0.0,-2.4148,-2.417,0.0,-2.3716,0.0,0.0,0.0,0.0,-2.3001,-2.3001,0.0,0.0,0.0,0.0,0.0,0.0,0.0,0.0,0.0,0.0,0.0,0.0,0.0,0.0,0.0,0.0,0.0,0.0,0.0,0.0,-2.5895,-2.5895,-2.5895,-2.5895,-2.5895,-2.5895,-2.5895,-2.6704,-2.6857,-2.6021,-2.6745,-2.6857,-2.6021,-2.6787,-2.7226,-2.7185,-2.6415,-2.6385,-2.7226,-2.7255,-2.7689,-2.8466,-2.9303,-2.9303,-2.8505,-2.9342,-2.9264,-2.8426,-2.8426,-2.7516,-2.6089,-2.7403,-2.7708,-2.7392,-2.8366,-2.8749,-2.876,-2.8771,-2.8771,-2.876,0.0,0.0,0.0,0.0,0.0,0.0,0.0,0.0,-2.0342,0.0,0.0,0.0,-2.1847,-2.211,-2.2285,-2.2219,-2.2036,-2.1718,-2.1263,-2.1113,-2.0784,-2.0241,-2.017,-1.9987,-1.9649,-1.9363,0.0,0.0,0.0,0.0,0.0,0.0,0.0,0.0,-2.085,-2.1091,-2.1124,-2.1581,0.0,0.0,-2.2531,-2.2903,0.0,0.0,0.0,0.0,0.0,-2.477,-2.5052,0.0,-2.4687,-2.495,0.0,0.0,0.0,0.0,0.0,0.0,-2.3001,0.0,0.0,0.0,0.0,0.0,0.0,0.0,0.0,0.0,0.0,0.0,0.0,0.0,0.0,0.0,0.0,0.0,-2.5895,-2.5895,-2.5895,-2.5895,-2.5895,-2.5895,-2.5895,-2.6704,-2.7103,0.0,-2.7609,-2.7959,-2.7718,-2.7959,-2.7799,-2.7226,-2.7528,-2.7827,-2.8079,-2.8676,-2.9108,-2.9342,-3.0228,-3.0495,-3.0305,-3.0545,-3.0177,-2.9342,-2.9342,-2.8703,-2.7672,-2.7508,-2.7151,-2.6802,-2.7119,-2.7424,-2.7752,-2.8112,-2.8014,-2.7818,0.0,0.0,0.0,0.0,0.0,0.0,0.0,0.0,0.0,0.0,0.0,0.0,-2.2464,-2.2775,-2.2964,-2.3016,-2.2924,-2.2764,-2.2443,-2.2281,-2.2008,-2.1499,-2.1543,-2.1398,-2.1069,-2.0445,0.0,0.0,0.0,0.0,0.0,0.0,0.0,0.0,0.0,0.0,0.0,0.0,0.0,0.0,-2.2997,0.0,0.0,-2.5027,-2.5172,0.0,0.0,0.0,-2.5402,-2.4959,-2.4986,0.0,0.0,0.0,0.0,0.0,0.0,0.0,0.0,0.0,0.0,0.0,0.0,0.0,-2.3362,-2.3809,-2.4246,0.0,0.0,0.0,0.0,0.0,0.0,0.0,0.0,0.0,-2.5937,-2.5895,-2.6021,-2.6385,-2.6104,-2.6021,-2.6426,-2.6899,-2.7185,-2.7185,-2.7959,-2.8545,-2.89,-2.8585,-2.8347,-2.8251,-2.8359,-2.8585,-2.8951,-2.9471,-2.9858,-3.0266,-3.0748,-3.0986,-3.0986,-3.0986,-3.0697,-3.0216,-3.0216,-2.9742,-2.89,-2.8438,-2.8005,-2.7694,-2.7738,-2.7887,-2.8121,-2.8017,-2.7816,-2.7665,0.0,0.0,0.0,0.0,0.0,0.0,0.0,0.0,0.0,0.0,-2.2392,-2.2674,-2.3164,-2.3311,-2.3352,-2.3231,-2.3205,-2.3205,-2.3205,-2.3071,-2.2951,-2.2816,-2.3084,-2.3177,-2.3027,-2.1865,0.0,0.0,0.0,0.0,0.0,0.0,0.0,0.0,0.0,0.0,0.0,0.0,0.0,-2.2611,-2.353,-2.4399,0.0,0.0,-2.6355,-2.6101,-2.7013,-2.6644,-2.5676,-2.5676,-2.5325,0.0,0.0,0.0,0.0,0.0,-2.3542,0.0,0.0,0.0,0.0,0.0,0.0,0.0,-2.3189,-2.353,-2.3837,-2.3837,0.0,0.0,0.0,0.0,0.0,0.0,0.0,0.0,-2.629,-2.6093,-2.6385,-2.7214,-2.658,-2.6385,-2.7255,-2.7418,-2.7458,-2.7458,-2.8239,-2.8978,-2.9665,-2.9057,-2.8978,-2.9665,-2.903,-2.9057,-2.9819,-2.9819,-3.0216,-3.0986,-3.0986,-3.0986,-3.0986,-3.0986,-3.0986,-3.0986,-3.0986,-3.0545,-2.9819,-2.9819,-2.9599,-2.9188,-2.9195,-2.9249,-2.9175,-2.84,-2.8142,-2.8087,-2.0342,0.0,0.0,0.0,0.0,0.0,0.0,0.0,0.0,-2.2959,-2.3445,-2.396,-2.4557,-2.4554,-2.4526,-2.4596,-2.4513,-2.4457,-2.4457,-2.4428,-2.4357,-2.4216,-2.3755,-2.3446,-2.3255,-2.2457,0.0,0.0,0.0,0.0,0.0,0.0,0.0,0.0,0.0,0.0,0.0,0.0,0.0,-2.3977,-2.4918,0.0,-2.5739,-2.7404,-2.7973,-2.7913,-2.8076,-2.8445,-2.8831,-2.8831,-2.8038,-2.6948,0.0,0.0,0.0,0.0,0.0,0.0,0.0,0.0,0.0,0.0,0.0,0.0,-2.4401,-2.4581,-2.4661,0.0,0.0,0.0,0.0,0.0,0.0,0.0,0.0,0.0,0.0,-2.7366,-2.7255,-2.8068,-2.7447,-2.7255,-2.8079,-2.8794,-2.9225,-2.9225,-3.0024,-3.0266,-2.9742,-3.0216,-3.0266,-2.9704,-3.0228,-3.0583,-3.0748,-3.0748,-3.0823,-3.0986,-3.0986,-3.0986,-3.0986,-3.0986,-3.0986,-3.0986,-3.0986,-3.0898,-3.0748,-3.0748,-3.0133,-2.915,-2.8736,-2.8833,-2.9196,-2.9029,-2.8975,-2.904,-2.0952,0.0,0.0,0.0,0.0,0.0,0.0,0.0,0.0,-2.3608,-2.4164,-2.4666,-2.4978,-2.5219,-2.5395,-2.5439,-2.5395,-2.5309,-2.5251,-2.5025,-2.4778,-2.445,-2.4218,-2.3972,-2.3708,-2.3045,-2.2683,0.0,0.0,0.0,0.0,0.0,0.0,0.0,0.0,0.0,0.0,0.0,-2.2819,-2.3759,-2.5142,0.0,-2.7484,-2.8594,-2.9057,-2.9057,-2.9057,-2.9057,-2.9057,-2.9057,-2.8337,0.0,0.0,-2.7085,-2.6635,0.0,-2.5904,-2.5631,0.0,0.0,0.0,-2.4486,0.0,0.0,0.0,-2.5013,-2.5082,-2.5082,0.0,0.0,0.0,0.0,0.0,0.0,0.0,0.0,0.0,-2.8388,-2.8119,-2.8939,-2.8319,-2.8119,-2.8991,-2.9057,-2.9225,-2.9665,-3.0508,-3.0823,-3.0381,-3.0748,-3.0785,-3.0343,-3.0785,-3.0986,-3.0986,-3.0986,-3.0986,-3.0986,-3.0986,-3.0986,-3.0986,-3.0986,-3.0986,-3.0986,-3.0986,-3.0986,-3.0986,-3.0986,-3.0637,-3.0065,-2.9594,-2.9567,-2.9731,-2.9338,-2.9215,-2.921,-2.1399,0.0,0.0,0.0,0.0,0.0,0.0,0.0,0.0,-2.4204,-2.4815,-2.5168,-2.5168,0.0,0.0,0.0,-2.6131,-2.6088,-2.6077,-2.5517,-2.4997,-2.4625,-2.466,-2.4534,-2.42,-2.3649,-2.3369,0.0,0.0,0.0,0.0,0.0,0.0,0.0,0.0,0.0,0.0,0.0,0.0,-2.3892,0.0,-2.7002,-2.8712,-2.9414,-2.9781,-2.9947,-2.9947,-2.951,-2.89,-2.89,-2.8478,-2.8011,-2.8518,-2.8008,0.0,0.0,0.0,0.0,0.0,0.0,0.0,0.0,0.0,-2.5466,0.0,0.0,0.0,0.0,0.0,0.0,0.0,0.0,0.0,0.0,0.0,0.0,0.0,0.0,0.0,-2.9542,-2.8827,-2.8684,-2.9542,-2.8994,-2.8915,-2.9706,-3.0416,-3.0869,-3.0973,-3.0986,-3.0986,-3.0986,-3.0986,-3.0986,-3.0986,-3.0986,-3.0986,-3.0986,-3.0986,-3.0986,-3.0986,-3.0986,-3.0986,-3.0986,-3.0986,-3.0986,-3.0986,-3.0986,-3.0986,-3.095,-3.0648,-3.05,-3.0421,-2.9785,-2.9618,-2.9602,-2.1399,-2.1399,0.0,0.0,0.0,0.0,0.0,0.0,0.0,-2.4896,-2.5412,0.0,0.0,0.0,0.0,0.0,0.0,0.0,-2.7443,0.0,-2.5763,-2.572,-2.5233,-2.4835,-2.4563,-2.4463,-2.429,-2.3995,0.0,0.0,0.0,0.0,0.0,0.0,-2.3977,0.0,0.0,0.0,-2.4922,0.0,-2.6752,-2.6986,0.0,-2.9073,-3.0177,-3.0861,-3.0861,-3.0785,-3.0697,0.0,-3.0621,-3.047,0.0,-2.9973,-3.0202,-2.8736,0.0,0.0,0.0,0.0,0.0,0.0,-2.7654,0.0,0.0,0.0,-2.6934,-2.6377,0.0,0.0,0.0,0.0,0.0,0.0,0.0,0.0,-2.9301,0.0,-2.9243,-2.9314,-2.8589,-2.8407,-2.9278,-2.9243,-2.945,-3.0006,-3.0155,-3.0451,-3.096,-3.0986,-3.0986,-3.0986,-3.0986,-3.0986,-3.0986,-3.0986,-3.0986,-3.0986,-3.0986,-3.0986,-3.0986,-3.0986,-3.0986,-3.0986,-3.0986,-3.0986,-3.0986,-3.0986,-3.0986,-3.0999,-3.0939,-3.0927,-3.0927,-3.0838,-3.1086,-3.1384,-2.1399,-2.1399,0.0,0.0,0.0,0.0,0.0,0.0,0.0,0.0,0.0,0.0,0.0,0.0,0.0,0.0,0.0,-2.7416,0.0,0.0,0.0,0.0,0.0,0.0,-2.5485,-2.5365,-2.5227,-2.5075,-2.5354,0.0,0.0,0.0,0.0,0.0,-2.5489,0.0,-2.5632,0.0,0.0,0.0,0.0,0.0,0.0,-2.9884,-3.0672,-3.0986,-3.0986,-3.0986,-3.0986,0.0,-3.0659,0.0,0.0,0.0,0.0,0.0,0.0,0.0,0.0,0.0,0.0,0.0,0.0,0.0,-2.845,0.0,-2.8396,0.0,0.0,0.0,0.0,0.0,0.0,0.0,-2.82,0.0,0.0,0.0,-2.8917,0.0,0.0,0.0,-2.9274,-2.931,-2.9379,-2.9627,-2.9905,-3.0205,-3.0477,-3.0803,-3.0986,-3.0986,-3.0986,-3.0986,-3.0986,-3.0986,-3.0986,-3.0986,-3.0986,-3.0986,-3.0986,-3.0986,-3.0986,-3.0986,-3.0986,-3.0986,-3.0986,-3.0986,-3.0986,-3.0986,-3.0986,-3.0986,-3.0986,-3.0986,-3.1143,-3.1263,-2.1887,0.0,0.0,0.0,0.0,0.0,0.0,0.0,0.0,0.0,0.0,0.0,-2.6389,-2.7461,0.0,0.0,-2.8288,-2.8229,0.0,0.0,-2.6931,0.0,0.0,0.0,0.0,0.0,-2.5887,-2.5793,0.0,0.0,0.0,0.0,0.0,0.0,0.0,-2.6936,-2.7266,0.0,0.0,-2.7567,-2.7908,-2.8648,-2.9654,-3.0629,-3.0986,-3.0986,-3.0986,-3.0986,-3.0986,-3.0986,-3.0583,-3.0177,-3.0785,-3.0583,0.0,0.0,0.0,0.0,-3.0063,0.0,0.0,0.0,0.0,0.0,0.0,0.0,0.0,0.0,0.0,0.0,0.0,0.0,0.0,0.0,0.0,-2.8137,0.0,0.0,0.0,0.0,0.0,0.0,0.0,-2.8804,-2.8869,-2.9048,-2.9418,-2.9761,-3.0074,-3.0529,-3.083,-3.0973,-3.0986,-3.0986,-3.0986,-3.0986,-3.0986,-3.0986,-3.0986,-3.0986,-3.0986,-3.0986,-3.0986,-3.0986,-3.0986,-3.0986,-3.0986,-3.0986,-3.0986,-3.0986,-3.0986,-3.0986,-3.0986,-3.0986,-3.0986,-3.0986,-2.3147,-2.2673,0.0,0.0,0.0,0.0,0.0,0.0,0.0,0.0,0.0,0.0,0.0,0.0,0.0,0.0,0.0,-2.9672,-3.0283,0.0,-2.7678,0.0,0.0,-2.6627,0.0,0.0,0.0,0.0,0.0,0.0,0.0,0.0,0.0,0.0,0.0,-2.7383,-2.7301,-2.7266,-2.7931,-2.8925,-2.8938,-2.9742,-3.096,0.0,-3.0986,-3.0986,-3.0986,0.0,-3.0986,-3.0986,-3.0986,-3.0949,-3.0986,-3.0986,0.0,0.0,0.0,0.0,0.0,0.0,0.0,-3.0898,0.0,0.0,0.0,0.0,-2.9918,0.0,0.0,0.0,0.0,0.0,-2.8394,-2.842,-2.7915,0.0,0.0,0.0,0.0,0.0,0.0,0.0,0.0,-2.7555,-2.7811,-2.836,-2.8459,-2.8935,-3.0035,-3.0113,-3.0388,-3.096,-3.0986,-3.0986,-3.0986,-3.0986,-3.0986,-3.0986,-3.0986,-3.0986,-3.0986,-3.0986,-3.0986,-3.0986,-3.0986,-3.0986,-3.0986,-3.0986,-3.0986,-3.0986,-3.0986,-3.0986,-3.0986,-3.0986,-3.0986,-3.0986,0.0,0.0,0.0,0.0,0.0,0.0,0.0,-2.5765,0.0,0.0,0.0,0.0,0.0,-2.9604,-3.0174,0.0,0.0,-3.0011,-2.9808,-2.9211,0.0,0.0,0.0,-2.7741,0.0,0.0,0.0,0.0,0.0,0.0,0.0,0.0,0.0,0.0,0.0,-2.7923,0.0,0.0,0.0,0.0,0.0,-3.0616,-3.0986,0.0,-3.0986,-3.0986,-3.0986,-3.0986,-3.0986,-3.0986,-3.0986,-3.0986,-3.0986,-3.0986,-3.0986,-3.0986,-3.0986,-3.0986,-3.0986,-3.0986,-3.0986,-3.0986,-3.0986,0.0,0.0,0.0,0.0,0.0,0.0,0.0,0.0,0.0,-2.842,-2.842,-2.7902,-2.749,0.0,0.0,0.0,0.0,0.0,0.0,0.0,0.0,-2.7568,-2.7798,-2.8164,-2.8726,-2.9523,-2.9892,-3.0361,-3.096,-3.0986,-3.0986,-3.0986,-3.0986,-3.0986,-3.0986,-3.0986,-3.0986,-3.0986,-3.0986,-3.0986,-3.0986,-3.0986,-3.0986,-3.0986,-3.0986,-3.0986,-3.0986,-3.0986,-3.0986,-3.0986,-3.0986,-3.0986,-3.1039,-2.416,0.0,0.0,0.0,0.0,0.0,0.0,0.0,0.0,0.0,-2.8912,0.0,-2.9794,0.0,-3.0948,0.0,-3.073,-3.0459,-2.9849,-2.9808,0.0,-2.8627,-2.8679,0.0,0.0,0.0,0.0,0.0,0.0,-2.749,0.0,0.0,0.0,0.0,0.0,0.0,0.0,0.0,-2.9823,0.0,0.0,-3.0986,0.0,0.0,-3.0986,-3.0986,-3.0986,-3.0986,-3.0986,-3.0986,-3.0986,-3.0986,-3.0986,-3.0986,-3.0986,-3.0986,-3.0986,-3.0986,-3.0986,-3.0986,-3.1024,-3.1099,-3.1099,-3.1099,-3.1099,0.0,-3.1099,0.0,0.0,0.0,0.0,0.0,-2.8669,-2.8528,-2.7936,-2.749,0.0,-2.749,0.0,0.0,0.0,0.0,0.0,0.0,-2.749,-2.749,-2.7863,-2.8438,-2.9271,-2.9627,-3.0189,-3.096,-3.0986,-3.1024,-3.1099,-3.1061,-3.1061,-3.1099,-3.1024,-3.0986,-3.0986,-3.0986,-3.0986,-3.0986,-3.0986,-3.0986,-3.0986,-3.0986,-3.0986,-3.0986,-3.0986,-3.0986,-3.0986,-3.0986,-3.0986,-3.1065,0.0,0.0,0.0,0.0,-2.4665,0.0,0.0,0.0,-2.8008,0.0,-3.0235,-3.1118,-3.0554,-3.1504,-3.1951,-3.1382,-3.1327,-3.1083,-3.0486,-3.0446,0.0,0.0,-2.923,-2.9131,-2.8373,0.0,0.0,0.0,0.0,0.0,0.0,0.0,0.0,0.0,-2.749,0.0,-2.8446,-2.9022,-2.9588,-3.014,-3.0764,-3.0986,-3.0986,-3.0986,-3.0986,-3.0986,-3.0986,-3.0986,-3.0986,-3.0986,-3.0986,-3.0986,-3.0986,-3.0986,-3.0986,-3.0986,-3.1024,-3.1024,-3.1024,-3.1024,-3.1061,-3.1272,-3.131,-3.131,-3.131,-3.131,-3.131,0.0,0.0,0.0,0.0,0.0,-2.9197,-2.8792,-2.805,-2.749,0.0,0.0,0.0,0.0,0.0,0.0,0.0,-2.749,-2.749,-2.749,-2.749,0.0,0.0,-2.931,-2.9846,-3.0985,-3.1024,-3.1099,-3.131,-3.1136,-3.1136,-3.131,-3.1099,-3.1024,-3.1024,-3.0986,-3.0986,-3.0986,-3.0986,-3.0986,-3.0986,-3.0986,-3.0986,-3.0986,-3.0986,-3.0986,-3.0986,-3.0986,-3.0999,-3.1104,-2.5961,-2.5784,-2.5765,0.0,-2.5873,-2.6022,0.0,0.0,0.0,0.0,-3.1171,-3.1986,-3.1752,-3.2028,-3.2151,-3.2001,-3.1951,0.0,0.0,0.0,0.0,-2.9984,-2.9678,-2.9401,-2.9205,-2.8562,0.0,-2.8,0.0,0.0,-2.749,0.0,0.0,0.0,0.0,0.0,-2.842,-2.8577,-2.9196,-3.014,-3.0764,-3.0986,-3.0986,-3.0986,-3.0986,-3.0986,-3.0986,-3.0986,-3.0986,-3.0986,-3.0986,-3.0986,-3.0986,-3.0986,-3.0986,-3.0986,-3.1099,-3.1235,-3.1235,-3.1323,-3.1447,-3.1522,-3.1522,-3.1522,-3.1522,-3.1522,-3.1522,-3.1522,-3.1485,-3.1299,-3.0796,-3.0153,-2.9499,0.0,0.0,0.0,0.0,0.0,0.0,-2.749,0.0,0.0,0.0,-2.7656,-2.7656,-2.749,-2.7656,0.0,-2.9244,-2.931,-2.9869,-3.1158,-3.1099,-3.1174,-3.1522,-3.1323,-3.1323,-3.1522,-3.1323,-3.1235,-3.1235,-3.1061,-3.0986,-3.0986,-3.0986,-3.0986,-3.0986,-3.0986,-3.0986,-3.0986,-3.0986,-3.0986,-3.0986,-3.0986,-3.1261,-3.1549,-2.7532,0.0,0.0,-2.7138,0.0,0.0,-2.8464,-2.8945,0.0,-3.0737,-3.1949,0.0,-3.1883,-3.2549,-3.2922,-3.266,-3.2372,0.0,-3.1743,0.0,0.0,-3.0446,-3.0066,-2.9754,-2.9515,-2.8708,0.0,-2.8197,0.0,0.0,-2.7623,0.0,0.0,0.0,0.0,-2.7673,0.0,-2.8556,-2.9301,-3.014,-3.0764,-3.0986,0.0,-3.1099,-3.1123,-3.1123,-3.1211,-3.1149,-3.0986,-3.0986,-3.0986,-3.1024,-3.1099,-3.1123,-3.1136,-3.1261,-3.1323,-3.1434,-3.1434,-3.1522,-3.1609,-3.172,-3.172,-3.172,-3.172,-3.172,-3.172,-3.172,-3.1646,-3.1459,-3.1025,-3.053,-2.9931,0.0,0.0,0.0,0.0,0.0,0.0,0.0,-2.7723,0.0,-2.7523,-2.7769,-2.7789,-2.7523,-2.7689,0.0,0.0,-2.9285,-2.993,-3.101,-3.1103,-3.1323,-3.172,-3.1434,-3.1434,-3.172,-3.1508,-3.1434,-3.1434,-3.1211,-3.1123,-3.1123,-3.1061,-3.1061,-3.1123,-3.1123,-3.1174,-3.1261,-3.1261,-3.1211,-3.1123,-3.1211,-3.1346,-3.1457,0.0,0.0,0.0,0.0,0.0,0.0,0.0,-2.9768,0.0,-3.1533,0.0,-3.3031,-3.1824,-3.3056,-3.3768,-3.3234,0.0,-3.2212,-3.2263,-3.2307,-3.1815,-3.069,-3.0623,-3.0331,-2.9638,-2.8862,0.0,0.0,0.0,0.0,0.0,0.0,0.0,0.0,0.0,0.0,0.0,-2.8813,-2.9598,-3.0121,-3.0762,-3.1061,-3.1061,-3.1272,-3.131,-3.131,-3.1522,-3.1373,-3.1061,-3.1061,-3.1061,-3.1099,-3.1272,-3.1347,-3.1347,-3.1559,-3.1609,-3.1646,-3.1646,-3.1646,-3.172,-3.189,-3.1927,-3.1927,-3.1927,-3.1927,-3.1927,-3.1927,-3.178,-3.1606,-3.1338,-3.0958,-3.0356,0.0,0.0,0.0,0.0,0.0,0.0,0.0,0.0,0.0,-2.759,-2.7868,0.0,0.0,0.0,0.0,0.0,0.0,-2.9949,-3.0712,-3.1116,-3.1545,-3.1927,-3.1582,-3.1582,-3.1927,-3.1743,-3.1646,-3.1646,-3.1434,-3.1347,-3.131,-3.1136,-3.1174,-3.1347,-3.1347,-3.1434,-3.1572,-3.1535,-3.1397,-3.1272,-3.1447,-3.1299,-3.1052,0.0,0.0,0.0,0.0,0.0,-3.3068,-3.3576,-3.356,-3.338,-3.3115,-3.4211,-3.4718,-3.3863,-3.3534,-3.3304,-3.3192,-3.2574,0.0,0.0,0.0,0.0,-3.1906,-3.1937,-3.1418,-3.0256,-2.9631,-2.8963,0.0,0.0,0.0,0.0,0.0,0.0,0.0,0.0,0.0,-2.806,-2.893,0.0,-2.9923,-3.0887,-3.1235,-3.1272,-3.1485,-3.1434,-3.131,-3.1522,-3.1572,-3.1485,-3.1485,-3.1485,-3.1485,-3.1535,-3.1572,-3.1559,-3.1609,-3.172,-3.1853,-3.1853,-3.1963,-3.2109,-3.2146,-3.2146,-3.2146,-3.2146,-3.2146,-3.2146,-3.2146,-3.2109,-3.192,-3.1409,-3.0858,-3.0383,-3.018,0.0,0.0,0.0,0.0,0.0,0.0,0.0,-2.8151,0.0,0.0,0.0,0.0,0.0,0.0,0.0,0.0,-2.9998,-3.0918,-3.1339,-3.1743,-3.2146,-3.1927,-3.1913,-3.2146,-3.1927,-3.1853,-3.1853,-3.1633,-3.1572,-3.1572,-3.1522,-3.1522,-3.1572,-3.1572,-3.1485,-3.136,-3.1174,-3.1061,-3.1061,-3.1099,-3.1061,-3.1037,0.0,0.0,0.0,0.0,0.0,0.0,0.0,-3.53,-3.5179,-3.4108,-3.4522,-3.4651,-3.3918,-3.4143,-3.4346,-3.4346,-3.3713,-3.3451,-3.3817,-3.3802,-3.3471,-3.2761,-3.2185,-3.1436,-3.0418,-2.9496,-2.8839,-2.8444,0.0,0.0,0.0,0.0,0.0,0.0,0.0,-2.8,0.0,0.0,-2.9649,-2.9896,-3.1007,-3.1447,-3.1485,-3.1669,-3.1706,-3.1619,-3.1853,-3.189,-3.189,-3.1683,-3.1609,-3.1609,-3.172,-3.1743,-3.178,-3.189,-3.1963,-3.2073,-3.2073,-3.2146,-3.2218,-3.2218,-3.2218,-3.2218,-3.2218,-3.2218,-3.2218,-3.2218,-3.2218,-3.2123,-3.1802,-3.126,-3.0866,-3.0866,-3.0282,0.0,0.0,0.0,0.0,0.0,0.0,0.0,0.0,0.0,0.0,0.0,0.0,0.0,0.0,-2.9365,-3.0097,-3.0686,-3.1383,-3.189,-3.2218,-3.2,-3.2,-3.2218,-3.2109,-3.2073,-3.2036,-3.1853,-3.1743,-3.1743,-3.1646,-3.1646,-3.1743,-3.1853,-3.1853,-3.1767,-3.1656,-3.1545,-3.1471,-3.1582,-3.1545,-3.1434,0.0,-3.3502,0.0,0.0,-3.4201,-3.4664,-3.5569,-3.627,-3.629,-3.5089,-3.4935,-3.47,-3.4127,-3.4845,-3.54,-3.54,-3.4728,-3.4547,-3.5124,-3.478,-3.4197,-3.3457,-3.272,-3.1862,-3.0855,-2.989,-2.927,0.0,0.0,-2.872,-2.8565,0.0,0.0,0.0,0.0,0.0,-2.829,-2.9365,-2.9859,-3.0035,-3.1202,-3.1646,-3.1683,-3.189,-3.1927,-3.1927,-3.2146,-3.2218,-3.2169,-3.1986,-3.1853,-3.1743,-3.189,-3.1963,-3.2,-3.2146,-3.2218,-3.2218,-3.2218,-3.2218,-3.2218,-3.2218,-3.2218,-3.2218,-3.2218,-3.2218,-3.2218,-3.2218,-3.2218,-3.2241,-3.2372,-3.1896,-3.1477,-3.1477,-3.0975,0.0,0.0,0.0,0.0,0.0,0.0,0.0,-2.8224,0.0,0.0,0.0,0.0,0.0,-2.8287,-2.943,-3.0206,-3.0405,-3.1415,-3.2036,-3.2218,-3.2036,-3.2036,-3.2218,-3.2218,-3.2218,-3.2182,-3.2036,-3.1963,-3.1963,-3.178,-3.1817,-3.1963,-3.2109,-3.2146,-3.2146,-3.2109,-3.1963,-3.1853,-3.2,-3.1963,-3.178,0.0,0.0,0.0,0.0,0.0,-3.6951,-3.6491,-3.6983,-3.7122,-3.6414,-3.6291,-3.6291,-3.6228,-3.5738,-3.54,-3.54,-3.4728,-3.4346,-3.4413,-3.496,-3.496,-3.4245,-3.4743,-3.4171,-3.2248,-3.2104,-3.1483,0.0,0.0,-2.9425,-2.938,-2.8661,0.0,-2.8268,-2.8164,-2.8276,-2.8603,-2.9468,-2.9998,-3.0444,-3.1456,-3.1853,-3.189,-3.2109,-3.2073,-3.1927,-3.2146,-3.2218,-3.2277,-3.2854,-3.2668,-3.2146,-3.2182,-3.2182,-3.2182,-3.2182,-3.2218,-3.2218,-3.2218,-3.2218,-3.2218,-3.2218,-3.2218,-3.2218,-3.2218,-3.2218,-3.2218,-3.2218,-3.2218,-3.2372,-3.2995,-3.2555,-3.2137,-3.2137,-3.1599,-3.1002,0.0,0.0,-2.9889,0.0,0.0,0.0,0.0,-2.8554,0.0,0.0,-2.8276,0.0,0.0,-2.943,-3.0206,-3.0405,-3.1558,-3.2182,-3.2218,-3.2182,-3.2182,-3.2218,-3.2218,-3.2218,-3.2218,-3.2182,-3.2182,-3.2182,-3.2146,-3.2146,-3.2146,-3.2,-3.1927,-3.189,-3.172,-3.1646,-3.1646,-3.1646,-3.1646,-3.1609,0.0,0.0,0.0,0.0,0.0,0.0,-3.8231,-3.7846,-3.74,-3.7138,-3.6738,-3.6492,-3.6492,-3.6258,-3.6053,-3.6053,-3.58,-3.564,-3.564,-3.5911,-3.5737,-3.4978,-3.4882,-3.4082,-3.244,-3.2048,-3.1409,0.0,0.0,0.0,-3.0017,-2.9711,-2.9581,-2.9625,-2.9563,-2.9608,-2.9786,-3.0422,-3.0779,-3.1005,-3.1752,-3.2073,-3.2132,-3.2632,-3.2761,-3.2761,-3.3276,-3.3451,-3.3506,-3.3768,-3.3402,-3.2797,-3.2797,-3.2797,-3.2725,-3.2314,-3.2218,-3.2218,-3.2218,-3.2218,-3.2218,-3.2218,-3.2218,-3.2218,-3.2218,-3.2218,-3.23,-3.2739,-3.3136,-3.3402,-3.3213,-3.3332,-3.3311,-3.2868,-3.2961,-3.2734,0.0,0.0,0.0,0.0,0.0,0.0,0.0,-2.8587,0.0,0.0,0.0,0.0,-2.899,-2.9815,-3.0485,-3.0934,-3.1748,-3.2218,-3.2218,-3.2218,-3.2218,-3.2218,-3.2218,-3.2218,-3.2218,-3.2218,-3.2218,-3.2218,-3.2218,-3.2218,-3.2182,-3.2109,-3.2073,-3.2073,-3.2,-3.1963,-3.1963,-3.1963,-3.1963,-3.1963,-3.8508,-3.8123,-3.8031,-3.8785,-3.8138,-3.7754,-3.8508,-3.7815,-3.72,-3.72,-3.6784,-3.6492,-3.6492,-3.6492,-3.6492,-3.6492,-3.6492,-3.6492,-3.6492,-3.6492,-3.6289,-3.5737,-3.5149,0.0,-3.3038,-3.2373,-3.1723,-3.1072,-3.0838,0.0,-3.0728,-3.0509,-3.0454,-3.0494,-3.0494,-3.0494,-3.0536,-3.1105,-3.1433,-3.1669,-3.2291,-3.2658,-3.2881,-3.3332,-3.3526,-3.3567,-3.3893,-3.4119,-3.4317,-3.4328,-3.4119,-3.3802,-3.3596,-3.3526,-3.3422,-3.2938,-3.281,-3.281,-3.281,-3.2646,-3.2503,-3.2503,-3.2503,-3.2503,-3.2503,-3.2668,-3.3009,-3.3699,-3.4109,-3.4211,-3.3891,-3.4109,-3.4143,-3.363,-3.3973,-3.3927,-3.2791,-3.245,0.0,0.0,-2.9635,-2.9271,-2.8655,-2.8587,0.0,0.0,0.0,0.0,-2.9713,-3.0174,-3.069,-3.1273,-3.187,-3.2218,-3.2218,-3.2218,-3.2218,-3.2218,-3.2218,-3.2218,-3.2218,-3.2218,-3.2218,-3.2218,-3.2218,-3.2218,-3.2218,-3.2218,-3.2218,-3.2218,-3.2218,-3.2218,-3.2218,-3.2218,-3.2218,-3.2218,-3.8508,-3.8492,-3.8292,-3.7646,-3.7507,-3.7277,-3.663,-3.6507,-3.6507,-3.6507,-3.6492,-3.6492,-3.6492,-3.6492,-3.6492,-3.6492,-3.6492,-3.6492,-3.6492,-3.6492,-3.6492,0.0,0.0,-3.5168,-3.4491,-3.3739,-3.3047,-3.237,0.0,-3.1495,-3.1466,-3.0807,-3.0494,-3.0494,-3.0494,-3.0494,-3.0538,-3.1145,-3.1768,-3.2437,-3.3042,-3.368,-3.4279,-3.4279,-3.4279,-3.4192,-3.3568,-3.3742,-3.4311,-3.4382,-3.4829,-3.527,-3.4514,-3.4279,-3.4279,-3.4279,-3.4279,-3.4279,-3.4279,-3.3734,-3.3178,-3.3178,-3.3178,-3.3178,-3.3178,-3.3768,-3.448,-3.5222,-3.4813,-3.4514,-3.5222,-3.478,-3.4312,-3.4279,-3.4279,-3.4095,-3.3489,-3.2835,0.0,-3.0725,-2.995,-2.9271,-2.8655,-2.8587,0.0,0.0,0.0,0.0,-3.0364,-3.0405,-3.069,-3.1273,-3.187,-3.2218,-3.2218,-3.2218,-3.2218,-3.2218,-3.2218,-3.2218,-3.2218,-3.2218,-3.2218,-3.2218,-3.2218,-3.2218,-3.2218,-3.2218,-3.2218,-3.2218,-3.2218,-3.2218,-3.2218,-3.2218,-3.2218,-3.2218,-3.8508,-3.8508,-3.8446,-3.8231,-3.8185,-3.8123,-3.7908,-3.7477,-3.7184,-3.7184,-3.6784,-3.6492,-3.6492,-3.6492,-3.6492,0.0,-3.6492,-3.6492,-3.6492,-3.6492,-3.6492,-3.6492,-3.6292,-3.566,-3.452,-3.4274,-3.3596,-3.2398,-3.2219,-3.2108,-3.2123,-3.1901,-3.1811,-3.1807,-3.1807,-3.1807,-3.1824,-3.199,-3.2196,-3.2417,-3.255,-3.2735,-3.2974,-3.3503,-3.3708,-3.371,-3.4014,-3.4242,-3.4424,-3.447,-3.4607,-3.476,-3.4516,-3.4713,-3.4871,-3.3889,-3.3931,-3.4312,-3.4312,-3.4143,-3.3973,-3.3973,-3.3973,-3.3973,-3.3973,-3.4514,-3.5124,-3.5367,-3.5608,-3.5705,-3.5432,-3.564,-3.564,-3.5124,-3.5464,-3.5399,-3.4248,-3.3903,-3.329,-3.1985,-3.1611,-3.1249,-3.0638,-3.0188,-2.9938,0.0,0.0,-2.974,-3.0378,-3.0798,-3.1287,-3.187,-3.211,-3.2218,-3.2218,-3.2218,-3.2218,-3.2218,-3.2218,-3.2218,-3.2218,-3.2218,-3.2218,-3.2218,-3.2218,-3.2218,-3.2218,-3.2218,-3.2218,-3.2218,-3.2218,-3.2218,-3.2218,-3.2218,-3.2218,-3.2218,-3.8508,-3.8508,-3.8431,-3.8169,-3.8123,-3.8046,-3.78,-3.7384,-3.7123,-3.7123,-3.6753,-3.6492,-3.6492,-3.6492,-3.6492,-3.6492,-3.6492,-3.6492,-3.6492,-3.6492,-3.6492,-3.6492,-3.6245,-3.5629,-3.452,-3.4243,-3.3521,-3.2398,-3.2403,-3.2414,-3.2414,-3.2414,-3.2387,-3.2398,-3.2398,-3.2398,-3.2385,-3.2405,-3.2565,-3.2777,-3.272,-3.2879,-3.3179,-3.3638,-3.3819,-3.3834,-3.4006,-3.4274,-3.4459,-3.4197,-3.4274,-3.4459,-3.4181,-3.4545,-3.4935,-3.4299,-3.4409,-3.4812,-3.5065,-3.4912,-3.4714,-3.4714,-3.4714,-3.478,-3.5059,-3.5464,-3.58,-3.58,-3.6179,-3.6352,-3.5911,-3.6179,-3.6352,-3.5879,-3.5981,-3.583,-3.494,-3.4163,-3.3465,0.0,-3.2098,-3.1622,-3.1514,-3.0914,-3.0397,-3.0086,0.0,-3.0228,-3.0405,-3.0975,-3.1572,-3.2191,-3.2218,-3.2218,-3.2218,-3.2218,-3.2218,-3.2218,-3.2218,-3.2218,-3.2218,-3.2218,-3.2218,-3.2218,-3.2218,-3.2218,-3.2218,-3.2218,-3.2218,-3.2218,-3.2218,-3.2218,-3.2218,-3.2218,-3.2218,-3.2218,-3.8431,-3.84,-3.8169,-3.7538,-3.743,-3.7215,-3.6599,-3.6492,-3.6492,-3.6492,-3.6492,-3.6492,-3.6492,-3.6492,-3.6492,-3.6492,-3.6492,-3.6492,-3.6492,-3.6492,-3.6492,-3.6492,-3.5891,-3.5244,-3.452,-3.3814,-3.3121,-3.2398,-3.2398,-3.2398,-3.2398,-3.2398,-3.2398,-3.2398,-3.2398,-3.2398,-3.2398,-3.2398,-3.2752,-3.3336,-3.3336,-3.3737,-3.4351,-3.4351,-3.4351,-3.4274,-3.3567,-3.3767,-3.4258,-3.3552,-3.3783,-3.4243,-3.3537,-3.3798,-3.4489,-3.5167,-3.5368,-3.5598,-3.6245,-3.5946,-3.5404,-3.5449,-3.5464,-3.5672,-3.6352,-3.6492,-3.6492,-3.6492,-3.6492,-3.6492,-3.6492,-3.6492,-3.6476,-3.643,-3.5891,-3.5475,-3.5383,-3.3788,-3.2886,-3.3502,-3.1901,-3.1015,-3.1632,-3.1039,-3.0317,-2.9678,0.0,-3.1042,-3.05,-3.1029,-3.1612,-3.2191,-3.2218,-3.2218,-3.2218,-3.2218,-3.2218,-3.2218,-3.2218,-3.2218,-3.2218,-3.2218,-3.2218,-3.2218,-3.2218,-3.2218,-3.2218,-3.2218,-3.2218,-3.2218,-3.2218,-3.2218,-3.2218,-3.2218,-3.2218,-3.2218,-3.7994,-3.7497,-3.7033,-3.6785,-3.6738,-3.6676,-3.6507,-3.6492,-3.6492,-3.6492,-3.6492,-3.6492,-3.6492,-3.6492,-3.6492,-3.6492,-3.6492,-3.6492,-3.6492,-3.6492,-3.6492,-3.6492,-3.6338,-3.5691,-3.4536,-3.4335,-3.3658,-3.2398,-3.2398,-3.2398,-3.2398,-3.2398,-3.2398,-3.2398,-3.2398,-3.2398,-3.2398,-3.2398,-3.249,-3.2628,-3.2628,-3.2736,-3.289,-3.289,-3.289,-3.2859,-3.269,-3.2736,-3.2859,-3.269,-3.2736,-3.2859,-3.269,-3.2752,-3.3013,-3.369,-3.4291,-3.489,-3.5568,-3.5615,-3.5615,-3.612,-3.6242,-3.6289,-3.646,-3.6492,-3.6492,-3.6492,-3.6492,-3.6492,-3.6492,-3.6492,-3.6322,-3.5814,-3.5614,-3.5106,-3.4044,-3.3959,-3.4099,-3.4223,-3.4258,-3.4123,-3.3686,-3.3063,-3.2182,-3.0971,-3.1137,-3.1232,-3.1083,-3.1653,-3.2069,-3.2218,-3.2218,-3.2218,-3.2218,-3.2218,-3.2218,-3.2218,-3.2218,-3.2218,-3.2218,-3.2218,-3.2218,-3.2218,-3.2218,-3.2218,-3.2218,-3.2218,-3.2218,-3.2218,-3.2218,-3.2218,-3.2218,-3.2218,-3.2218,-3.2218,-3.7966,-3.7561,-3.7157,-3.6662,-3.66,-3.6569,-3.6523,-3.6492,-3.6492,-3.6492,-3.6492,-3.6492,-3.6492,-3.6492,-3.6492,-3.6492,-3.6492,-3.6492,-3.6492,-3.6492,-3.6492,-3.6492,-3.6199,-3.5568,-3.452,-3.4181,-3.346,-3.2398,-3.2398,-3.2398,-3.2398,-3.2398,-3.2398,-3.2398,-3.2398,-3.2398,-3.2398,-3.2398,-3.2398,-3.2398,-3.2398,-3.2398,-3.2398,-3.2398,-3.2398,-3.2398,-3.2398,-3.2398,-3.2398,-3.2398,-3.2398,-3.2398,-3.2398,-3.2398,-3.2459,-3.2844,-3.3429,-3.4227,-3.5244,-3.5506,-3.5645,-3.6322,-3.6492,-3.6492,-3.6492,-3.6492,-3.6492,-3.6492,-3.6492,-3.6492,-3.6492,-3.6245,-3.5907,-3.5568,-3.4953,-3.4275,-3.3506,-3.3737,-3.4106,-3.4459,-3.4805,-3.4949,-3.482,-3.4193,-3.3389,-3.2356,-3.2526,-3.2396,-3.1785,-3.2337,-3.2503,-3.2218,-3.2218,-3.2218,-3.2218,-3.2218,-3.2218,-3.2218,-3.2218,-3.2218,-3.2218,-3.2218,-3.2218,-3.2218,-3.2218,-3.2218,-3.2218,-3.2218,-3.2218,-3.2218,-3.2218,-3.2218,-3.2218,-3.2218,-3.2218,-3.2218,-3.8169,-3.7966,-3.7639,-3.6894,-3.6723,-3.6662,-3.6554,-3.6523,-3.6492,-3.6492,-3.6492,-3.6492,-3.6492,-3.6492,-3.6492,-3.6492,-3.6492,-3.6492,-3.6492,-3.6492,-3.6492,-3.6492,-3.5938,-3.5306,-3.452,-3.3675,-3.2967,-3.2398,-3.2398,-3.2398,-3.2398,-3.2398,-3.2398,-3.2398,-3.2398,-3.2398,-3.2398,-3.2398,-3.2398,-3.2398,-3.2398,-3.2398,-3.2398,-3.2398,-3.2398,-3.2398,-3.2398,-3.2398,-3.2398,-3.2398,-3.2398,-3.2398,-3.2398,-3.2398,-3.2413,-3.2521,-3.2952,-3.369,-3.4983,-3.5506,-3.5799,-3.6353,-3.6492,-3.6492,-3.6492,-3.6492,-3.6492,-3.6492,-3.6492,-3.6461,-3.6353,-3.5876,-3.5475,-3.5383,-3.4245,-3.3444,-3.3552,-3.3567,-3.3829,-3.4566,-3.4698,-3.4896,-3.534,-3.4813,-3.4228,-3.3576,-3.4008,-3.3797,-3.2673,-3.3105,-3.3101,-3.2552,-3.2314,-3.2218,-3.2218,-3.2218,-3.2218,-3.2218,-3.2218,-3.2218,-3.2218,-3.2218,-3.2218,-3.2218,-3.2218,-3.2218,-3.2218,-3.2218,-3.2218,-3.2218,-3.2218,-3.2218,-3.2218,-3.2218,-3.2218,-3.2218,-3.8293,-3.7744,-3.7245,-3.7015,-3.68,-3.6693,-3.6662,-3.6569,-3.6492,-3.6492,-3.6492,-3.6492,-3.6492,-3.6492,-3.6492,-3.6492,-3.6492,-3.6492,-3.6492,-3.6492,-3.6492,-3.6492,-3.6384,-3.5783,-3.4536,-3.3213,-3.249,-3.2398,-3.2398,-3.2398,-3.2398,-3.2398,-3.2398,-3.2398,-3.2398,-3.2398,-3.2398,-3.2398,-3.2398,-3.2398,-3.2398,-3.2398,-3.2398,-3.2398,-3.2398,-3.2398,-3.2398,-3.2398,-3.2398,-3.2398,-3.2398,-3.2398,-3.2398,-3.2398,-3.2505,-3.3075,-3.3321,-3.3583,-3.4443,-3.546,-3.6368,-3.6461,-3.6492,-3.6492,-3.6492,-3.6492,-3.6492,-3.6492,-3.6492,-3.6322,-3.5753,-3.5553,-3.5321,-3.4751,-3.3937,-3.3614,-3.4243,-3.4335,-3.4582,-3.5275,-3.583,-3.5963,-3.5464,-3.5302,-3.4949,-3.4201,-3.4254,-3.4201,-3.3999,-3.4086,-3.4075,-3.3973,-3.281,-3.2218,-3.2218,-3.2218,-3.2218,-3.2218,-3.2218,-3.2218,-3.2218,-3.2218,-3.2218,-3.2218,-3.2218,-3.2218,-3.2218,-3.2218,-3.2218,-3.2218,-3.2218,-3.2218,-3.2218,-3.2218,-3.2218,-3.2218,-3.8494,-3.8117,-3.774,-3.7182,-3.6984,-3.6831,-3.6723,-3.6585,-3.6492,-3.6492,-3.6492,-3.6492,-3.6492,-3.6492,-3.6492,-3.6492,-3.6492,-3.6492,-3.6492,-3.6492,-3.6492,-3.6492,-3.6138,-3.5506,-3.452,-3.3873,-3.3534,-3.3534,-3.3121,-3.3136,-3.3519,-3.2736,-3.2582,-3.2921,-3.2552,-3.2398,-3.2398,-3.2398,-3.2398,-3.2398,-3.2398,-3.2398,-3.2398,-3.2398,-3.2398,-3.2398,-3.2398,-3.2398,-3.2398,-3.2398,-3.2398,-3.2398,-3.2398,-3.2398,-3.2521,-3.3198,-3.3937,-3.4599,-3.4951,-3.5737,-3.6492,-3.6492,-3.6492,-3.6492,-3.6492,-3.6492,-3.6492,-3.6492,-3.6492,-3.6399,-3.6091,-3.546,-3.4982,-3.5044,-3.4106,-3.366,-3.4397,-3.4813,-3.5152,-3.5475,-3.6076,-3.6367,-3.6022,-3.5975,-3.5847,-3.5497,-3.5497,-3.5302,-3.4912,-3.4879,-3.4714,-3.4312,-3.3679,-3.315,-3.2725,-3.2725,-3.2574,-3.2218,-3.2218,-3.2218,-3.2218,-3.2218,-3.2218,-3.2218,-3.2218,-3.2218,-3.2218,-3.2218,-3.2218,-3.2218,-3.2218,-3.2218,-3.2218,-3.2218,-3.2218,-3.2218,-3.8365,-3.827,-3.8066,-3.7394,-3.7165,-3.6984,-3.68,-3.6631,-3.6554,-3.6492,-3.6492,-3.6492,-3.6492,-3.6492,-3.6492,-3.6492,-3.6492,-3.6492,-3.6492,-3.6492,-3.6492,-3.6492,-3.5845,-3.5275,-3.4751,-3.4582,-3.4428,-3.4243,-3.3844,-3.3767,-3.3996,-3.3059,-3.2813,-3.3152,-3.2628,-3.2398,-3.2398,-3.2398,-3.2398,-3.2398,-3.2398,-3.2398,-3.2398,-3.2398,-3.2398,-3.2398,-3.2398,-3.2398,-3.2398,-3.2398,-3.2398,-3.2428,-3.2582,-3.2628,-3.2798,-3.3644,-3.4752,-3.5722,-3.5552,-3.5984,-3.6492,-3.6492,-3.6492,-3.6492,-3.6492,-3.6492,-3.6492,-3.6492,-3.6492,-3.6445,-3.6292,-3.5444,-3.4905,-3.5429,-3.4445,-3.3952,-3.4844,-3.5275,-3.5568,-3.5691,-3.6184,-3.6492,-3.6492,-3.6492,-3.6492,-3.6492,-3.6492,-3.6258,-3.5672,-3.5672,-3.54,-3.4813,-3.448,-3.4041,-3.3457,-3.3297,-3.2925,-3.2444,-3.2277,-3.2218,-3.2218,-3.2218,-3.2218,-3.2218,-3.2372,-3.2444,-3.2444,-3.261,-3.2682,-3.2682,-3.2682,-3.2682,-3.2682,-3.2682,-3.2682,-3.2682,-3.7589,-3.7589,-3.7557,-3.748,-3.7329,-3.715,-3.6999,-3.68,-3.6631,-3.6523,-3.6492,-3.6492,-3.6492,-3.6492,-3.6492,-3.6492,-3.6492,-3.6492,-3.6492,-3.6492,-3.6492,-3.6492,-3.5845,-3.5491,-3.5444,-3.4828,-3.4181,-3.3475,-3.4091,-3.3781,-3.2567,-3.3075,-3.3013,-3.2459,-3.2413,-3.2398,-3.2398,-3.2398,-3.2398,-3.2398,-3.2398,-3.2398,-3.2398,-3.2398,-3.2398,-3.2398,-3.2398,-3.2398,-3.2398,-3.2398,-3.2398,-3.2505,-3.3121,-3.3336,-3.3583,-3.4937,-3.5845,-3.6276,-3.5675,-3.5984,-3.6492,-3.6492,-3.6492,-3.6492,-3.6492,-3.6492,-3.6492,-3.6492,-3.6492,-3.6307,-3.5706,-3.5506,-3.5444,-3.5506,-3.4905,-3.4874,-3.6153,-3.5845,-3.5737,-3.6338,-3.6461,-3.6492,-3.6492,-3.6492,-3.6492,-3.6492,-3.6492,-3.6492,-3.6429,-3.6429,-3.6383,-3.6352,-3.5026,-3.4279,-3.4211,-3.3526,-3.3192,-3.3122,-3.2503,-3.2218,-3.2218,-3.2218,-3.2218,-3.2241,-3.2868,-3.3122,-3.3192,-3.3871,-3.4143,-3.4143,-3.4143,-3.4143,-3.4143,-3.4143,-3.4143,-3.4143,-3.8551,-3.8242,-3.8014,-3.8014,-3.7549,-3.7194,-3.7119,-3.6984,-3.6877,-3.6816,-3.6708,-3.6631,-3.6631,-3.6554,-3.6492,-3.6492,-3.6492,-3.6492,-3.6492,-3.6492,-3.6492,-3.6492,-3.6245,-3.6107,-3.6107,-3.5861,-3.5584,-3.5322,-3.4782,-3.4443,-3.4291,-3.326,-3.2859,-3.2998,-3.2582,-3.2398,-3.2398,-3.2398,-3.2398,-3.2398,-3.2398,-3.2398,-3.2398,-3.2398,-3.2398,-3.2398,-3.2398,-3.2398,-3.2398,-3.2398,-3.2398,-3.2505,-3.3183,-3.3398,-3.3675,-3.5076,-3.5953,-3.643,-3.6184,-3.6292,-3.6492,-3.6492,-3.6492,-3.6492,-3.6492,-3.6492,-3.6492,-3.6492,-3.6492,-3.6415,-3.6153,-3.5799,-3.566,-3.6045,-3.5568,-3.5444,-3.6368,-3.6261,-3.6199,-3.6461,-3.6492,-3.6492,-3.6492,-3.6492,-3.6492,-3.6492,-3.6492,-3.6492,-3.6492,-3.6492,-3.6492,-3.6492,-3.5943,-3.5432,-3.4993,-3.4714,-3.4331,-3.3871,-3.361,-3.3506,-3.3506,-3.3506,-3.3506,-3.3506,-3.3768,-3.3871,-3.3891,-3.4177,-3.4312,-3.4312,-3.4312,-3.4312,-3.4312,-3.4312,-3.4312,-3.4312,-3.9206,-3.8865,-3.8574,-3.8574,-3.8153,-3.7754,-3.7535,-3.7403,-3.7255,-3.703,-3.6862,-3.68,-3.68,-3.6708,-3.6662,-3.6662,-3.6616,-3.6554,-3.6554,-3.6523,-3.6492,-3.6492,-3.6492,-3.6492,-3.6492,-3.6492,-3.6384,-3.6184,-3.5491,-3.5152,-3.5167,-3.3921,-3.3383,-3.3383,-3.2921,-3.2598,-3.2398,-3.2398,-3.2398,-3.2398,-3.2398,-3.2398,-3.2398,-3.2398,-3.2398,-3.2398,-3.2398,-3.2398,-3.2398,-3.2398,-3.2536,-3.2829,-3.3521,-3.4029,-3.4552,-3.5522,-3.6122,-3.6492,-3.6492,-3.6492,-3.6492,-3.6492,-3.6492,-3.6492,-3.6492,-3.6492,-3.6492,-3.6492,-3.6492,-3.6492,-3.6492,-3.6107,-3.5953,-3.6415,-3.6107,-3.5953,-3.643,-3.6492,-3.6492,-3.6492,-3.6492,-3.6492,-3.6492,-3.6492,-3.6492,-3.6492,-3.6492,-3.6492,-3.6492,-3.6492,-3.6492,-3.6492,-3.6492,-3.6258,-3.5737,-3.5529,-3.5157,-3.4647,-3.4413,-3.4312,-3.4312,-3.4312,-3.4312,-3.4312,-3.4547,-3.4647,-3.4647,-3.4894,-3.4993,-3.4993,-3.4993,-3.4993,-3.4993,-3.4993,-3.4993,-3.4993,-3.9206,-3.9206,-3.9206,-3.9206,-3.9206,-3.8947,-3.8214,-3.81,-3.7828,-3.709,-3.7015,-3.7015,-3.7015,-3.6999,-3.7015,-3.7015,-3.6831,-3.6723,-3.6723,-3.6569,-3.6523,-3.6523,-3.6523,-3.6492,-3.6492,-3.6492,-3.6153,-3.5521,-3.6153,-3.5799,-3.452,-3.5198,-3.4737,-3.3413,-3.3398,-3.3029,-3.2398,-3.2398,-3.2398,-3.2398,-3.2398,-3.2398,-3.2398,-3.2398,-3.2398,-3.2398,-3.2398,-3.2398,-3.2398,-3.2398,-3.2859,-3.3537,-3.4289,-3.5444,-3.6492,-3.6492,-3.6492,-3.6492,-3.6492,-3.6492,-3.6492,-3.6492,-3.6492,-3.6492,-3.6492,-3.6492,-3.6492,-3.6492,-3.6492,-3.6492,-3.6492,-3.6492,-3.6492,-3.6492,-3.6492,-3.6492,-3.6492,-3.6492,-3.6492,-3.6492,-3.6492,-3.6492,-3.6492,-3.6492,-3.6492,-3.6492,-3.6492,-3.6492,-3.6492,-3.6492,-3.6492,-3.6492,-3.6492,-3.6492,-3.6492,-3.5769,-3.54,-3.54,-3.4681,-3.4312,-3.4312,-3.4312,-3.4312,-3.4346,-3.5091,-3.54,-3.5464,-3.6179,-3.6492,-3.6492,-3.6492,-3.6492,-3.6492,-3.6492,-3.6492,-3.6492,-4.0377,-4.0045,-3.9749,-3.9749,-3.9454,-3.8974,-3.8322,-3.8238,-3.8042,-3.7435,-3.7225,-3.715,-3.715,-3.7371,-3.7562,-3.7562,-3.7517,-3.7458,-3.7458,-3.7074,-3.7224,-3.8007,-3.7042,-3.6492,-3.6492,-3.6492,-3.6384,-3.6184,-3.5953,-3.5598,-3.5213,-3.4936,-3.4582,-3.4166,-3.3629,-3.329,-3.3075,-3.2598,-3.2398,-3.2425,-3.2496,-3.2844,-3.3271,-3.2889,-3.297,-3.3228,-3.2721,-3.2789,-3.3134,-3.3262,-3.3754,-3.4434,-3.513,-3.595,-3.6631,-3.6523,-3.6492,-3.6492,-3.6492,-3.6585,-3.6631,-3.6523,-3.6492,-3.6492,-3.6492,-3.6492,-3.6492,-3.6492,-3.6492,-3.6492,-3.6492,-3.6492,-3.6492,-3.6492,-3.6492,-3.6492,-3.6492,-3.6492,-3.6492,-3.6492,-3.6492,-3.6492,-3.6492,-3.6492,-3.6492,-3.6492,-3.6492,-3.6492,-3.6492,-3.6492,-3.6492,-3.6492,-3.6492,-3.6492,-3.6492,-3.6289,-3.6179,-3.6179,-3.5943,-3.5847,-3.5847,-3.5847,-3.5847,-3.5879,-3.6085,-3.6179,-3.6179,-3.6429,-3.6492,-3.6492,-3.6492,-3.6492,-3.6492,-3.6492,-3.6492,-3.6492,-4.0912,-4.0614,-4.036,-4.036,-4.0087,-3.9662,-3.9059,-3.8978,-3.8778,-3.823,-3.8071,-3.7998,-3.7998,-3.821,-3.8362,-3.8362,-3.829,-3.8218,-3.8161,-3.7838,-3.7982,-3.8663,-3.7835,-3.7266,-3.7012,-3.7012,-3.6876,-3.6569,-3.6709,-3.6505,-3.5982,-3.5862,-3.5379,-3.4649,-3.42,-3.386,-3.3565,-3.2872,-3.2915,-3.338,-3.32,-3.3538,-3.4141,-3.382,-3.3886,-3.4125,-3.3678,-3.373,-3.4014,-3.4144,-3.4638,-3.5338,-3.5992,-3.6489,-3.68,-3.6708,-3.6693,-3.6693,-3.6693,-3.677,-3.68,-3.6708,-3.6693,-3.6677,-3.6616,-3.6647,-3.6693,-3.6693,-3.6693,-3.6693,-3.6693,-3.6693,-3.6693,-3.6693,-3.6693,-3.6693,-3.6693,-3.6693,-3.6693,-3.6693,-3.6693,-3.6693,-3.6693,-3.6693,-3.6647,-3.6585,-3.6523,-3.6492,-3.6492,-3.6492,-3.6492,-3.6492,-3.6492,-3.6492,-3.6492,-3.6753,-3.6753,-3.6492,-3.6769,-3.6892,-3.6892,-3.7169,-3.7292,-3.7292,-3.7292,-3.7138,-3.6892,-3.6892,-3.6738,-3.6492,-3.6492,-3.6492,-3.6492,-3.6492,-3.6492,-3.6492,-4.0912,-4.0912,-4.0912,-4.0912,-4.0912,-4.0686,-4.0078,-4.0003,-3.98,-3.9286,-3.9206,-3.9206,-3.9206,-3.9259,-3.9269,-3.9269,-3.9102,-3.8935,-3.8827,-3.8772,-3.8799,-3.8908,-3.8799,-3.8497,-3.8007,-3.7921,-3.7531,-3.6876,-3.8121,-3.8092,-3.6876,-3.7576,-3.695,-3.5237,-3.5174,-3.4798,-3.4199,-3.345,-3.3873,-3.4986,-3.4324,-3.4497,-3.5172,-3.5052,-3.5039,-3.5086,-3.4982,-3.4956,-3.5003,-3.5094,-3.5547,-3.6247,-3.6842,-3.703,-3.7015,-3.6999,-3.7015,-3.7015,-3.7015,-3.6999,-3.6999,-3.6999,-3.7015,-3.6999,-3.6785,-3.6862,-3.7015,-3.7015,-3.7015,-3.7015,-3.7015,-3.7015,-3.7015,-3.7015,-3.7015,-3.7015,-3.7015,-3.7015,-3.7015,-3.7015,-3.7015,-3.703,-3.7093,-3.7093,-3.7001,-3.6754,-3.66,-3.6554,-3.6554,-3.6554,-3.6554,-3.6554,-3.6554,-3.6523,-3.6523,-3.7139,-3.717,-3.6599,-3.7277,-3.7584,-3.7615,-3.8231,-3.8508,-3.8508,-3.8508,-3.8154,-3.7584,-3.7523,-3.7138,-3.6569,-3.6507,-3.6492,-3.6492,-3.6492,-3.6492,-3.6492,-4.0912,-4.0912,-4.0912,-4.0912,-4.0912,-4.0686,-4.0078,-4.0003,-3.98,-3.9286,-3.9206,-3.9206,-3.9206,-3.9568,-3.9825,-3.9825,-3.9783,-3.9757,-3.9732,-3.9315,-3.9489,-4.0385,-3.9584,-3.9226,-3.9508,-3.8854,-3.8442,-3.8274,-3.8553,-3.8553,-3.8274,-3.8442,-3.8279,-3.7843,-3.7319,-3.7005,-3.6777,-3.5493,-3.5461,-3.6261,-3.5563,-3.6104,-3.7144,-3.6244,-3.6231,-3.647,-3.5483,-3.5399,-3.5859,-3.6477,-3.6924,-3.7156,-3.7163,-3.718,-3.715,-3.703,-3.7015,-3.7015,-3.7015,-3.7075,-3.7119,-3.703,-3.7211,-3.7301,-3.6999,-3.6969,-3.7015,-3.7015,-3.7015,-3.7015,-3.7015,-3.7015,-3.7015,-3.7015,-3.7015,-3.7015,-3.7015,-3.7015,-3.7015,-3.7015,-3.7015,-3.7218,-3.7717,-3.7764,-3.7561,-3.6985,-3.6908,-3.6877,-3.6877,-3.6877,-3.6877,-3.6877,-3.6877,-3.6816,-3.6662,-3.6801,-3.7017,-3.7292,-3.7969,-3.8292,-3.8292,-3.8446,-3.8508,-3.8508,-3.8508,-3.8431,-3.8246,-3.7723,-3.7415,-3.723,-3.6707,-3.6492,-3.6492,-3.6492,-3.6492,-3.6492,-4.0912,-4.0912,-4.0912,-4.0912,-4.0912,-4.0799,-4.0476,-4.0434,-4.0336,-4.0037,-4.0011,-4.0011,-4.0011,-4.0262,-4.0434,-4.0434,-4.0434,-4.0434,-4.0434,-4.0162,-4.0279,-4.0871,-4.0328,-4.0137,-4.041,-3.9978,-3.9456,-3.8799,-3.9456,-3.943,-3.8799,-3.9149,-3.8994,-3.8407,-3.8055,-3.789,-3.7824,-3.6744,-3.6892,-3.7833,-3.7125,-3.7531,-3.8454,-3.7863,-3.7828,-3.8014,-3.7355,-3.7302,-3.7589,-3.8012,-3.8214,-3.8258,-3.7854,-3.7709,-3.7666,-3.7345,-3.7241,-3.7241,-3.7241,-3.7285,-3.7345,-3.7271,-3.7361,-3.7421,-3.7165,-3.7165,-3.7335,-3.7665,-3.7713,-3.7807,-3.8136,-3.8199,-3.8105,-3.7791,-3.7964,-3.8089,-3.7744,-3.801,-3.8199,-3.8199,-3.8199,-3.834,-3.8686,-3.8372,-3.8122,-3.8091,-3.8044,-3.7997,-3.7997,-3.7997,-3.7795,-3.739,-3.739,-3.7297,-3.7079,-3.7498,-3.8009,-3.8592,-3.8525,-3.8677,-3.9,-3.929,-3.9428,-3.9428,-3.9428,-3.9108,-3.8477,-3.8123,-3.7632,-3.7078,-3.6661,-3.6554,-3.6616,-3.6616,-3.6647,-3.6754,-4.0912,-4.0912,-4.0912,-4.0912,-4.0912,-4.0912,-4.0912,-4.0912,-4.0912,-4.0912,-4.0912,-4.0912,-4.0912,-4.0912,-4.0912,-4.0912,-4.0912,-4.0912,-4.0912,-4.0912,-4.0912,-4.0912,-4.0912,-4.0912,-4.0912,-4.0912,-4.036,-3.9229,-4.036,-4.0336,-3.9272,-3.9859,-3.9589,-3.858,-3.858,-3.858,-3.853,-3.7853,-3.8313,-3.943,-3.8671,-3.8822,-3.9497,-3.9391,-3.9322,-3.9322,-3.9216,-3.9206,-3.9206,-3.9206,-3.9206,-3.9109,-3.8601,-3.8446,-3.8351,-3.7931,-3.7772,-3.7772,-3.7655,-3.7714,-3.7772,-3.7655,-3.7642,-3.7628,-3.7575,-3.7543,-3.77,-3.8365,-3.8507,-3.8713,-3.9376,-3.9503,-3.9329,-3.8776,-3.9139,-3.9313,-3.876,-3.9155,-3.9503,-3.9503,-3.9613,-3.9645,-3.9518,-3.8999,-3.8874,-3.9298,-3.9219,-3.9186,-3.9186,-3.9186,-3.8841,-3.8122,-3.8075,-3.8012,-3.7805,-3.8507,-3.9208,-3.9843,-3.912,-3.9113,-3.9742,-4.0278,-4.0489,-4.0489,-4.0489,-3.9859,-3.8831,-3.86,-3.7943,-3.7018,-3.6646,-3.6569,-3.6693,-3.6693,-3.6831,-3.7015,-4.0912,-4.0912,-4.0912,-4.0912,-4.0912,-4.0912,-4.0912,-4.0912,-4.0912,-4.0912,-4.0912,-4.0912,-4.0912,-4.0912,-4.0912,-4.0912,-4.0912,-4.0912,-4.0912,-4.0912,-4.0912,-4.0912,-4.0912,-4.0912,-4.0912,-4.0912,-4.0823,-4.0638,-4.0823,-4.0823,-4.0638,-4.0734,-4.0683,-4.0532,-4.0532,-4.0532,-4.048,-3.9667,-3.9856,-4.0594,-3.9804,-3.9959,-4.0614,-4.0095,-3.9902,-3.9825,-3.9375,-3.9206,-3.9206,-3.9206,-3.9206,-3.9179,-3.9109,-3.9082,-3.9055,-3.899,-3.8963,-3.8854,-3.8322,-3.8562,-3.8838,-3.8322,-3.8181,-3.8359,-3.8976,-3.8262,-3.77,-3.8365,-3.8507,-3.8713,-3.9376,-3.9503,-3.9471,-3.9376,-3.9439,-3.9471,-3.9376,-3.9439,-3.9503,-3.9503,-4.0056,-4.0198,-3.9566,-3.9961,-4.0056,-3.9503,-3.944,-3.9456,-3.9456,-3.9456,-3.9393,-3.9267,-3.9267,-3.9204,-3.9062,-3.9188,-3.9499,-4.0055,-3.9928,-4.0124,-4.0625,-4.0547,-4.0489,-4.0489,-4.0489,-4.0397,-4.0136,-3.8985,-3.8513,-3.838,-3.7016,-3.6569,-3.6693,-3.6693,-3.6831,-3.7015,-4.0912,-4.0912,-4.0912,-4.0912,-4.0912,-4.0912,-4.0912,-4.0912,-4.0912,-4.0912,-4.0912,-4.0912,-4.0912,-4.0912,-4.0912,-4.0912,-4.0912,-4.0912,-4.0912,-4.0912,-4.0912,-4.0912,-4.0912,-4.0912,-4.0912,-4.0912,-4.0912,-4.0912,-4.0912,-4.0912,-4.0912,-4.0912,-4.0912,-4.0912,-4.0912,-4.0912,-4.0877,-4.0532,-4.0584,-4.0877,-4.0515,-4.0584,-4.0871,-4.0597,-4.05,-4.0476,-4.0237,-4.0154,-4.0154,-4.0154,-4.0154,-4.0087,-3.9765,-3.9662,-3.9584,-3.9286,-3.9206,-3.9135,-3.8892,-3.9001,-3.9152,-3.8865,-3.8794,-3.8892,-3.9221,-3.9173,-3.9192,-3.9595,-3.936,-3.9392,-4.0467,-4.0672,-4.0546,-4.0182,-4.0435,-4.0546,-4.0166,-4.0435,-4.0672,-4.0672,-4.0625,-4.0625,-4.0672,-4.0625,-4.0625,-4.0672,-4.0672,-4.0672,-4.0672,-4.0672,-4.045,-3.9976,-3.996,-3.9879,-3.975,-3.9815,-4.016,-4.0751,-4.0751,-4.0857,-4.095,-4.0898,-4.083,-4.083,-4.083,-4.0613,-4.0213,-3.9204,-3.8681,-3.8387,-3.7235,-3.6862,-3.6983,-3.6983,-3.7089,-3.7271]},{"header":{"parameterUnit":"m.s-1","parameterCategory":1,"la1":30.6,"la2":28.766,"lo1":-90.7593,"lo2":-88.6598,"dy":0.0162,"dx":0.0183,"nx":116,"ny":114,"refTime":"2023-07-12T06:00:00:Z","depth":0,"parameterNumber":3,"parameterNumberName":"V-component_of_WINDS"},"data":[0.0,0.0,0.0,0.0,0.0,0.0,0.0,0.0,0.0,0.0,0.0,0.0,0.0,0.0,0.0,0.0,0.0,0.0,0.0,0.0,0.0,0.0,0.0,0.0,0.0,0.0,0.0,0.0,0.0,0.0,0.0,0.0,0.0,0.0,0.0,0.0,0.0,0.0,0.0,0.0,0.0,0.0,0.0,0.0,0.0,0.0,0.0,0.0,0.0,0.0,0.0,0.0,0.0,0.0,0.0,0.0,0.0,0.0,0.0,0.0,0.0,0.0,0.0,0.0,0.0,0.0,0.0,0.0,0.0,0.0,0.0,0.0,0.0,0.0,0.0,0.0,0.0,0.0,0.0,0.0,0.0,0.0,0.0,0.0,0.0,0.0,0.0,0.0,0.0,0.0,0.0,0.0,0.0,0.0,0.0,0.0,0.0,0.0,0.0,0.0,0.0,0.0,0.0,0.0,0.0,0.0,0.0,0.0,0.0,0.0,0.0,0.0,0.0,0.0,0.0,0.0,0.0,0.0,0.0,0.0,0.0,0.0,0.0,0.0,0.0,0.0,0.0,0.0,0.0,0.0,0.0,0.0,0.0,0.0,0.0,0.0,0.0,0.0,0.0,0.0,0.0,0.0,0.0,0.0,0.0,0.0,0.0,0.0,0.0,0.0,0.0,0.0,0.0,0.0,0.0,0.0,0.0,0.0,0.0,0.0,0.0,0.0,0.0,0.0,0.0,0.0,0.0,0.0,0.0,0.0,0.0,0.0,0.0,0.0,0.0,0.0,0.0,0.0,0.0,0.0,0.0,0.0,0.0,0.0,0.0,0.0,0.0,0.0,0.0,0.0,0.0,0.0,0.0,0.0,0.0,0.0,0.0,0.0,0.0,0.0,0.0,0.0,0.0,0.0,0.0,0.0,0.0,0.0,0.0,0.0,0.0,0.0,0.0,0.0,0.0,0.0,0.0,0.0,0.0,0.0,0.0,0.0,0.0,0.0,0.0,0.0,0.0,0.0,0.0,0.0,0.0,0.0,0.0,0.0,0.0,0.0,0.0,0.0,0.0,0.0,0.0,0.0,0.0,0.0,0.0,0.0,0.0,0.0,0.0,0.0,0.0,0.0,0.0,0.0,0.0,0.0,0.0,0.0,0.0,0.0,0.0,0.0,0.0,0.0,0.0,0.0,0.0,0.0,0.0,0.0,0.0,0.0,0.0,0.0,0.0,0.0,0.0,0.0,0.0,0.0,0.0,0.0,0.0,0.0,0.0,0.0,0.0,0.0,0.0,0.0,0.0,0.0,0.0,0.0,0.0,0.0,0.0,0.0,0.0,0.0,0.0,0.0,0.0,0.0,0.0,0.0,0.0,0.0,0.0,0.0,0.0,0.0,0.0,0.0,0.0,0.0,0.0,0.0,0.0,0.0,0.0,0.0,0.0,0.0,0.0,0.0,0.0,0.0,0.0,0.0,0.0,0.0,0.0,0.0,0.0,0.0,0.0,0.0,0.0,0.0,0.0,0.0,0.0,0.0,0.0,0.0,0.0,0.0,0.0,0.0,0.0,0.0,0.0,0.0,0.0,0.0,0.0,0.0,0.0,0.0,0.0,0.0,0.0,0.0,0.0,0.0,0.0,0.0,0.0,0.0,0.0,0.0,0.0,0.0,0.0,0.0,0.0,0.0,0.0,0.0,0.0,0.0,0.0,0.0,0.0,0.0,0.0,0.0,0.0,0.0,0.0,0.0,0.0,0.0,0.0,0.0,0.0,0.0,0.0,0.0,0.0,0.0,0.0,0.0,0.0,0.0,0.0,0.0,0.0,0.0,0.0,0.0,0.0,0.0,0.0,0.0,0.0,0.0,0.0,0.0,0.0,0.0,0.0,0.0,0.0,0.0,0.0,0.0,0.0,0.0,0.0,0.0,0.0,0.0,0.0,0.0,0.0,0.0,0.0,0.0,0.0,0.0,0.0,0.0,0.0,0.0,0.0,0.0,0.0,0.0,0.0,0.0,0.0,0.0,0.0,0.0,0.0,0.0,0.0,0.0,0.0,0.0,0.0,0.0,0.0,0.0,0.0,0.0,0.0,0.0,0.0,0.0,0.0,0.0,0.0,0.0,0.0,0.0,0.0,0.0,0.0,0.0,0.0,0.0,0.0,0.0,0.0,0.0,0.0,0.0,0.0,0.0,0.0,0.0,0.0,0.0,0.0,0.0,0.0,0.0,0.0,0.0,0.0,0.0,0.0,0.0,0.0,0.0,0.0,0.0,0.0,0.0,0.0,0.0,0.0,0.0,0.0,0.0,0.0,0.0,0.0,0.0,0.0,0.0,0.0,0.0,0.0,0.0,0.0,0.0,0.0,0.0,0.0,0.0,0.0,0.0,0.0,0.0,0.0,0.0,0.0,0.0,0.0,0.0,0.0,0.0,0.0,0.0,0.0,0.0,0.0,0.0,0.0,0.0,0.0,0.0,0.0,0.0,0.0,0.0,0.0,0.0,0.0,0.0,0.0,0.0,0.0,0.0,0.0,0.0,0.0,0.0,0.0,0.0,0.0,0.0,0.0,0.0,0.0,0.0,0.0,0.0,0.0,0.0,0.0,0.0,0.0,0.0,0.0,0.0,0.0,0.0,0.0,0.0,0.0,0.0,0.0,0.0,0.0,0.0,0.0,0.0,0.0,0.0,0.0,0.0,0.0,0.0,0.0,0.0,0.0,0.0,0.0,0.0,0.0,0.0,0.0,0.0,0.0,0.0,0.0,0.0,0.0,0.0,0.0,0.0,0.0,0.0,0.0,0.0,0.0,0.0,0.0,0.0,0.0,0.0,0.0,0.0,0.0,0.0,0.0,0.0,0.0,0.0,0.0,0.0,0.0,0.0,0.0,0.0,0.0,0.0,0.0,0.0,0.0,0.0,0.0,0.0,0.0,0.0,0.0,0.0,0.0,0.0,0.0,0.0,0.0,0.0,0.0,0.0,0.0,0.0,0.0,0.0,0.0,0.0,0.0,0.0,0.0,0.0,0.0,0.0,0.0,0.0,0.0,0.0,0.0,0.0,0.0,0.0,0.0,0.0,0.0,0.0,0.0,0.0,0.0,0.0,0.0,0.0,0.0,0.0,0.0,0.0,0.0,0.0,0.0,0.0,0.0,0.0,0.0,0.0,0.0,0.0,0.0,0.0,0.0,0.0,0.0,0.0,0.0,0.0,0.0,0.0,0.0,0.0,0.0,0.0,0.0,0.0,0.0,0.0,0.0,0.0,0.0,0.0,0.0,0.0,0.0,0.0,0.0,0.0,0.0,0.0,0.0,0.0,0.0,0.0,0.0,0.0,0.0,0.0,0.0,0.0,0.0,0.0,0.0,0.0,0.0,0.0,0.0,0.0,0.0,0.0,0.0,0.0,0.0,0.0,0.0,0.0,0.0,0.0,0.0,0.0,0.0,0.0,0.0,0.0,0.0,0.0,0.0,0.0,0.0,0.0,0.0,0.0,0.0,0.0,0.0,0.0,0.0,0.0,0.0,0.0,0.0,0.0,0.0,0.0,0.0,0.0,0.0,0.0,0.0,0.0,0.0,0.0,0.0,0.0,0.0,0.0,0.0,0.0,0.0,0.0,0.0,0.0,0.0,0.0,0.0,0.0,0.0,0.0,0.0,0.0,0.0,0.0,0.0,0.0,0.0,0.0,0.0,0.0,0.0,0.0,0.0,0.0,0.0,0.0,0.0,0.0,0.0,0.0,0.0,0.0,0.0,0.0,0.0,0.0,0.0,0.0,0.0,0.0,0.0,0.0,0.0,0.0,0.0,0.0,0.0,0.0,0.0,0.0,0.0,0.0,0.0,0.0,0.0,0.0,0.0,0.0,0.0,0.0,0.0,0.0,0.0,0.0,0.0,0.0,0.0,0.0,0.0,0.0,0.0,0.0,0.0,0.0,0.0,0.0,0.0,0.0,0.0,0.0,0.0,0.0,0.0,0.0,0.0,0.0,0.0,0.0,0.0,0.0,0.0,0.0,0.0,0.0,0.0,0.0,0.0,0.0,0.0,0.0,0.0,0.0,0.0,0.0,0.0,0.0,0.0,0.0,0.0,0.0,0.0,0.0,0.0,0.0,0.0,0.0,0.0,0.0,0.0,0.0,0.0,0.0,0.0,0.0,0.0,0.0,0.0,0.0,0.0,0.0,0.0,0.0,0.0,0.0,0.0,0.0,0.0,0.0,0.0,0.0,0.0,0.0,0.0,0.0,0.0,0.0,0.0,0.0,0.0,0.0,0.0,0.0,0.0,0.0,0.0,0.0,0.0,0.0,0.0,0.0,0.0,0.0,0.0,0.0,0.0,0.0,0.0,0.0,0.0,0.0,0.0,0.0,0.0,0.0,0.0,0.0,0.0,0.0,0.0,0.0,0.0,0.0,0.0,0.0,0.0,0.0,0.0,0.0,0.0,0.0,0.0,0.0,0.0,0.0,0.0,0.0,0.0,0.0,0.0,0.0,0.0,0.0,0.0,0.0,0.0,0.0,0.0,0.0,0.0,0.0,0.0,0.0,0.0,0.0,0.0,0.0,0.0,0.0,0.0,0.0,0.0,0.0,0.0,0.0,0.0,0.0,0.0,0.0,0.0,0.0,0.0,0.0,0.0,0.0,0.0,0.0,0.0,0.0,0.0,0.0,0.0,0.0,0.0,0.0,0.0,0.0,0.0,0.0,0.0,0.0,0.0,0.0,0.0,0.0,0.0,0.0,0.0,0.0,0.0,0.0,0.0,0.0,0.0,0.0,0.0,0.0,0.0,0.0,0.0,0.0,0.0,0.0,0.0,0.0,0.0,0.0,0.0,0.0,0.0,0.0,0.0,0.0,0.0,0.0,0.0,0.0,0.0,0.0,0.0,0.0,0.0,0.0,0.0,0.0,0.0,0.0,0.0,0.0,0.0,0.0,0.0,0.0,0.0,0.0,0.0,0.0,0.0,0.0,0.0,0.0,0.0,0.0,0.0,0.0,0.0,0.0,0.0,0.0,0.0,0.0,0.0,0.0,0.0,0.0,0.0,0.0,0.0,0.0,0.0,0.0,0.0,0.0,0.0,0.0,0.0,0.0,0.0,0.0,0.0,0.0,0.0,0.0,0.0,0.0,0.0,0.0,0.0,0.0,0.0,0.0,0.0,0.0,0.0,0.0,0.0,0.0,0.0,0.0,0.0,0.0,0.0,0.0,0.0,0.0,0.0,0.0,0.0,0.0,0.0,0.0,0.0,0.0,0.0,0.0,0.0,0.0,0.0,0.0,0.0,0.0,0.0,0.0,0.0,0.0,0.0,0.0,0.0,0.0,0.0,0.0,0.0,0.0,0.0,0.0,0.0,0.0,0.0,0.0,0.0,0.0,0.0,0.0,0.0,0.0,0.0,0.0,0.0,0.0,0.0,0.0,0.0,0.0,0.0,0.0,0.0,0.0,0.0,0.0,0.0,0.0,0.0,0.0,0.0,0.0,0.0,0.0,0.0,0.0,0.0,0.0,0.0,0.0,0.0,0.0,0.0,0.0,0.0,0.0,0.0,0.0,0.0,0.0,0.0,0.0,0.0,0.0,0.0,0.0,0.0,0.0,0.0,0.0,0.0,0.0,0.0,0.0,0.0,0.0,0.0,0.0,0.0,0.0,0.0,0.0,0.0,0.0,0.0,0.0,0.0,0.0,0.0,0.0,0.0,0.0,0.0,0.0,0.0,0.0,0.0,0.0,0.0,0.0,0.0,0.0,0.0,0.0,0.0,0.0,0.0,0.0,0.0,0.0,0.0,0.0,0.0,0.0,0.0,0.0,0.0,0.0,0.0,0.0,0.0,0.0,0.0,0.0,0.0,0.0,0.0,0.0,0.0,0.0,0.0,0.0,0.0,0.0,0.0,0.0,0.0,0.0,0.0,0.0,0.0,0.0,0.0,0.0,0.0,0.0,0.0,0.0,0.0,0.0,0.0,0.0,0.0,0.0,0.0,0.0,0.0,0.0,0.0,0.0,0.0,0.0,0.0,0.0,0.0,0.0,0.0,0.0,0.0,0.0,0.0,0.0,0.0,0.0,0.0,0.0,0.0,0.0,0.0,0.0,0.0,0.0,0.0,0.0,0.0,0.0,-3.5346,0.0,0.0,0.0,0.0,0.0,0.0,0.0,0.0,0.0,0.0,0.0,0.0,0.0,0.0,0.0,0.0,0.0,0.0,0.0,0.0,0.0,0.0,0.0,0.0,0.0,0.0,0.0,0.0,0.0,0.0,0.0,0.0,0.0,0.0,0.0,0.0,0.0,0.0,0.0,0.0,0.0,0.0,0.0,0.0,0.0,0.0,0.0,0.0,0.0,0.0,0.0,0.0,0.0,0.0,0.0,0.0,0.0,0.0,0.0,0.0,0.0,0.0,0.0,0.0,0.0,0.0,0.0,0.0,0.0,0.0,0.0,0.0,0.0,0.0,0.0,0.0,0.0,0.0,0.0,0.0,0.0,0.0,0.0,0.0,0.0,0.0,0.0,0.0,0.0,0.0,0.0,0.0,0.0,0.0,0.0,0.0,0.0,0.0,0.0,0.0,0.0,0.0,0.0,0.0,0.0,0.0,0.0,0.0,0.0,0.0,0.0,0.0,0.0,0.0,0.0,0.0,-3.6916,0.0,0.0,0.0,0.0,0.0,0.0,0.0,0.0,0.0,0.0,0.0,0.0,0.0,0.0,0.0,0.0,0.0,0.0,0.0,0.0,0.0,0.0,0.0,0.0,0.0,0.0,0.0,0.0,0.0,0.0,0.0,0.0,0.0,0.0,0.0,0.0,0.0,0.0,0.0,0.0,0.0,0.0,0.0,0.0,0.0,0.0,0.0,0.0,0.0,0.0,0.0,0.0,0.0,0.0,0.0,0.0,0.0,0.0,0.0,0.0,0.0,0.0,0.0,0.0,0.0,0.0,0.0,0.0,0.0,0.0,0.0,0.0,0.0,0.0,0.0,0.0,0.0,0.0,0.0,0.0,0.0,0.0,0.0,0.0,0.0,0.0,0.0,0.0,0.0,0.0,0.0,0.0,0.0,0.0,0.0,0.0,0.0,0.0,0.0,0.0,0.0,0.0,0.0,0.0,0.0,0.0,0.0,0.0,-4.2662,-4.4282,-4.5053,-4.5713,-4.6444,-4.6944,-4.2412,-4.0128,-3.9591,-3.9325,0.0,0.0,0.0,0.0,0.0,0.0,0.0,0.0,0.0,0.0,0.0,0.0,0.0,0.0,0.0,0.0,0.0,0.0,0.0,0.0,0.0,0.0,0.0,0.0,0.0,0.0,0.0,0.0,0.0,0.0,0.0,0.0,0.0,0.0,0.0,0.0,0.0,0.0,-3.7833,-3.9764,-4.0916,-4.1234,-3.8194,0.0,0.0,0.0,0.0,0.0,0.0,0.0,0.0,0.0,0.0,0.0,0.0,0.0,0.0,0.0,0.0,0.0,0.0,0.0,0.0,0.0,0.0,0.0,0.0,0.0,0.0,0.0,0.0,0.0,0.0,0.0,0.0,0.0,0.0,0.0,0.0,0.0,0.0,0.0,0.0,0.0,0.0,0.0,-3.5632,-3.6328,0.0,0.0,0.0,0.0,0.0,0.0,0.0,0.0,0.0,0.0,0.0,0.0,0.0,-4.1038,-4.2555,-4.3283,-4.4089,-4.4874,-4.5302,-4.5909,-4.6676,-4.6783,-4.7265,-4.8002,-4.7288,0.0,-4.2787,-4.1377,0.0,0.0,0.0,0.0,0.0,0.0,0.0,0.0,0.0,0.0,0.0,0.0,0.0,0.0,0.0,0.0,0.0,0.0,0.0,0.0,0.0,0.0,0.0,0.0,0.0,0.0,0.0,0.0,0.0,0.0,0.0,0.0,0.0,0.0,0.0,0.0,-3.721,-3.8872,-4.0494,-4.1481,-4.2331,-4.2912,-4.1319,-4.0048,-3.9091,-3.8946,0.0,0.0,0.0,0.0,0.0,0.0,0.0,0.0,0.0,0.0,0.0,0.0,0.0,0.0,0.0,0.0,0.0,0.0,0.0,0.0,0.0,0.0,0.0,0.0,0.0,0.0,0.0,0.0,0.0,0.0,0.0,0.0,0.0,0.0,0.0,0.0,0.0,0.0,0.0,-3.54,-3.6167,-3.6988,-3.7398,-3.7291,0.0,0.0,0.0,0.0,0.0,0.0,0.0,0.0,0.0,-4.268,-4.3822,-4.4749,-4.5463,-4.7105,-4.8104,-4.8461,-5.0245,-5.128,-5.1637,-5.2529,-5.3161,-5.3411,-5.2047,-5.0441,-4.8514,-4.5142,-4.2769,-4.1199,0.0,0.0,0.0,0.0,-4.0199,-4.0646,0.0,0.0,0.0,0.0,0.0,0.0,0.0,0.0,0.0,0.0,0.0,0.0,0.0,0.0,0.0,-2.9856,0.0,0.0,0.0,0.0,0.0,0.0,0.0,0.0,0.0,0.0,0.0,0.0,-3.9123,-4.0789,-4.2819,-4.3336,-4.4088,-4.4977,-4.4977,-4.3533,-4.1054,-4.0467,-3.9664,0.0,0.0,0.0,0.0,0.0,0.0,0.0,0.0,0.0,0.0,0.0,0.0,0.0,0.0,0.0,0.0,0.0,0.0,0.0,0.0,0.0,0.0,0.0,0.0,0.0,0.0,0.0,0.0,0.0,0.0,0.0,0.0,0.0,0.0,0.0,0.0,0.0,0.0,-3.6542,-3.7452,-3.7863,-3.8611,-3.8629,0.0,0.0,0.0,0.0,0.0,0.0,-4.4285,-4.4589,-4.5499,-4.7247,-4.8086,-4.8693,-4.9085,-5.0834,-5.1904,-5.2332,-5.4491,-5.5616,-5.5847,-5.6829,-5.7275,-5.7186,-5.5401,-5.4188,-5.3135,-4.8568,-4.5552,-4.3736,-4.2912,-4.2234,-4.1734,-4.1734,-4.2109,-4.2697,0.0,0.0,0.0,0.0,0.0,0.0,0.0,0.0,0.0,0.0,0.0,0.0,0.0,0.0,-3.1148,-3.2154,-3.2269,-3.2377,0.0,0.0,0.0,0.0,0.0,0.0,0.0,0.0,0.0,-3.7339,-4.0995,-4.3276,-4.4239,-4.6143,-4.7756,-4.9008,-4.9008,-4.7278,-4.421,-4.2002,-4.1431,-4.1879,0.0,0.0,0.0,0.0,0.0,0.0,0.0,0.0,0.0,0.0,0.0,0.0,0.0,0.0,0.0,0.0,0.0,0.0,0.0,0.0,0.0,0.0,0.0,0.0,0.0,0.0,0.0,0.0,0.0,0.0,0.0,0.0,0.0,0.0,0.0,0.0,0.0,0.0,0.0,-3.8807,-4.1395,0.0,0.0,0.0,0.0,-4.2076,-4.284,-4.4339,-4.6694,-4.7556,-4.902,-5.1333,-5.2197,-5.3296,-5.4777,-5.4902,-5.5723,-5.7249,-5.6615,-5.674,-5.7463,-5.6757,-5.6454,-5.6436,-5.6329,-5.583,-5.4777,-5.0755,-4.8639,-4.7824,-4.7038,-4.6676,-4.6623,-4.6623,-4.6659,-4.6694,0.0,0.0,0.0,0.0,0.0,0.0,0.0,0.0,0.0,0.0,0.0,0.0,0.0,-2.9885,-3.1489,-3.2917,-3.3819,-3.4046,-3.3458,0.0,0.0,0.0,0.0,0.0,0.0,0.0,-3.7963,-4.1214,-4.2936,-4.4665,-4.6379,-4.7588,-4.868,-4.9654,-5.0063,-4.9914,-4.9076,-4.5609,-4.3411,-4.2183,-4.0824,-3.9968,0.0,0.0,0.0,0.0,0.0,0.0,0.0,0.0,0.0,0.0,0.0,0.0,0.0,0.0,0.0,0.0,0.0,0.0,0.0,0.0,0.0,0.0,0.0,0.0,0.0,0.0,0.0,0.0,0.0,0.0,0.0,0.0,0.0,0.0,0.0,0.0,0.0,-4.2374,-4.3961,0.0,-4.3786,-4.4214,-4.4553,-4.4553,-4.6694,-4.8603,-4.9942,-5.1726,-5.3332,-5.467,-5.5972,-5.6918,-5.7443,-5.7989,-5.8524,-5.9077,-5.8792,-5.8809,-5.9077,-5.8792,-5.8381,-5.7864,-5.7382,-5.6704,-5.583,-5.3903,-5.2047,-5.0323,-4.8996,-4.8193,-4.777,-4.777,-4.777,-4.7841,0.0,0.0,0.0,0.0,0.0,0.0,0.0,0.0,0.0,0.0,0.0,-2.7478,-2.8681,-3.07,-3.2553,-3.3966,-3.4938,-3.5086,-3.4166,0.0,0.0,0.0,0.0,0.0,0.0,-3.7028,-3.9758,-4.3341,-4.4978,-4.664,-4.8327,-4.9507,-5.0474,-5.1242,-5.1667,-5.2025,-5.2102,-4.9359,-4.6819,-4.4517,-4.2929,-4.1945,-4.1393,0.0,0.0,0.0,0.0,0.0,0.0,0.0,0.0,0.0,0.0,0.0,0.0,0.0,0.0,0.0,0.0,0.0,0.0,0.0,0.0,0.0,0.0,0.0,0.0,0.0,0.0,0.0,0.0,0.0,0.0,0.0,0.0,0.0,0.0,0.0,-4.3268,-4.4821,-4.6659,-4.7586,-4.7033,-4.7729,-4.83,-4.8568,-5.0762,-5.2671,-5.3992,-5.5544,-5.6882,-5.7953,-5.872,-5.9227,-5.9494,-5.9791,-6.0058,-6.0308,-6.004,-5.9916,-5.9898,-5.9362,-5.8845,-5.8292,-5.7525,-5.6882,-5.6347,-5.583,-5.4688,-5.3118,-5.1504,-5.0602,-5.0156,-5.0156,-4.9995,-4.9823,0.0,0.0,0.0,0.0,0.0,0.0,0.0,0.0,0.0,0.0,-2.6863,-2.8029,-2.8773,-3.2012,-3.4516,-3.5391,-3.5542,-3.5357,-3.4773,-3.2755,0.0,0.0,0.0,0.0,-3.5673,-3.8846,-4.1421,-4.3339,-4.6998,-4.9177,-4.9976,-5.1944,-5.3245,-5.3975,-5.3975,-5.3635,-5.3063,-5.3016,-5.1612,-4.918,-4.5994,-4.4692,-4.4407,0.0,0.0,0.0,0.0,0.0,0.0,0.0,0.0,0.0,0.0,0.0,0.0,0.0,0.0,0.0,0.0,0.0,0.0,0.0,0.0,0.0,0.0,0.0,0.0,0.0,0.0,0.0,0.0,0.0,0.0,0.0,0.0,0.0,-4.0216,-4.3465,-4.5963,-4.6088,-4.9478,-5.1226,-4.9703,-5.1672,-5.3332,-5.4055,-5.4902,-5.6347,-5.862,-5.8763,-5.9476,-6.1058,-6.038,-6.0362,-6.1129,-6.0362,-6.038,-6.1165,-6.0362,-6.0005,-5.9969,-5.8435,-5.7749,-5.7678,-5.6829,-5.6454,-5.6436,-5.6401,-5.6401,-5.624,-5.467,-5.4037,-5.4037,-5.4037,-5.3581,-5.2822,0.0,0.0,0.0,0.0,0.0,0.0,0.0,0.0,0.0,0.0,-2.7284,-2.8951,-3.0176,-3.3048,-3.5509,-3.7016,-3.6207,-3.562,-3.5637,0.0,0.0,0.0,0.0,0.0,-3.8228,-4.1097,-4.3652,-4.5882,-4.7845,-4.9484,-5.087,-5.1446,-5.2386,-5.3565,-5.3565,-5.4049,-5.4797,-5.4741,-5.3979,-5.2525,-4.8721,-4.6855,-4.607,0.0,0.0,0.0,0.0,0.0,0.0,0.0,0.0,0.0,0.0,0.0,0.0,0.0,0.0,0.0,0.0,0.0,0.0,0.0,0.0,0.0,0.0,0.0,0.0,0.0,0.0,0.0,0.0,0.0,0.0,0.0,0.0,-4.5285,-4.5071,-4.6962,-4.9382,-5.2279,-5.3581,-5.4527,-5.5241,-5.5928,-5.6383,-5.6579,-5.7864,-5.8899,-5.953,-6.013,-6.0647,-6.1093,-6.145,-6.1736,-6.195,-6.1736,-6.2003,-6.2753,-6.2003,-6.1914,-6.2396,-6.1432,-6.0683,-6.0058,-5.8684,-5.7757,-5.7204,-5.6633,-5.6401,-5.6294,-5.5277,-5.4884,-5.4884,-5.4884,-5.4384,-5.3599,0.0,0.0,0.0,0.0,0.0,0.0,0.0,0.0,0.0,0.0,-2.7203,-2.8773,-2.9907,-3.2319,-3.4387,-3.572,-3.4832,-3.4283,-3.4435,0.0,0.0,0.0,0.0,-3.7516,-4.0117,-4.2657,-4.4899,-4.6891,-4.8843,-5.027,-5.1214,-5.2166,-5.3026,-5.383,-5.4121,-5.4409,-5.4658,-5.5519,-5.5091,-5.3658,-5.1192,-4.9536,-4.8285,-4.5891,-4.4392,-4.3465,-4.2662,-4.1752,-4.077,-3.988,0.0,0.0,0.0,0.0,0.0,0.0,0.0,0.0,0.0,0.0,0.0,0.0,0.0,0.0,0.0,0.0,0.0,0.0,0.0,0.0,0.0,0.0,0.0,0.0,-4.6837,-4.9032,-5.0691,-5.1422,-5.2886,-5.5847,-5.6775,-5.7543,-5.847,-5.8863,-5.9059,-5.9059,-5.9898,-6.0415,-6.0415,-6.0843,-6.1093,-6.1093,-6.1878,-6.2289,-6.2289,-6.2592,-6.2967,-6.3377,-6.2949,-6.2806,-6.2895,-6.2146,-6.1361,-6.054,-5.9244,-5.8292,-5.757,-5.7096,-5.6686,-5.6347,0.0,0.0,0.0,0.0,-5.4893,-5.4376,0.0,0.0,0.0,0.0,0.0,0.0,0.0,0.0,0.0,0.0,0.0,-2.798,-2.8709,-3.0635,-3.2206,-3.304,-3.2555,-3.2213,0.0,0.0,0.0,-3.4237,-3.697,-3.9471,-4.1595,-4.3727,-4.5533,-4.7023,-4.975,-5.1217,-5.1485,-5.3396,-5.4424,-5.466,-5.523,-5.4799,-5.3754,-5.5699,-5.532,-5.3381,-5.3214,-5.2257,-5.0697,-4.8121,-4.7148,-4.6998,-4.6016,-4.4375,-4.2665,-4.2397,0.0,0.0,0.0,0.0,0.0,0.0,0.0,0.0,0.0,0.0,0.0,0.0,0.0,0.0,0.0,0.0,0.0,0.0,0.0,0.0,0.0,0.0,0.0,0.0,-5.0298,-5.2761,-5.6525,-5.6525,-5.6597,-5.7828,-5.9202,-6.0112,-6.029,-6.079,-6.1147,-6.1218,-6.1147,-6.1093,-6.1093,0.0,0.0,0.0,0.0,-6.2449,-6.2556,-6.3199,-6.3573,-6.3663,-6.3573,-6.3181,-6.2521,-6.1825,-6.1004,-6.013,-5.9316,-5.8506,-5.7731,-5.7642,-5.7114,-5.6401,-5.6401,-5.6401,-5.6311,-5.5598,-5.5294,-5.5116,0.0,0.0,0.0,0.0,0.0,0.0,0.0,0.0,0.0,-2.5502,-2.6827,-2.798,-2.8709,-3.0198,-3.1679,-3.3152,-3.2069,-3.1645,0.0,0.0,-3.4605,-3.7226,-3.904,-4.0978,-4.3118,-4.4754,-4.6295,-4.7785,-4.9526,-5.1296,-5.2959,-5.3391,-5.4537,-5.6161,-5.5704,-5.5346,-5.5142,-5.6102,-5.532,-5.3431,-5.3818,-5.3397,-5.2222,-4.9214,-4.8017,-4.7699,-4.5588,-4.4963,-4.4839,-4.295,-4.2822,-4.3247,-4.2019,0.0,0.0,0.0,0.0,0.0,0.0,0.0,0.0,0.0,0.0,0.0,0.0,0.0,0.0,0.0,0.0,0.0,0.0,0.0,0.0,-5.2307,-5.525,-5.805,-6.0772,-6.1521,-6.1468,-6.0522,-6.0683,-6.1361,-6.2592,-6.1736,-6.1361,-6.2003,-6.1468,-6.1093,-6.1093,-6.1093,-6.1397,-6.2039,-6.2788,-6.3502,-6.4162,-6.4305,-6.4697,-6.5322,-6.468,0.0,-6.4162,-6.4002,-6.3163,-6.1789,-6.0986,-5.9826,-5.8424,-5.7846,-5.7114,-5.6401,-5.6401,-5.6401,-5.6383,-5.6222,-5.5758,-5.5187,0.0,0.0,0.0,0.0,0.0,0.0,0.0,0.0,0.0,0.0,-2.6385,-2.7332,-2.7705,-2.8692,-2.9621,-3.0417,-3.0223,0.0,0.0,-3.3379,-3.5794,-3.8477,-4.0717,-4.2791,-4.4671,-4.5781,-4.6891,-4.8001,-4.9491,-5.074,-5.1815,-5.2917,-5.3964,-5.5027,-5.5412,-5.5361,-5.5082,-5.6116,-5.5332,-5.3477,-5.4097,-5.4081,-5.3495,-5.1434,-5.0602,-5.0341,-4.8728,-4.7408,-4.6212,-4.5035,-4.4624,-4.4389,-4.3268,-4.2358,-4.1446,0.0,0.0,0.0,0.0,0.0,0.0,0.0,0.0,0.0,0.0,0.0,0.0,0.0,0.0,-4.5606,0.0,0.0,-5.2682,-5.5838,-5.8335,-6.0594,-6.2556,-6.3502,-6.3573,-6.2378,-6.2253,-6.2396,-6.2788,-6.2146,-6.17,-6.17,-6.1325,-6.1093,-6.1093,-6.1468,-6.1878,-6.2301,-6.3413,-6.4198,-6.4608,-6.5019,-6.5411,-6.5786,-6.4983,-6.4394,-6.3984,-6.3627,-6.2806,-6.1646,-6.0861,-5.9826,-5.8602,-5.7471,-5.6757,-5.6401,-5.6401,-5.6401,-5.6401,-5.6401,-5.6151,-5.5794,0.0,0.0,0.0,0.0,0.0,0.0,0.0,0.0,0.0,0.0,-2.5758,-2.6396,-2.649,-2.6976,-2.7348,0.0,0.0,0.0,0.0,-3.3932,-3.6875,-3.9309,-4.2074,-4.4257,-4.5765,-4.6478,-4.7223,-4.8001,-4.9342,-5.0137,-5.0469,-5.2473,-5.3566,-5.3914,-5.5239,-5.5383,-5.4796,-5.5914,-5.5219,-5.3437,-5.4053,-5.4428,-5.4488,-5.345,-5.3062,-5.2921,-5.1512,-4.9281,-4.6962,-4.6819,-4.5802,-4.4549,-4.4264,-4.3982,-4.3265,-4.1038,-4.061,0.0,0.0,0.0,0.0,0.0,0.0,0.0,0.0,0.0,-4.4143,-4.5873,-4.7479,-4.921,-5.128,-5.3564,-5.6123,-5.912,-6.0843,-6.2217,-6.3448,-6.4198,-6.4305,-6.3484,-6.3395,-6.3216,-6.2788,-6.2324,-6.186,-6.1361,-6.1182,-6.1093,-6.1093,-6.186,-6.236,-6.2503,-6.3877,-6.4697,-6.484,-6.5482,-6.5804,-6.5786,-6.4983,-6.418,-6.3359,-6.2628,-6.1771,-6.0808,-5.9862,-5.9095,-5.8399,-5.6972,-5.6401,-5.6401,-5.6401,-5.6401,-5.6401,-5.6401,-5.6401,-5.6401,0.0,0.0,0.0,0.0,0.0,0.0,0.0,0.0,0.0,0.0,0.0,0.0,0.0,0.0,0.0,0.0,0.0,0.0,-3.276,-3.5132,-3.7752,-4.0819,-4.2988,-4.4644,-4.5781,-4.6334,-4.7077,-4.8001,-4.8829,-4.9889,-5.1216,-5.2705,-5.4113,-5.5367,-5.6216,-5.6183,-5.5492,-5.5578,-5.4749,-5.3423,-5.3481,-5.4273,-5.5216,-5.3746,-5.3468,-5.3395,-4.9852,-4.7913,-4.6873,-4.6177,-4.5356,-4.4835,-4.6177,-4.5624,-4.4139,-4.2501,0.0,-3.9682,-3.8041,-3.7666,-3.838,-4.1112,-4.1431,-4.2537,0.0,0.0,-4.9174,-5.1476,-5.3189,-5.4581,-5.5562,-5.7667,-6.004,-6.2485,-6.3627,-6.4287,-6.4448,-6.4555,-6.4305,-6.3484,-6.3395,-6.3645,-6.4287,-6.2467,-6.1486,-6.211,-6.1504,-6.1093,-6.1093,-6.186,-6.2592,-6.3252,-6.4144,-6.4947,-6.5661,-6.5768,-6.5804,-6.5786,-6.4983,-6.418,-6.3359,-6.2628,-6.1468,-5.9969,-5.8488,-5.782,-5.7632,-5.6757,-5.6401,-5.6401,-5.6401,-5.6401,-5.6401,-5.6401,-5.6401,-5.6401,0.0,0.0,0.0,0.0,0.0,0.0,0.0,0.0,0.0,0.0,0.0,0.0,0.0,0.0,0.0,0.0,0.0,0.0,-3.2342,-3.4964,-3.7742,-4.084,-4.2972,-4.4389,-4.5045,-4.6121,-4.6896,-4.7355,-4.8531,-4.9573,-5.0529,-5.2089,-5.3331,-5.4262,-5.5516,-5.5901,-5.5603,-5.5555,-5.4968,-5.3997,-5.3559,-5.3704,-5.3928,-5.192,-5.1214,-5.0987,-4.8925,-4.6824,0.0,0.0,-4.3857,-4.4068,-4.4749,-4.4803,-4.421,-4.218,-4.1448,0.0,-3.9932,-4.0324,0.0,0.0,-4.5124,-4.7515,-5.1066,-5.2332,-5.3296,-5.5223,-5.6865,-5.8042,-5.8381,-6.0005,-6.1611,0.0,-6.3805,-6.4448,-6.3966,-6.4305,-6.3984,-6.2253,-6.2057,-6.2378,-6.3181,-6.236,-6.1736,-6.1611,-6.1718,-6.1789,-6.1789,-6.2967,-6.3573,-6.3395,-6.4626,-6.5251,-6.5108,-6.5572,-6.5804,-6.5786,-6.4501,-6.3716,-6.3341,-6.2146,-6.0719,-5.9155,-5.8524,-5.7739,-5.6865,-5.6543,-5.6401,-5.6401,-5.6401,-5.6401,-5.6401,-5.6401,-5.6401,-5.6401,0.0,0.0,0.0,0.0,0.0,0.0,0.0,0.0,0.0,0.0,0.0,0.0,0.0,0.0,0.0,0.0,0.0,0.0,0.0,-3.3939,-3.6772,-3.9789,-4.2103,-4.3611,-4.4118,-4.5714,-4.6618,-4.6763,-4.8283,-4.934,-4.9944,-5.1553,-5.2547,-5.3036,-5.4564,-5.513,-5.497,-5.4825,-5.4427,-5.3848,-5.2904,-5.232,-5.1788,-4.9583,-4.8135,-4.7263,-4.6751,-4.4821,0.0,0.0,-4.1573,-4.2002,-4.2644,-4.3033,-4.2998,-4.1538,-4.1199,-4.1288,-4.1145,0.0,0.0,-4.5477,-4.8568,-5.169,-5.3732,-5.5223,-5.6633,-5.8221,-5.9452,-6.0237,-6.0237,-6.1361,-6.2289,-6.2289,-6.3413,-6.4002,-6.3199,-6.3216,-6.261,-6.0683,-6.0058,-6.0201,-6.12,-6.1504,-6.1486,-6.1129,-6.1843,-6.2289,-6.2289,-6.3555,-6.4109,-6.3734,-6.4858,-6.5304,-6.4947,-6.5518,-6.5697,-6.5447,-6.4055,-6.3288,-6.3038,-6.1254,-5.9701,-5.8399,-5.8157,-5.7435,-5.6401,-5.6401,-5.6401,-5.6401,-5.6401,-5.6401,-5.6401,-5.6401,-5.6401,-5.6401,0.0,0.0,0.0,0.0,0.0,0.0,0.0,0.0,0.0,0.0,0.0,0.0,0.0,0.0,0.0,0.0,0.0,0.0,0.0,-3.2003,-3.4533,-3.7568,-4.0258,-4.2154,-4.3225,-4.5114,-4.6208,-4.6422,-4.8033,-4.9187,-4.9928,-5.1411,-5.2211,-5.2473,-5.3713,-5.3944,-5.3434,-5.2771,-5.2473,-5.2324,-5.0883,-4.9841,-4.8917,-4.7016,-4.4656,-4.2334,-4.2441,0.0,0.0,0.0,-3.8397,-3.8184,-4.0467,-4.0663,0.0,-4.0895,-4.0057,0.0,0.0,0.0,-4.4407,-4.8205,-5.1012,-5.3643,-5.6767,-5.806,-5.9048,-6.0665,-6.1022,-6.1058,-6.1058,-6.1736,-6.2289,-6.2289,-6.2931,-6.3163,-6.2431,-6.1004,-5.9737,-5.887,-5.7453,-5.715,0.0,-5.9494,-6.029,-6.104,-6.1843,-6.2289,-6.2289,-6.3002,-6.377,-6.4555,-6.4626,-6.5019,-6.5768,-6.5786,-6.5411,-6.4644,-6.3805,-6.302,-6.2235,-5.9862,-5.8363,-5.7606,-5.6793,-5.6436,-5.6401,-5.6401,-5.6401,-5.6401,-5.6401,-5.6401,-5.6401,-5.6401,-5.6401,-5.6401,0.0,0.0,0.0,0.0,0.0,0.0,0.0,0.0,0.0,0.0,0.0,0.0,0.0,0.0,0.0,0.0,0.0,0.0,0.0,-3.117,-3.3234,-3.5182,-3.7966,-3.9917,-4.0867,-4.2898,-4.4298,-4.4931,-4.5962,-4.6782,-4.7403,-4.8163,-4.8758,-4.9184,-5.0312,-5.0714,-5.0535,-5.0303,-5.0204,-5.0038,-4.8067,-4.725,-4.6907,-4.4284,-4.2189,-4.0442,0.0,0.0,0.0,0.0,-3.5828,-3.6238,-3.7559,-3.7809,0.0,-3.9182,-3.9932,-4.102,0.0,0.0,-4.9103,-5.3028,-5.5401,-5.7453,-6.0094,-6.0897,-6.1093,-6.1093,-5.9844,-5.8435,-5.7382,-5.6972,-5.715,-5.8203,-5.9898,-6.1182,-6.145,-6.1504,-6.0415,-5.7525,-5.7186,0.0,0.0,0.0,0.0,-6.0968,-6.1843,-6.2503,-6.2985,-6.377,-6.4323,-6.4577,-6.4608,-6.4733,-6.5019,-6.5019,-6.4876,-6.459,-6.3288,-6.2253,-6.145,-6.0112,-5.9048,-5.8292,-5.7525,-5.6882,-5.6401,-5.6401,-5.6401,-5.6401,-5.6401,-5.6401,-5.6401,-5.6401,-5.6401,-5.6401,0.0,0.0,0.0,0.0,0.0,0.0,0.0,0.0,0.0,0.0,0.0,0.0,0.0,0.0,0.0,0.0,0.0,0.0,0.0,0.0,-3.1105,-3.2554,-3.4862,-3.6502,-3.7308,-3.9194,-4.044,-4.0968,-4.2316,-4.3119,-4.3468,-4.452,-4.5091,-4.5337,-4.6468,-4.6862,-4.6725,-4.6477,-4.651,-4.656,-4.4357,-4.3444,-4.3119,-4.0529,-3.8629,0.0,0.0,0.0,0.0,-3.3662,-3.399,-3.4561,-3.5632,-3.6738,-3.7844,-3.8897,-4.0895,-4.3572,0.0,-5.0388,-5.335,-5.6454,-5.8631,-6.0326,-6.1575,-6.1646,-6.1129,-6.0058,-5.8185,-5.6169,-5.4295,-5.3528,-5.3528,-5.4545,-5.6454,-5.8274,-5.9648,-5.9791,-5.9131,-5.7418,-5.6936,-5.6865,0.0,0.0,0.0,-6.0915,-6.2075,-6.2895,-6.3359,-6.3895,-6.4448,-6.5019,-6.4483,-6.4448,-6.5036,-6.4751,-6.4341,-6.377,-6.2485,-6.1289,-6.0237,-5.9719,-5.887,-5.7864,-5.7382,-5.6865,-5.6401,-5.6401,-5.6401,-5.6401,-5.6401,-5.6401,-5.6401,-5.6401,-5.6401,-5.6401,0.0,0.0,0.0,0.0,0.0,0.0,0.0,0.0,0.0,0.0,0.0,0.0,0.0,0.0,0.0,0.0,0.0,0.0,0.0,0.0,0.0,-2.967,-3.1121,-3.2238,-3.2967,-3.4385,-3.5114,-3.5146,-3.7378,-3.8455,-3.8504,-4.0547,-4.1298,-4.1012,-4.2154,-4.2489,-4.2109,-4.1413,-4.1513,-4.1976,-3.9879,-3.8619,-3.7825,-3.6028,0.0,0.0,0.0,0.0,0.0,0.0,0.0,0.0,0.0,0.0,-3.993,-4.0091,-4.2912,-4.6694,-4.9924,-5.3599,-5.69,-5.8478,-6.0576,-6.2003,-6.1165,-6.0326,-5.9273,-5.7685,-5.5972,-5.4081,0.0,0.0,-5.144,-5.1547,-5.2975,-5.4937,-5.7364,-5.6436,-5.6311,0.0,0.0,0.0,0.0,0.0,0.0,-6.0986,0.0,-6.3377,-6.3448,-6.3448,-6.4162,-6.5697,-6.4251,-6.418,-6.5732,-6.4947,-6.377,-6.2217,-6.145,-6.029,-5.8763,-5.8709,-5.7871,-5.6454,-5.6418,-5.6401,-5.6401,-5.6401,-5.6401,-5.6401,-5.6401,-5.6401,-5.6401,-5.6401,-5.6401,-5.6401,0.0,0.0,0.0,0.0,0.0,0.0,0.0,0.0,0.0,0.0,0.0,0.0,0.0,0.0,0.0,0.0,0.0,0.0,0.0,0.0,0.0,0.0,0.0,0.0,0.0,0.0,0.0,0.0,0.0,-3.5263,-3.5279,-3.6003,-3.6244,-3.6184,-3.6587,-3.7044,-3.7487,-3.7305,-3.739,-3.7516,0.0,-3.5318,-3.5273,0.0,0.0,0.0,0.0,0.0,0.0,0.0,0.0,0.0,0.0,0.0,-4.0358,-4.2712,0.0,-4.9347,-5.3706,-5.6472,-5.8649,-6.0826,-6.1379,-6.104,-5.9619,-5.8274,-5.6686,-5.4554,-5.1422,-4.8532,0.0,0.0,0.0,-4.9614,-5.2725,0.0,-5.8899,-5.9487,0.0,0.0,0.0,-5.872,-5.8692,-5.9612,0.0,0.0,-6.2342,-6.3074,-6.4234,-6.4305,-6.4483,-6.4894,-6.4519,-6.4501,-6.4912,-6.4109,-6.2931,-6.1397,-6.12,-6.0576,-5.9577,-5.8959,-5.8203,-5.7239,-5.665,-5.6401,-5.6401,-5.6401,-5.6401,-5.6401,-5.6401,-5.6401,-5.6401,-5.6401,-5.6401,-5.6401,0.0,0.0,0.0,0.0,0.0,0.0,0.0,0.0,0.0,0.0,0.0,0.0,0.0,0.0,0.0,0.0,0.0,0.0,0.0,0.0,0.0,0.0,0.0,0.0,0.0,0.0,0.0,0.0,0.0,0.0,0.0,-3.1739,-3.1971,-3.2056,-3.2482,-3.2958,-3.3419,-3.3112,0.0,0.0,0.0,0.0,0.0,0.0,0.0,0.0,0.0,0.0,0.0,0.0,0.0,-3.7041,-3.8522,-4.0842,-4.3643,-4.6801,0.0,-5.3225,-5.6936,-5.9594,-6.1438,-6.2128,-6.17,-6.0415,-5.7764,-5.5705,-5.3457,-5.0405,-4.7729,0.0,0.0,0.0,0.0,0.0,0.0,0.0,-5.7346,-5.8542,-5.922,0.0,-6.0165,0.0,-6.029,-6.1397,-6.2431,0.0,-6.3306,-6.3698,-6.4573,-6.4608,-6.4769,-6.5126,-6.4448,-6.393,-6.3591,-6.3448,-6.2628,-6.1093,-6.1093,-6.0504,-5.9351,-5.8906,-5.8113,-5.7043,-5.6597,-5.6401,-5.6401,-5.6401,-5.6401,-5.6401,-5.6401,-5.6401,-5.6401,-5.6401,-5.6401,-5.6373,0.0,0.0,0.0,0.0,0.0,0.0,0.0,0.0,0.0,0.0,0.0,0.0,0.0,0.0,0.0,0.0,0.0,0.0,0.0,0.0,0.0,0.0,0.0,0.0,0.0,0.0,0.0,0.0,0.0,0.0,0.0,0.0,0.0,0.0,0.0,0.0,0.0,0.0,0.0,0.0,0.0,0.0,0.0,0.0,0.0,0.0,0.0,0.0,0.0,0.0,-3.8433,-3.97,-4.2144,-4.5021,-4.8068,-5.1226,-5.4242,-5.7079,-5.9559,-6.2217,-6.4002,-6.2753,-6.1521,-5.963,-5.5776,-5.2903,-4.9977,-4.6123,0.0,0.0,-4.1324,0.0,-4.3697,-4.4745,0.0,-5.0827,-5.4813,-5.6133,-5.7757,-6.0594,-6.1129,-6.1486,-6.2075,-6.2985,-6.3805,-6.4412,-6.4644,-6.4769,-6.4769,-6.4769,-6.5036,-6.5625,-6.4091,-6.2931,-6.2319,-6.2913,-6.2521,-6.1093,-6.1093,-6.0272,-5.8692,-5.8692,-5.7853,-5.6401,-5.6401,-5.6401,-5.6401,-5.6401,-5.6401,-5.6401,-5.6401,-5.6401,-5.6401,-5.63,-5.6273,-5.6172,0.0,0.0,0.0,0.0,0.0,0.0,0.0,0.0,0.0,0.0,0.0,0.0,0.0,0.0,0.0,0.0,0.0,0.0,0.0,0.0,0.0,0.0,0.0,0.0,0.0,0.0,0.0,0.0,0.0,0.0,0.0,0.0,0.0,0.0,0.0,0.0,0.0,0.0,0.0,0.0,0.0,0.0,0.0,0.0,0.0,0.0,0.0,0.0,0.0,0.0,-3.9968,-4.2216,-4.5253,-4.789,-5.0513,-5.3671,-5.5919,-5.8042,-6.1058,-6.2271,-6.277,-6.3109,-6.0683,-5.7356,-5.4045,-5.0441,0.0,0.0,0.0,-4.059,-4.018,-4.1413,0.0,-4.6141,0.0,0.0,0.0,0.0,-5.8745,0.0,0.0,0.0,0.0,0.0,0.0,0.0,0.0,-6.559,-6.559,-6.559,-6.5358,-6.4822,-6.3288,-6.2414,-6.2289,-6.2414,-6.2003,-6.1093,-6.1093,-6.0272,-5.8692,-5.8692,-5.7853,-5.6401,-5.6401,-5.6401,-5.6401,-5.6401,-5.6401,-5.6401,-5.6401,-5.6401,-5.6328,-5.5769,-5.5578,-5.549,0.0,0.0,0.0,0.0,0.0,0.0,0.0,0.0,0.0,0.0,-2.2781,0.0,0.0,0.0,0.0,0.0,0.0,0.0,0.0,0.0,0.0,0.0,0.0,0.0,0.0,0.0,0.0,0.0,0.0,0.0,0.0,0.0,0.0,0.0,0.0,0.0,0.0,0.0,0.0,0.0,0.0,0.0,0.0,0.0,0.0,0.0,0.0,0.0,0.0,0.0,-4.0003,-4.3004,-4.6944,-4.9834,-5.2279,-5.5027,-5.7239,-5.9309,-6.1646,-6.2877,-6.3395,-6.2931,-5.9559,-5.5312,-5.1376,0.0,0.0,0.0,0.0,-3.9199,-3.879,0.0,0.0,0.0,0.0,0.0,0.0,0.0,0.0,0.0,0.0,0.0,0.0,0.0,0.0,0.0,0.0,-6.5179,-6.5179,-6.4787,-6.4358,-6.3984,-6.3252,-6.2485,-6.1664,-6.2075,-6.1896,-6.1093,-6.1093,-6.0272,-5.8692,-5.8692,-5.7853,-5.6401,-5.6401,-5.6401,-5.6401,-5.6401,-5.6401,-5.6401,-5.6401,-5.6189,-5.5826,-5.5519,-5.5177,-5.4795,0.0,0.0,0.0,0.0,0.0,0.0,0.0,-2.2186,-2.2298,-2.2518,-2.2675,-2.2795,-2.2857,-2.2902,0.0,0.0,0.0,0.0,0.0,0.0,0.0,0.0,0.0,0.0,0.0,0.0,0.0,0.0,0.0,0.0,0.0,0.0,0.0,0.0,0.0,0.0,0.0,0.0,0.0,0.0,0.0,0.0,0.0,0.0,0.0,0.0,0.0,0.0,0.0,0.0,-3.9112,-4.2022,-4.623,-4.9763,-5.2761,-5.4795,-5.7293,-5.9755,-6.1343,-6.2913,-6.377,-6.2378,-5.8345,-5.3564,-4.9174,-4.5021,0.0,0.0,0.0,0.0,0.0,0.0,0.0,0.0,0.0,0.0,0.0,0.0,0.0,0.0,0.0,0.0,0.0,0.0,0.0,0.0,0.0,-6.4198,-6.4341,-6.3734,-6.3324,-6.3163,-6.2985,-6.2324,-6.1111,-6.1718,-6.1628,-6.0843,-6.0843,-6.0023,-5.8442,-5.8442,-5.7619,-5.6189,-5.6189,-5.6189,-5.6189,-5.6189,-5.6189,-5.6189,-5.6189,-5.5769,-5.5177,-5.5009,-5.4641,-5.4072,0.0,0.0,0.0,0.0,0.0,0.0,0.0,-2.1504,-2.1784,-2.2346,-2.2546,-2.2675,-2.2795,-2.2857,0.0,0.0,0.0,0.0,0.0,0.0,0.0,0.0,0.0,0.0,0.0,0.0,0.0,0.0,0.0,0.0,0.0,0.0,0.0,0.0,0.0,0.0,0.0,0.0,0.0,0.0,0.0,0.0,0.0,0.0,0.0,0.0,0.0,0.0,0.0,0.0,0.0,-3.8487,-4.1056,-4.5927,-5.0905,-5.1851,0.0,0.0,-5.9701,-6.1289,-6.2289,-6.1432,-5.7114,-5.2243,-4.896,0.0,0.0,0.0,-3.7666,-3.7898,0.0,0.0,0.0,0.0,0.0,0.0,0.0,0.0,0.0,0.0,0.0,0.0,0.0,0.0,0.0,0.0,0.0,-6.2788,-6.3466,-6.3431,-6.3074,-6.2414,-6.1682,-6.1236,-6.1093,-6.1165,-6.0808,-6.0023,-6.0023,-5.9202,-5.7685,-5.7685,-5.6887,-5.549,-5.549,-5.549,-5.549,-5.549,-5.549,-5.549,-5.549,-5.5069,-5.4422,-5.3797,-5.3533,-5.3399,0.0,0.0,0.0,0.0,0.0,0.0,0.0,-2.1352,-2.16,-2.2193,-2.2394,-2.25,-2.2546,-2.2735,0.0,0.0,0.0,0.0,0.0,0.0,0.0,0.0,0.0,0.0,0.0,0.0,0.0,0.0,0.0,0.0,0.0,0.0,0.0,0.0,0.0,0.0,0.0,0.0,0.0,0.0,0.0,0.0,0.0,0.0,0.0,0.0,0.0,0.0,0.0,0.0,0.0,0.0,-3.6738,-3.9914,0.0,0.0,-5.1315,-5.4688,-5.7685,-5.9666,-6.0665,-5.9862,-5.5526,-5.0637,-4.7479,0.0,0.0,-3.7988,-3.7595,-3.7702,-3.8005,0.0,0.0,0.0,0.0,0.0,0.0,0.0,0.0,0.0,0.0,0.0,0.0,0.0,0.0,0.0,0.0,-6.2199,-6.2021,-6.2021,-6.2092,-6.2271,-6.1504,-6.1093,-6.1093,-6.0629,-6.0219,-5.9898,-5.9405,-5.8394,-5.7011,-5.7011,-5.6199,-5.4795,-5.4795,-5.4795,-5.4795,-5.4795,-5.4795,-5.4795,-5.4795,-5.4391,-5.3764,-5.3516,-5.3128,-5.2764,0.0,0.0,0.0,0.0,0.0,0.0,-2.0653,-2.0914,-2.1251,-2.1856,-2.2018,-2.2195,-2.2426,-2.2495,-2.2624,-2.2888,0.0,0.0,0.0,0.0,0.0,0.0,0.0,0.0,0.0,0.0,0.0,0.0,0.0,0.0,0.0,0.0,0.0,0.0,0.0,0.0,0.0,0.0,0.0,0.0,0.0,0.0,0.0,0.0,0.0,0.0,0.0,0.0,0.0,0.0,0.0,0.0,0.0,0.0,0.0,0.0,-4.7461,-5.1066,-5.4545,-5.6972,-5.8328,-5.7497,-5.3546,-4.9049,0.0,0.0,0.0,-3.788,-3.7595,-3.7595,-3.7595,0.0,0.0,0.0,0.0,0.0,0.0,0.0,0.0,0.0,0.0,0.0,0.0,0.0,0.0,0.0,0.0,-6.17,-6.1129,-6.1093,-6.1361,-6.1914,-6.1397,-6.0986,-6.0754,-6.0183,-5.9684,-5.922,-5.843,-5.7429,-5.6239,-5.6059,-5.5268,-5.4104,-5.4104,-5.4104,-5.4104,-5.4104,-5.4104,-5.4104,-5.4104,-5.3698,-5.3094,-5.3094,-5.2764,-5.2318,0.0,0.0,0.0,0.0,0.0,0.0,0.0,-1.9971,-2.0646,-2.1223,-2.136,-2.1713,-2.2521,-2.2124,-2.2097,-2.2844,0.0,0.0,0.0,0.0,0.0,0.0,0.0,0.0,0.0,0.0,0.0,-2.5597,-2.5597,0.0,0.0,0.0,0.0,0.0,0.0,0.0,0.0,0.0,0.0,0.0,0.0,0.0,0.0,0.0,0.0,0.0,0.0,0.0,0.0,0.0,0.0,0.0,0.0,0.0,0.0,0.0,-4.334,-4.7551,-4.9942,-5.2868,-5.5062,-5.4251,-5.1119,-4.7592,0.0,0.0,0.0,0.0,-3.7595,-3.7595,-3.7595,0.0,0.0,0.0,0.0,0.0,0.0,0.0,0.0,0.0,0.0,0.0,0.0,0.0,0.0,0.0,-6.1111,0.0,-6.1093,-6.1093,-6.1093,-6.1111,-6.1093,-6.0719,-5.9933,-5.9916,-5.9131,-5.7614,-5.6952,-5.6187,-5.5402,-5.472,-5.4057,-5.3416,-5.3416,-5.3416,-5.3416,-5.3416,-5.3416,-5.3416,-5.3416,-5.3008,-5.2409,-5.2409,-5.2283,-5.2102,0.0,0.0,0.0,0.0,0.0,0.0,0.0,-1.9578,-1.9985,-2.0662,-2.0769,-2.0919,-2.1269,-2.1607,-2.1888,-2.2134,0.0,0.0,0.0,0.0,0.0,0.0,0.0,0.0,0.0,0.0,-2.5597,-2.5597,-2.5597,-2.5619,-2.568,-2.5752,0.0,0.0,0.0,0.0,0.0,0.0,0.0,0.0,0.0,0.0,0.0,0.0,0.0,0.0,0.0,0.0,0.0,0.0,0.0,0.0,0.0,0.0,0.0,0.0,0.0,0.0,-4.5673,-4.7997,-4.9531,-4.9281,-4.7087,-4.45,-4.2626,0.0,0.0,0.0,0.0,0.0,0.0,0.0,0.0,0.0,0.0,0.0,0.0,0.0,0.0,0.0,0.0,0.0,0.0,0.0,0.0,0.0,-6.1093,-6.1093,-6.1093,-6.0576,-6.054,-6.1075,-6.0576,-6.0165,-5.9916,-5.8385,-5.74,-5.6905,-5.5667,-5.471,-5.4025,-5.383,-5.3349,-5.2729,-5.2729,-5.2729,-5.2694,-5.2553,-5.2518,-5.2483,-5.2359,-5.2197,-5.2013,-5.2013,-5.1941,-5.1904,0.0,0.0,0.0,0.0,0.0,0.0,0.0,-1.9256,-1.9571,-2.0013,-2.0139,-2.0343,-2.0669,-2.0967,-2.134,-2.1838,0.0,0.0,0.0,0.0,0.0,0.0,0.0,0.0,0.0,-2.5322,-2.56,-2.5656,-2.56,-2.5656,-2.5791,-2.5809,-2.5899,-2.5992,0.0,0.0,0.0,0.0,0.0,0.0,0.0,0.0,-2.9894,0.0,0.0,0.0,0.0,0.0,0.0,0.0,0.0,0.0,0.0,0.0,0.0,0.0,-3.5578,0.0,0.0,-4.3786,-4.5213,-4.5213,-4.3893,0.0,0.0,0.0,0.0,0.0,0.0,0.0,0.0,0.0,0.0,0.0,0.0,0.0,0.0,0.0,0.0,0.0,0.0,0.0,0.0,0.0,0.0,0.0,-6.0511,-6.0386,-5.9857,-5.9331,-5.9295,-5.9792,-5.9331,-5.8786,-5.8257,-5.6878,-5.6034,-5.5772,-5.4583,-5.3797,-5.3382,-5.3076,-5.2694,-5.2266,-5.2194,-5.2158,0.0,-5.205,-5.1977,-5.1977,-5.1851,-5.1778,-5.1778,-5.1778,-5.1778,-5.1831,0.0,0.0,0.0,0.0,0.0,0.0,0.0,0.0,0.0,0.0,-1.9529,-1.9884,-2.0519,-2.0301,0.0,0.0,0.0,0.0,0.0,0.0,0.0,0.0,0.0,0.0,0.0,-2.5079,-2.5508,-2.5619,-2.5556,-2.5663,-2.5897,-2.5791,-2.583,-2.6026,-2.6026,0.0,0.0,0.0,0.0,0.0,0.0,0.0,0.0,0.0,0.0,0.0,0.0,0.0,0.0,0.0,0.0,0.0,0.0,0.0,0.0,0.0,0.0,0.0,0.0,0.0,0.0,0.0,0.0,0.0,0.0,0.0,0.0,0.0,0.0,0.0,0.0,0.0,0.0,0.0,0.0,0.0,0.0,0.0,0.0,0.0,0.0,0.0,0.0,0.0,0.0,-5.8866,-5.9359,-5.907,-5.7689,-5.7553,-5.7535,-5.7456,-5.7421,-5.6805,-5.5524,-5.5408,-5.5014,-5.4328,-5.3632,-5.3332,-5.3298,-5.2464,-5.2102,0.0,-5.1904,-5.1778,-5.1778,-5.1778,-5.1778,-5.1778,-5.1741,-5.1741,-5.1741,-5.1741,-5.1741,-5.1741,0.0,0.0,0.0,0.0,0.0,0.0,0.0,0.0,0.0,0.0,0.0,-1.9108,-1.9372,-1.9821,0.0,0.0,0.0,0.0,0.0,0.0,0.0,0.0,0.0,0.0,0.0,-2.3726,-2.4241,-2.4778,-2.4865,-2.5248,-2.5897,-2.5936,-2.6008,-2.615,-2.615,0.0,0.0,0.0,0.0,0.0,0.0,0.0,0.0,0.0,0.0,0.0,-3.2686,-3.29,0.0,0.0,0.0,0.0,0.0,0.0,0.0,0.0,-3.3025,-3.3489,-3.4847,0.0,-3.7791,-3.7791,0.0,0.0,0.0,0.0,0.0,0.0,0.0,0.0,0.0,0.0,0.0,0.0,0.0,0.0,0.0,0.0,0.0,0.0,0.0,0.0,0.0,0.0,0.0,-5.7965,-5.765,-5.7295,-5.6943,-5.6354,-5.58,-5.5261,-5.4698,-5.4792,-5.5576,-5.4457,-5.3802,-5.3649,-5.2956,-5.257,-5.2393,-5.2194,-5.203,-5.1868,-5.1815,-5.1778,-5.1778,-5.1647,-5.1573,-5.1573,-5.1408,-5.1333,-5.1333,-5.1333,-5.1333,-5.1371,0.0,0.0,0.0,0.0,0.0,0.0,0.0,0.0,0.0,0.0,0.0,0.0,0.0,0.0,0.0,0.0,0.0,0.0,0.0,0.0,0.0,0.0,0.0,0.0,-2.2617,-2.3503,-2.4162,-2.4605,-2.4966,-2.5433,-2.5954,-2.5974,-2.6063,-2.6202,-2.6202,0.0,0.0,0.0,0.0,0.0,-2.7837,0.0,0.0,0.0,0.0,0.0,-3.2739,-3.29,0.0,-3.29,-3.29,-3.29,0.0,0.0,0.0,0.0,-3.3168,-3.3544,-3.399,-3.4972,-3.5935,-3.631,-3.6988,-3.7595,0.0,0.0,0.0,0.0,0.0,0.0,0.0,0.0,0.0,0.0,0.0,0.0,0.0,0.0,0.0,0.0,0.0,0.0,0.0,0.0,-5.6163,-5.6228,-5.6195,-5.5862,-5.5207,-5.478,-5.436,-5.4025,-5.3227,-5.3227,-5.411,-5.3347,-5.287,-5.2817,-5.2428,-5.2175,-5.1941,-5.1523,-5.1447,-5.1631,-5.1214,-5.121,-5.152,-5.1424,-5.135,-5.135,-5.1221,-5.1183,-5.1183,-5.1183,-5.1258,-5.135,0.0,0.0,0.0,0.0,0.0,0.0,0.0,0.0,0.0,0.0,0.0,0.0,0.0,0.0,0.0,0.0,0.0,0.0,0.0,0.0,0.0,0.0,0.0,-2.2929,-2.241,-2.356,-2.4342,-2.4692,-2.5279,-2.5762,-2.6157,-2.6076,-2.6097,-2.6202,-2.6202,-2.6202,0.0,0.0,0.0,0.0,-2.7415,0.0,0.0,0.0,0.0,0.0,0.0,0.0,0.0,-3.29,-3.29,-3.29,-3.29,0.0,0.0,0.0,0.0,0.0,-3.4188,-3.4811,-3.556,-3.6238,-3.6988,-3.7595,0.0,0.0,0.0,0.0,0.0,0.0,0.0,0.0,0.0,0.0,0.0,0.0,0.0,0.0,0.0,0.0,0.0,0.0,0.0,-5.5058,-5.4849,-5.4381,-5.475,-5.4477,-5.3264,-5.3196,-5.3196,-5.3162,-5.2447,-5.2139,-5.2302,-5.2302,-5.223,-5.2066,-5.2066,-5.1875,-5.1561,-5.0758,-5.0648,-5.1067,-5.0285,-5.0293,-5.0859,-5.0859,-5.0859,-5.0859,-5.0859,-5.0859,-5.0859,-5.0973,-5.1134,-5.1315,0.0,0.0,0.0,0.0,0.0,0.0,0.0,0.0,0.0,0.0,0.0,0.0,0.0,0.0,0.0,0.0,0.0,0.0,0.0,0.0,0.0,0.0,-2.1568,-2.1892,-2.2377,-2.2604,-2.3368,-2.4692,-2.4861,-2.5622,-2.6914,-2.6412,-2.6168,-2.6202,-2.6202,-2.6202,-2.6202,-2.6202,-2.6202,-2.6287,-2.7379,0.0,0.0,0.0,0.0,0.0,0.0,0.0,0.0,-3.29,-3.29,-3.29,-3.29,0.0,0.0,0.0,0.0,0.0,-3.4686,-3.5614,-3.6256,-3.6363,-3.6988,-3.7595,0.0,0.0,0.0,0.0,0.0,0.0,0.0,0.0,0.0,0.0,0.0,0.0,0.0,0.0,0.0,0.0,0.0,0.0,0.0,-5.3146,-5.3072,-5.3551,-5.3141,-5.2705,-5.2338,-5.2302,-5.2214,-5.2053,-5.1924,-5.1851,-5.1888,-5.1888,-5.1904,-5.1868,-5.1868,-5.1414,-5.0611,-5.046,-5.0042,-4.939,-4.924,-4.922,-4.9354,-4.9354,-4.9354,-4.9354,-4.9354,-4.9354,-4.9418,-5.005,-5.0313,-5.0394,0.0,0.0,0.0,0.0,0.0,0.0,0.0,0.0,0.0,0.0,0.0,0.0,0.0,0.0,0.0,0.0,0.0,0.0,0.0,0.0,0.0,-2.1859,-2.1892,-2.2054,-2.2394,-2.3139,-2.3921,-2.4692,-2.5173,-2.5788,-2.6502,-2.6298,-2.6202,-2.6202,-2.6202,-2.6202,-2.6202,-2.6202,-2.6293,-2.6587,0.0,0.0,0.0,0.0,0.0,0.0,0.0,0.0,0.0,0.0,-3.29,-3.29,-3.29,0.0,0.0,0.0,0.0,0.0,-3.4418,-3.5489,-3.6488,-3.6952,-3.7648,-3.813,0.0,0.0,0.0,0.0,0.0,0.0,0.0,0.0,0.0,0.0,0.0,0.0,0.0,0.0,0.0,0.0,0.0,0.0,-5.2724,-5.2564,-5.2551,-5.2817,-5.2464,-5.2211,-5.2102,-5.1993,-5.1904,-5.1778,-5.1684,-5.1647,-5.1647,-5.1129,-5.0933,-5.1026,-5.1026,-5.0542,-4.9644,-4.9271,-4.9053,-4.8961,-4.8641,-4.8654,-4.8994,-4.8994,-4.8994,-4.8994,-4.8994,-4.8994,-4.9026,-4.9402,-4.9515,-4.9564,0.0,0.0,0.0,0.0,0.0,0.0,0.0,0.0,0.0,0.0,0.0,0.0,0.0,0.0,0.0,0.0,0.0,0.0,0.0,0.0,-2.1472,-2.2118,-2.2475,-2.2718,-2.2879,-2.395,-2.4634,-2.4937,-2.5548,-2.5899,-2.6008,-2.6315,-2.6369,-2.6202,-2.6202,-2.6202,-2.6202,-2.6202,-2.6446,-2.6978,0.0,0.0,0.0,0.0,0.0,0.0,0.0,0.0,0.0,0.0,0.0,0.0,0.0,0.0,0.0,-3.29,-3.3346,-3.3865,-3.4062,-3.5239,-3.6542,-3.7184,0.0,0.0,0.0,0.0,0.0,0.0,0.0,0.0,0.0,0.0,0.0,0.0,0.0,0.0,0.0,0.0,0.0,0.0,0.0,-5.1597,-5.2345,-5.2354,-5.2318,-5.2318,-5.2122,-5.1948,-5.1694,-5.1569,-5.1443,-5.1406,-5.1075,-5.1002,-5.1164,-5.0302,-5.001,-5.0339,-5.016,-4.9612,-4.8771,-4.8236,-4.8204,-4.8495,-4.7977,-4.8042,-4.8528,-4.8528,-4.8528,-4.8528,-4.8528,-4.8589,-4.8751,-4.8751,-4.8848,-4.9013,0.0,0.0,0.0,0.0,0.0,0.0,0.0,0.0,0.0,0.0,0.0,0.0,0.0,0.0,0.0,0.0,0.0,0.0,0.0,0.0,-2.099,-2.1358,-2.2702,-2.3706,-2.4338,-2.4452,-2.4861,-2.5619,-2.5687,-2.5811,-2.6025,-2.6829,-2.6868,-2.6202,-2.6202,-2.6202,-2.6202,-2.6202,-2.6619,-2.7289,-2.7735,0.0,0.0,0.0,0.0,0.0,0.0,0.0,0.0,0.0,0.0,0.0,0.0,0.0,-3.29,-3.29,-3.2936,-3.315,-3.3901,-3.5239,-3.6417,-3.647,0.0,0.0,0.0,0.0,0.0,0.0,0.0,0.0,0.0,0.0,0.0,0.0,0.0,0.0,0.0,0.0,0.0,0.0,-5.2279,-5.2329,-5.2409,-5.2247,-5.2139,-5.2139,-5.1941,-5.1447,-5.0562,-5.0529,-5.042,-5.0216,-4.9532,-4.9499,-5.0179,-4.9467,-4.9434,-5.0098,-4.9418,-4.8738,-4.8074,-4.8026,-4.7653,-4.7038,-4.6989,-4.6989,-4.7038,-4.7038,-4.7038,-4.7038,-4.7038,-4.7459,-4.8074,-4.8074,-4.8479,-4.8994,0.0,0.0,0.0,0.0,0.0,0.0,0.0,0.0,0.0,0.0,0.0,0.0,0.0,0.0,0.0,0.0,0.0,0.0,0.0,0.0,-2.1149,-2.1957,-2.2523,-2.335,-2.4484,-2.4952,-2.5345,-2.5701,-2.583,-2.5919,-2.6008,-2.6414,-2.6468,-2.6202,-2.6202,-2.6452,-2.6884,-2.6884,-2.7428,-2.8369,-2.9191,-3.0093,0.0,0.0,0.0,0.0,0.0,0.0,0.0,0.0,-3.29,-3.29,0.0,0.0,-3.29,-3.29,-3.29,-3.2971,-3.3275,-3.464,-3.5964,-3.5965,0.0,0.0,0.0,0.0,0.0,0.0,0.0,0.0,0.0,0.0,0.0,0.0,0.0,0.0,0.0,0.0,0.0,0.0,-5.173,-5.1659,-5.1536,-5.1069,-5.07,-5.0542,-5.0347,-5.0092,-4.9743,-4.9599,-4.9491,-4.9434,-4.9175,-4.9123,-4.9418,-4.8738,-4.8528,-4.8803,-4.8528,-4.8026,-4.7313,-4.7313,-4.7151,-4.6876,-4.6876,-4.6876,-4.6876,-4.6876,-4.6876,-4.6876,-4.6876,-4.7054,-4.7313,-4.7313,-4.7475,-4.7686,0.0,0.0,0.0,0.0,0.0,0.0,0.0,0.0,0.0,0.0,0.0,0.0,0.0,0.0,0.0,0.0,0.0,0.0,0.0,-2.0462,-2.1049,-2.2021,-2.228,-2.2944,-2.416,-2.4887,-2.5394,-2.568,-2.5828,-2.5901,-2.5919,-2.6043,-2.6132,-2.615,-2.6381,-2.6798,-2.7315,-2.7547,-2.8196,-2.9124,-2.9915,-3.0571,0.0,0.0,0.0,0.0,0.0,0.0,0.0,0.0,0.0,0.0,0.0,0.0,0.0,0.0,-3.298,-3.306,-3.306,-3.4269,-3.5525,0.0,0.0,0.0,0.0,0.0,0.0,0.0,0.0,0.0,0.0,0.0,0.0,0.0,0.0,0.0,0.0,0.0,0.0,-5.0929,-5.0863,-5.0777,-5.0585,-5.0035,-4.9634,-4.9513,-4.9336,-4.9131,-4.8904,-4.8761,-4.867,-4.867,-4.8463,-4.8463,-4.867,-4.801,-4.7653,-4.7653,-4.7653,-4.7394,-4.6876,-4.6876,-4.6876,-4.6876,-4.6876,-4.6876,-4.6876,-4.6876,-4.6876,-4.6876,-4.6876,-4.6876,-4.6876,-4.6876,-4.6876,-4.6876,0.0,0.0,0.0,0.0,0.0,0.0,0.0,0.0,0.0,0.0,0.0,0.0,0.0,0.0,0.0,0.0,0.0,0.0,-2.0139,-2.0191,-2.0531,-2.1262,-2.2005,-2.275,-2.348,-2.416,-2.4871,-2.5597,-2.5661,-2.5701,-2.5701,-2.5844,-2.5952,-2.6041,-2.6782,-2.7187,-2.7365,-2.8094,-2.8787,-2.9397,-2.9417,-3.0109,-3.1162,0.0,0.0,0.0,0.0,0.0,0.0,0.0,-3.2301,0.0,0.0,0.0,0.0,0.0,-3.3137,-3.3406,-3.3388,-3.4225,0.0,0.0,0.0,0.0,0.0,0.0,0.0,0.0,0.0,0.0,0.0,0.0,0.0,0.0,0.0,0.0,0.0,0.0,-5.0135,-4.9895,-4.9895,-4.9809,-4.9618,-4.939,-4.9268,-4.9268,-4.9105,-4.8706,-4.8026,-4.7993,-4.7993,-4.7993,-4.7281,-4.7249,-4.7993,-4.7249,-4.6876,-4.6911,-4.6876,-4.6876,-4.6876,-4.6876,-4.6876,-4.6876,-4.6876,-4.6876,-4.6876,-4.6876,-4.6876,-4.6876,-4.6876,-4.6876,-4.6876,-4.6876,-4.6876,-4.6876,0.0,0.0,0.0,0.0,0.0,0.0,0.0,0.0,0.0,0.0,0.0,0.0,0.0,0.0,0.0,0.0,0.0,0.0,-1.9818,-2.0085,-2.0429,-2.0925,-2.1875,-2.275,-2.348,-2.4661,-2.5371,-2.5597,-2.5661,-2.5738,-2.5844,-2.6354,-2.6712,-2.6945,-2.7578,-2.8168,-2.8718,-2.8979,-2.9492,-3.0154,-3.0765,-3.121,-3.1565,0.0,0.0,0.0,0.0,0.0,0.0,0.0,0.0,0.0,0.0,0.0,0.0,-3.2144,-3.2686,-3.3334,-3.306,0.0,0.0,0.0,0.0,0.0,0.0,0.0,0.0,0.0,0.0,0.0,0.0,0.0,0.0,0.0,0.0,0.0,0.0,0.0,-4.9714,-4.8999,-4.8915,-4.883,-4.8707,-4.8181,-4.7767,-4.7612,-4.7559,-4.7427,-4.7232,-4.7216,-4.7216,-4.7216,-4.6989,-4.6989,-4.7216,-4.6989,-4.6633,-4.6131,-4.6633,-4.6876,-4.6876,-4.6876,-4.6876,-4.6876,-4.6876,-4.6876,-4.6876,-4.6876,-4.6876,-4.6876,-4.6876,-4.6876,-4.6876,-4.6876,-4.6876,-4.6876,0.0,0.0,0.0,0.0,0.0,0.0,0.0,0.0,0.0,0.0,0.0,0.0,0.0,0.0,0.0,0.0,0.0,0.0,0.0,0.0,-2.0446,-2.0974,-2.1891,-2.2863,-2.3869,-2.5017,-2.5597,-2.5597,-2.564,-2.5696,-2.5803,-2.6526,-2.6946,-2.7144,-2.8125,-2.8796,-2.9243,-2.9585,-2.9947,-3.0359,-3.0885,-3.1142,-3.124,0.0,0.0,0.0,0.0,0.0,0.0,0.0,0.0,0.0,0.0,0.0,0.0,-3.2131,-3.2716,-3.3371,-3.3408,0.0,0.0,0.0,0.0,0.0,0.0,0.0,0.0,0.0,0.0,0.0,0.0,0.0,0.0,0.0,0.0,-4.8298,-4.7603,-4.8326,-4.8703,-4.8073,-4.7974,-4.7807,-4.7342,-4.6902,-4.6494,-4.61,-4.605,-4.6164,-4.6439,-4.6196,-4.618,-4.6439,-4.6196,-4.605,-4.605,-4.605,-4.5824,-4.5403,-4.584,-4.605,-4.6067,-4.6633,-4.673,-4.6439,-4.6164,-4.605,-4.6083,-4.6342,-4.6455,-4.6488,-4.6779,-4.6876,-4.6876,-4.6876,-4.6876,-4.6876,0.0,0.0,0.0,0.0,0.0,0.0,0.0,0.0,0.0,0.0,0.0,0.0,0.0,0.0,0.0,0.0,0.0,0.0,0.0,0.0,-2.0529,-2.1279,-2.2134,-2.3219,-2.4581,-2.526,-2.5597,-2.5597,-2.5597,-2.5597,-2.5632,-2.6493,-2.6889,-2.6987,-2.8506,-2.9185,-2.9234,-2.991,-3.0189,-3.0189,-3.0231,-3.0338,-3.0506,-3.0861,0.0,0.0,0.0,0.0,0.0,0.0,0.0,0.0,0.0,0.0,-3.1777,-3.2496,-3.2974,-3.3448,0.0,0.0,0.0,0.0,0.0,0.0,0.0,0.0,0.0,0.0,0.0,0.0,0.0,0.0,0.0,0.0,0.0,-4.7457,-4.7454,-4.7387,-4.7321,-4.7167,-4.7118,-4.6741,-4.5872,-4.5743,-4.5451,-4.4836,-4.4787,-4.5063,-4.5678,-4.5127,-4.5079,-4.5694,-4.5111,-4.4787,-4.4787,-4.4787,-4.4755,-4.469,-4.4755,-4.4755,-4.4739,-4.6083,-4.6326,-4.5678,-4.5063,-4.4787,-4.4836,-4.5451,-4.571,-4.5775,-4.6439,-4.673,-4.6795,-4.6795,-4.6828,-4.6876,0.0,0.0,0.0,0.0,0.0,0.0,0.0,0.0,0.0,0.0,0.0,0.0,0.0,0.0,0.0,0.0,0.0,0.0,0.0,0.0,-2.0541,-2.1276,-2.3071,-2.445,-2.5341,-2.5516,-2.5597,-2.5597,-2.5597,-2.5637,-2.5712,-2.6938,-2.7599,-2.7807,0.0,-2.981,-2.981,-3.0081,-3.0189,-3.0231,-3.0535,-3.0784,-3.0945,-3.1001,-3.1004,0.0,0.0,0.0,0.0,0.0,0.0,0.0,-3.1004,-3.1162,-3.1297,-3.1729,-3.2534,0.0,0.0,0.0,0.0,0.0,0.0,0.0,0.0,0.0,0.0,0.0,0.0,0.0,0.0,0.0,0.0,0.0,-4.6356,-4.611,-4.6902,-4.666,-4.6531,-4.6931,-4.6459,-4.6019,-4.5824,-4.5322,-4.4949,-4.4804,-4.4787,-4.4852,-4.4998,-4.4868,-4.4868,-4.4998,-4.4868,-4.4787,-4.4787,-4.4787,-4.4512,-4.3945,-4.4512,-4.4496,-4.3978,-4.4852,-4.516,-4.4998,-4.4852,-4.4787,-4.4804,-4.4949,-4.5014,-4.503,-4.5176,-4.5565,-4.6034,-4.6034,-4.639,-4.6876,0.0,0.0,0.0,0.0,0.0,0.0,0.0,0.0,0.0,0.0,0.0,0.0,0.0,0.0,0.0,0.0,0.0,0.0,0.0,0.0,0.0,-2.2756,-2.3899,-2.4839,-2.5581,-2.5597,-2.5597,-2.5597,-2.5597,0.0,0.0,0.0,0.0,-2.842,0.0,-2.9973,-2.9968,-3.0033,-3.0055,-3.0076,-3.0279,-3.0452,-3.0576,-3.0535,-3.0555,-3.0576,-3.0422,0.0,0.0,0.0,0.0,0.0,0.0,0.0,-3.1429,-3.1983,-3.2807,-3.3634,0.0,0.0,0.0,0.0,0.0,0.0,0.0,0.0,0.0,0.0,0.0,0.0,0.0,0.0,0.0,0.0,-4.5636,-4.5375,-4.5842,-4.5665,-4.5568,-4.5874,-4.5548,-4.5176,-4.4836,-4.448,-4.414,-4.3783,-4.3767,-4.3913,-4.4253,-4.3945,-4.3913,-4.4269,-4.3945,-4.3767,-4.3767,-4.3767,-4.3395,-4.2699,-4.3411,-4.3379,-4.2731,-4.3783,-4.4269,-4.4253,-4.3913,-4.3767,-4.3783,-4.414,-4.4269,-4.4318,-4.4658,-4.4998,-4.5354,-4.5678,-4.584,-4.5921,0.0,0.0,0.0,0.0,0.0,0.0,0.0,0.0,0.0,0.0,0.0,0.0,0.0,0.0,0.0,0.0,0.0,0.0,0.0,0.0,0.0,0.0,-2.4612,-2.4984,-2.5581,-2.5597,-2.5597,-2.5597,0.0,0.0,0.0,0.0,0.0,-2.8843,0.0,-2.9946,-2.9896,-2.9896,-2.9918,-2.9918,-2.9902,-2.9946,-3.0038,-2.9995,-3.006,-3.0167,-3.0189,-3.0189,-3.0189,-3.0333,0.0,0.0,0.0,0.0,-3.1885,-3.2641,-3.3286,-3.3932,0.0,0.0,0.0,0.0,0.0,0.0,0.0,0.0,0.0,0.0,0.0,0.0,0.0,0.0,0.0,0.0,-4.4821,-4.4708,-4.4788,-4.469,-4.4658,-4.4771,-4.469,-4.4366,-4.3767,-4.3557,-4.325,-4.2651,-4.2602,-4.2813,-4.3314,-4.278,-4.2666,-4.3136,-4.2569,-4.223,-4.223,-4.223,-4.197,-4.1417,-4.1986,-4.1954,-4.145,-4.2618,-4.3152,-4.312,-4.2489,-4.2295,-4.2457,-4.3103,-4.3411,-4.3589,-4.4188,-4.4496,-4.4674,-4.5241,-4.516,-4.4868,0.0,0.0,0.0,0.0,0.0,0.0,0.0,0.0,0.0,0.0,0.0,0.0,0.0,0.0,0.0,0.0,0.0,0.0,-2.1061,0.0,0.0,-2.4464,-2.5114,-2.55,-2.5597,-2.5597,-2.5597,-2.5597,0.0,0.0,0.0,0.0,0.0,-2.8843,0.0,0.0,-2.9896,-2.9896,-2.9924,-2.9973,-2.9924,-3.0011,-3.0146,-3.0038,-3.0017,-3.0038,-3.0146,-3.0124,-3.0038,-3.0167,-3.0658,0.0,0.0,0.0,-3.2364,-3.3241,-3.3545,0.0,0.0,0.0,0.0,0.0,0.0,0.0,0.0,0.0,0.0,0.0,0.0,0.0,0.0,0.0,0.0,0.0,-4.3767,-4.3362,-4.4609,-4.4253,-4.4091,-4.4706,-4.4237,-4.3816,-4.3719,-4.3104,-4.2699,-4.2602,-4.2602,-4.2407,-4.192,-4.1806,-4.1498,-4.0934,-4.082,-4.0772,-4.0772,-4.0772,-4.0723,-4.0642,-4.0739,-4.0723,-4.0642,-4.0836,-4.0917,-4.0917,-4.082,-4.1128,-4.1758,-4.1839,-4.2213,-4.2748,-4.2845,-4.3266,-4.3864,-4.3962,-4.4334,-4.4804,0.0,0.0,0.0,0.0,0.0,0.0,0.0,0.0,0.0,0.0,0.0,0.0,0.0,0.0,0.0,-2.0645,-2.1287,-2.1879,-2.2265,-2.3717,-2.4742,-2.5095,-2.5438,-2.5597,-2.5597,-2.5597,-2.5597,0.0,0.0,0.0,0.0,-2.8126,-2.8713,0.0,0.0,0.0,0.0,0.0,-2.9918,-2.9946,-2.9902,-2.9946,-3.0033,-2.9968,-3.0167,-3.0524,-3.0569,-3.0829,-3.1148,-3.1283,-3.154,-3.1824,-3.1921,0.0,0.0,0.0,-3.3789,0.0,0.0,0.0,0.0,0.0,0.0,0.0,0.0,0.0,0.0,0.0,0.0,0.0,0.0,0.0,0.0,0.0,-4.278,-4.2538,-4.2407,-4.2796,-4.3071,-4.299,-4.3055,-4.2958,-4.2553,-4.2585,-4.2263,-4.1484,-4.1808,-4.1727,-4.1029,-4.0966,-4.085,-4.0496,-4.0496,-4.0496,-4.0496,-4.0496,-4.0496,-4.048,-3.9703,-3.9525,-3.9943,-3.9509,-3.9752,-4.0496,-4.0496,-4.0901,-4.1596,-4.1596,-4.2002,-4.2602,-4.2602,-4.2797,-4.312,-4.3557,-4.3654,-4.3638,0.0,0.0,0.0,0.0,0.0,0.0,0.0,0.0,0.0,0.0,0.0,0.0,0.0,0.0,0.0,0.0,-2.1917,-2.2761,-2.3823,-2.4859,-2.5486,-2.5597,-2.5597,-2.5597,-2.5597,-2.5597,0.0,0.0,0.0,0.0,-2.7717,-2.8822,-2.9615,0.0,-3.0156,0.0,0.0,0.0,0.0,0.0,0.0,-2.9994,-3.0156,-3.0156,-3.0587,-3.1179,-3.1179,-3.1519,-3.2012,-3.2129,-3.2266,-3.2436,-3.252,-3.3018,0.0,0.0,0.0,0.0,0.0,0.0,0.0,0.0,0.0,0.0,0.0,0.0,0.0,0.0,0.0,0.0,0.0,0.0,0.0,0.0,0.0,-4.1711,-4.0642,-4.1419,-4.1889,-4.1385,-4.1759,-4.1873,-4.1385,-4.1776,-4.1646,-4.0577,-4.1029,-4.1029,-4.027,-4.0237,-4.0156,-3.9962,-3.9962,-3.9962,-3.9962,-3.9962,-3.9962,-3.9946,-3.875,-3.8524,-3.9185,-3.8463,-3.8814,-3.9978,-4.0156,-4.0575,-4.1093,-4.145,-4.1889,-4.2344,-4.2522,-4.2602,-4.2667,-4.3201,-4.3055,-4.2683,0.0,0.0,0.0,0.0,0.0,0.0,0.0,0.0,0.0,0.0,0.0,0.0,-2.0536,-2.185,-2.2547,-2.2089,-2.323,-2.4399,-2.5403,-2.5134,-2.513,-2.5578,-2.5597,0.0,-2.5597,-2.5597,0.0,0.0,0.0,0.0,-2.7753,-2.982,-3.0807,-3.0856,-3.0856,-3.0856,-3.0856,0.0,0.0,0.0,0.0,0.0,0.0,0.0,-3.1292,0.0,0.0,-3.1979,-3.2012,-3.2012,-3.2465,-3.3064,-3.3112,-3.3575,-3.4086,0.0,0.0,0.0,0.0,0.0,0.0,0.0,0.0,0.0,0.0,0.0,0.0,0.0,0.0,0.0,0.0,0.0,0.0,0.0,0.0,-4.0577,-4.0496,-4.0561,-4.0594,-4.0545,-4.0577,-4.0594,-4.0545,-4.0577,-4.0577,-4.0496,-4.0529,-4.0254,-3.9603,-3.9554,-3.9217,-3.8537,-3.8505,-3.8505,-3.8505,-3.8505,-3.8505,-3.8505,-3.7788,-3.7801,-3.8412,-3.7772,-3.7847,-3.8553,-3.9262,-3.9586,-3.9716,-4.1061,-4.1628,-4.1725,-4.2327,-4.2602,-4.2602,-4.2635,-4.2635,-4.2602,0.0,0.0,0.0,0.0,0.0,0.0,0.0,0.0,0.0,0.0,0.0,0.0,0.0,-2.2702,-2.301,-2.2584,-2.3215,-2.3921,-2.4594,-2.4799,-2.5111,-2.5578,-2.6053,-2.6085,-2.5613,-2.605,0.0,0.0,0.0,-2.7705,-2.7737,-2.9453,-3.0247,-3.0301,-3.1202,-3.16,-3.1568,-3.1098,0.0,0.0,0.0,0.0,0.0,0.0,0.0,0.0,0.0,0.0,0.0,-3.3356,-3.3518,-3.3744,-3.3761,-3.3915,-3.4101,-3.4151,-3.4176,0.0,0.0,0.0,0.0,0.0,0.0,0.0,0.0,0.0,0.0,0.0,0.0,0.0,0.0,0.0,0.0,0.0,0.0,-4.0173,-3.9282,-3.993,-4.0335,-3.9897,-4.0237,-4.0318,-3.991,-4.0237,-4.0124,-3.9217,-3.9573,-3.9541,-3.8829,-3.878,-3.8667,-3.8408,-3.8391,-3.8391,-3.8391,-3.796,-3.7756,-3.7756,-3.7087,-3.689,-3.7101,-3.686,-3.7117,-3.7788,-3.8535,-3.9092,-3.9554,-4.004,-4.0526,-4.095,-4.1662,-4.1954,-4.2002,-4.2424,-4.2602,-4.2602,0.0,0.0,0.0,0.0,0.0,0.0,0.0,0.0,0.0,0.0,0.0,0.0,0.0,0.0,-2.3083,-2.2947,-2.3304,-2.3702,-2.4078,-2.4477,-2.4835,-2.5143,-2.623,-2.6599,-2.6097,-2.6722,0.0,0.0,0.0,0.0,0.0,-2.9551,-3.0253,-3.0301,-3.1477,-3.2012,0.0,0.0,0.0,-3.2303,0.0,0.0,-3.2384,0.0,0.0,0.0,0.0,0.0,0.0,0.0,-3.4457,-3.4424,-3.4182,-3.4101,-3.4101,-3.4101,-3.4101,0.0,0.0,0.0,0.0,0.0,0.0,0.0,0.0,0.0,0.0,0.0,0.0,0.0,0.0,0.0,0.0,0.0,0.0,-3.946,-3.8537,-3.9201,-3.9622,-3.9169,-3.9509,-3.9606,-3.9153,-3.9333,-3.9146,-3.8444,-3.8656,-3.8692,-3.8424,-3.8193,-3.8062,-3.8062,-3.8278,-3.8307,-3.8062,-3.7623,-3.7282,-3.7057,-3.6384,-3.6197,-3.6384,-3.6166,-3.643,-3.7088,-3.7573,-3.8293,-3.9197,-3.9927,-4.0332,-4.0594,-4.1549,-4.1938,-4.1986,-4.2424,-4.2602,-4.2602,0.0,0.0,0.0,0.0,0.0,0.0,0.0,0.0,0.0,-2.1399,0.0,0.0,0.0,0.0,0.0,-2.3187,-2.3589,-2.3906,-2.4118,-2.4259,-2.4343,-2.4364,-2.6141,-2.7121,-2.7089,-2.7515,0.0,0.0,0.0,0.0,0.0,0.0,-3.0872,-3.0904,-3.1632,-3.1979,-3.2028,0.0,-3.3064,-3.3032,0.0,-3.2498,-3.3251,0.0,0.0,0.0,-3.5801,-3.5833,0.0,-3.5244,0.0,0.0,0.0,0.0,-3.4101,-3.4101,0.0,0.0,0.0,0.0,0.0,0.0,0.0,0.0,0.0,0.0,0.0,0.0,0.0,0.0,0.0,0.0,0.0,0.0,0.0,0.0,-3.8391,-3.8391,-3.8391,-3.8391,-3.8391,-3.8391,-3.8391,-3.7786,-3.7653,-3.8307,-3.7756,-3.7653,-3.8307,-3.7727,-3.7387,-3.7417,-3.7988,-3.8033,-3.7387,-3.7342,-3.6996,-3.6353,-3.5706,-3.5706,-3.6322,-3.5674,-3.5738,-3.6384,-3.6384,-3.7101,-3.8497,-4.0626,-4.1079,-4.061,-4.1955,-4.2522,-4.2538,-4.2554,-4.2554,-4.2538,0.0,0.0,0.0,0.0,0.0,0.0,0.0,0.0,-2.1111,0.0,0.0,0.0,-2.3022,-2.3606,-2.395,-2.3932,-2.4154,-2.444,-2.4786,-2.4939,-2.5213,-2.5676,-2.7011,-2.751,-2.6983,-2.7976,0.0,0.0,0.0,0.0,0.0,0.0,0.0,0.0,-3.0911,-3.1195,-3.1244,-3.1996,0.0,0.0,-3.3404,-3.3955,0.0,0.0,0.0,0.0,0.0,-3.5873,-3.5366,0.0,-3.5669,-3.5222,0.0,0.0,0.0,0.0,0.0,0.0,-3.4101,0.0,0.0,0.0,0.0,0.0,0.0,0.0,0.0,0.0,0.0,0.0,0.0,0.0,0.0,0.0,0.0,0.0,-3.8391,-3.8391,-3.8391,-3.8391,-3.8391,-3.8391,-3.8391,-3.7786,-3.7476,0.0,-3.7057,-3.6768,-3.6951,-3.6768,-3.689,-3.7387,-3.7117,-3.6844,-3.6677,-3.6212,-3.5866,-3.5674,-3.5004,-3.4773,-3.4938,-3.4754,-3.5023,-3.5674,-3.5674,-3.6166,-3.7058,-3.8123,-3.9047,-3.9829,-4.0205,-4.0658,-4.1144,-4.1678,-4.1533,-4.1241,0.0,0.0,0.0,0.0,0.0,0.0,0.0,0.0,0.0,0.0,0.0,0.0,-2.3621,-2.4053,-2.4305,-2.4201,-2.4316,-2.4465,-2.4708,-2.4854,-2.5096,-2.5508,-2.6962,-2.7574,-2.7211,-2.8335,0.0,0.0,0.0,0.0,0.0,0.0,0.0,0.0,0.0,0.0,0.0,0.0,0.0,0.0,-3.4174,0.0,0.0,-3.5909,-3.6117,0.0,0.0,0.0,-3.6194,-3.6572,-3.627,0.0,0.0,0.0,0.0,0.0,0.0,0.0,0.0,0.0,0.0,0.0,0.0,0.0,-3.4635,-3.5299,-3.5946,0.0,0.0,0.0,0.0,0.0,0.0,0.0,0.0,0.0,-3.8363,-3.8391,-3.8307,-3.8033,-3.825,-3.8307,-3.8004,-3.7623,-3.7417,-3.7417,-3.6768,-3.6291,-3.6009,-3.6259,-3.6446,-3.6569,-3.6461,-3.6259,-3.5992,-3.5593,-3.527,-3.4971,-3.4601,-3.4414,-3.4414,-3.4414,-3.462,-3.499,-3.499,-3.5367,-3.6009,-3.6399,-3.7419,-3.8736,-3.9614,-4.02,-4.0632,-4.1342,-4.1336,-4.1015,0.0,0.0,0.0,0.0,0.0,0.0,0.0,0.0,0.0,0.0,-2.3339,-2.3583,-2.4303,-2.4352,-2.434,-2.4374,-2.4399,-2.4399,-2.4399,-2.4526,-2.4665,-2.479,-2.6438,-2.7439,-2.7565,-2.8496,0.0,0.0,0.0,0.0,0.0,0.0,0.0,0.0,0.0,0.0,0.0,0.0,0.0,-3.3209,-3.4639,-3.4846,0.0,0.0,-3.5943,-3.5597,-3.6841,-3.7181,-3.7098,-3.7098,-3.6676,0.0,0.0,0.0,0.0,0.0,-3.482,0.0,0.0,0.0,0.0,0.0,0.0,0.0,-3.4138,-3.4639,-3.5091,-3.5091,0.0,0.0,0.0,0.0,0.0,0.0,0.0,0.0,-3.8075,-3.8234,-3.8033,-3.7371,-3.7873,-3.8033,-3.7342,-3.7222,-3.7193,-3.7193,-3.6554,-3.5946,-3.5432,-3.5882,-3.5946,-3.5432,-3.5929,-3.5882,-3.5302,-3.5302,-3.499,-3.4414,-3.4414,-3.4414,-3.4414,-3.4414,-3.4414,-3.4414,-3.4414,-3.4754,-3.5302,-3.5302,-3.6146,-3.7697,-3.9455,-4.0166,-4.0341,-4.0938,-4.1139,-4.1058,-2.1111,0.0,0.0,0.0,0.0,0.0,0.0,0.0,0.0,-2.3931,-2.4331,-2.4866,-2.5485,-2.565,-2.5676,-2.5582,-2.5662,-2.5716,-2.5716,-2.5742,-2.5836,-2.5969,-2.6732,-2.721,-2.7348,-2.7981,0.0,0.0,0.0,0.0,0.0,0.0,0.0,0.0,0.0,0.0,0.0,0.0,0.0,-3.3229,-3.4693,0.0,-3.5184,-3.6038,-3.6291,-3.6213,-3.6507,-3.6245,-3.5763,-3.5763,-3.5646,-3.5599,0.0,0.0,0.0,0.0,0.0,0.0,0.0,0.0,0.0,0.0,0.0,0.0,-3.4367,-3.4382,-3.4493,0.0,0.0,0.0,0.0,0.0,0.0,0.0,0.0,0.0,0.0,-3.7237,-3.7342,-3.6661,-3.7177,-3.7342,-3.6677,-3.6118,-3.577,-3.577,-3.5154,-3.4971,-3.5367,-3.499,-3.4971,-3.54,-3.5004,-3.4721,-3.4601,-3.4601,-3.4534,-3.4414,-3.4414,-3.4414,-3.4414,-3.4414,-3.4414,-3.4414,-3.4414,-3.4467,-3.4601,-3.4601,-3.5753,-3.7479,-3.7281,-3.7576,-3.8134,-3.8261,-3.8278,-3.8449,-2.1744,0.0,0.0,0.0,0.0,0.0,0.0,0.0,0.0,-2.45,-2.5077,-2.5542,-2.5865,-2.6229,-2.6412,-2.6343,-2.6412,-2.6495,-2.6551,-2.6199,-2.6111,-2.6392,-2.6604,-2.68,-2.7034,-2.7525,-2.7824,0.0,0.0,0.0,0.0,0.0,0.0,0.0,0.0,0.0,0.0,0.0,-3.328,-3.3696,-3.4845,0.0,-3.4864,-3.5628,-3.5882,-3.5882,-3.5882,-3.5882,-3.5882,-3.5882,-3.6107,0.0,0.0,-3.5862,-3.5346,0.0,-3.5572,-3.5359,0.0,0.0,0.0,-3.6303,0.0,0.0,0.0,-3.3803,-3.3361,-3.3361,0.0,0.0,0.0,0.0,0.0,0.0,0.0,0.0,0.0,-3.6091,-3.6646,-3.5977,-3.6492,-3.6646,-3.5961,-3.5882,-3.577,-3.5432,-3.4787,-3.4534,-3.4872,-3.4601,-3.4568,-3.4905,-3.4568,-3.4414,-3.4414,-3.4414,-3.4414,-3.4414,-3.4414,-3.4414,-3.4414,-3.4414,-3.4414,-3.4414,-3.4414,-3.4414,-3.4414,-3.4414,-3.5012,-3.5989,-3.6302,-3.6675,-3.7044,-3.7382,-3.7478,-3.7556,-2.2208,0.0,0.0,0.0,0.0,0.0,0.0,0.0,0.0,-2.5119,-2.5697,-2.6062,-2.6062,0.0,0.0,0.0,-2.7059,-2.7074,-2.73,-2.6539,-2.6226,-2.6522,-2.6329,-2.6367,-2.67,-2.7086,-2.7302,0.0,0.0,0.0,0.0,0.0,0.0,0.0,0.0,0.0,0.0,0.0,0.0,-3.42,0.0,-3.4795,-3.437,-3.5132,-3.5335,-3.5219,-3.5219,-3.5561,-3.6009,-3.6009,-3.6368,-3.6753,-3.6337,-3.6091,0.0,0.0,0.0,0.0,0.0,0.0,0.0,0.0,0.0,-3.4415,0.0,0.0,0.0,0.0,0.0,0.0,0.0,0.0,0.0,0.0,0.0,0.0,0.0,0.0,0.0,-3.4897,-3.544,-3.5581,-3.4897,-3.5329,-3.5469,-3.5091,-3.453,-3.4283,-3.4399,-3.4414,-3.4414,-3.4414,-3.4414,-3.4414,-3.4414,-3.4414,-3.4414,-3.4414,-3.4414,-3.4414,-3.4414,-3.4414,-3.4414,-3.4414,-3.4414,-3.4414,-3.4414,-3.4414,-3.4414,-3.4525,-3.5648,-3.6108,-3.6174,-3.67,-3.6985,-3.7048,-2.2208,-2.2208,0.0,0.0,0.0,0.0,0.0,0.0,0.0,-2.5781,-2.6315,0.0,0.0,0.0,0.0,0.0,0.0,0.0,-2.848,0.0,-2.6736,-2.675,-2.6244,-2.6056,-2.634,-2.6406,-2.6566,-2.6884,0.0,0.0,0.0,0.0,0.0,0.0,-3.0689,0.0,0.0,0.0,-3.3603,0.0,-3.4395,-3.4386,0.0,-3.5112,-3.5023,-3.4501,-3.4501,-3.4568,-3.462,0.0,-3.4687,-3.482,0.0,-3.5094,-3.482,-3.5965,0.0,0.0,0.0,0.0,0.0,0.0,-3.5796,0.0,0.0,0.0,-3.2242,-3.1715,0.0,0.0,0.0,0.0,0.0,0.0,0.0,0.0,-3.2542,0.0,-3.2908,-3.2844,-3.34,-3.3555,-3.2876,-3.2908,-3.3141,-3.3693,-3.3638,-3.3819,-3.4385,-3.4414,-3.4414,-3.4414,-3.4414,-3.4414,-3.4414,-3.4414,-3.4414,-3.4414,-3.4414,-3.4414,-3.4414,-3.4414,-3.4414,-3.4414,-3.4414,-3.4414,-3.4414,-3.4414,-3.4414,-3.4428,-3.4588,-3.4651,-3.4651,-3.4704,-3.5136,-3.5707,-2.2208,-2.2208,0.0,0.0,0.0,0.0,0.0,0.0,0.0,0.0,0.0,0.0,0.0,0.0,0.0,0.0,0.0,-2.8452,0.0,0.0,0.0,0.0,0.0,0.0,-2.7509,-2.762,-2.7773,-2.791,-2.8158,0.0,0.0,0.0,0.0,0.0,-3.0852,0.0,-3.2369,0.0,0.0,0.0,0.0,0.0,0.0,-3.4682,-3.4668,-3.4414,-3.4414,-3.4414,-3.4414,0.0,-3.4654,0.0,0.0,0.0,0.0,0.0,0.0,0.0,0.0,0.0,0.0,0.0,0.0,0.0,-3.4131,0.0,-3.2379,0.0,0.0,0.0,0.0,0.0,0.0,0.0,-3.1665,0.0,0.0,0.0,-3.2046,0.0,0.0,0.0,-3.2513,-3.2481,-3.2629,-3.2904,-3.3285,-3.362,-3.3848,-3.4211,-3.4414,-3.4414,-3.4414,-3.4414,-3.4414,-3.4414,-3.4414,-3.4414,-3.4414,-3.4414,-3.4414,-3.4414,-3.4414,-3.4414,-3.4414,-3.4414,-3.4414,-3.4414,-3.4414,-3.4414,-3.4414,-3.4414,-3.4414,-3.4414,-3.4588,-3.4874,-2.2714,0.0,0.0,0.0,0.0,0.0,0.0,0.0,0.0,0.0,0.0,0.0,-2.7326,-2.8436,0.0,0.0,-2.9293,-2.9296,0.0,0.0,-2.8133,0.0,0.0,0.0,0.0,0.0,-2.8624,-2.8709,0.0,0.0,0.0,0.0,0.0,0.0,0.0,-3.1678,-3.2422,0.0,0.0,-3.4348,-3.4851,-3.4753,-3.4339,-3.4393,-3.4414,-3.4414,-3.4414,-3.4414,-3.4414,-3.4414,-3.4721,-3.5023,-3.4568,-3.4721,0.0,0.0,0.0,0.0,-3.5121,0.0,0.0,0.0,0.0,0.0,0.0,0.0,0.0,0.0,0.0,0.0,0.0,0.0,0.0,0.0,0.0,-3.125,0.0,0.0,0.0,0.0,0.0,0.0,0.0,-3.199,-3.2063,-3.2191,-3.2672,-3.3126,-3.3474,-3.3906,-3.424,-3.4399,-3.4414,-3.4414,-3.4414,-3.4414,-3.4414,-3.4414,-3.4414,-3.4414,-3.4414,-3.4414,-3.4414,-3.4414,-3.4414,-3.4414,-3.4414,-3.4414,-3.4414,-3.4414,-3.4414,-3.4414,-3.4414,-3.4414,-3.4414,-3.4414,-2.4022,-2.353,0.0,0.0,0.0,0.0,0.0,0.0,0.0,0.0,0.0,0.0,0.0,0.0,0.0,0.0,0.0,-3.0726,-3.1359,0.0,-2.8661,0.0,0.0,-2.7937,0.0,0.0,0.0,0.0,0.0,0.0,0.0,0.0,0.0,0.0,0.0,-3.1293,-3.2393,-3.2422,-3.3139,-3.4319,-3.4334,-3.4366,-3.4385,0.0,-3.4414,-3.4414,-3.4414,0.0,-3.4414,-3.4414,-3.4414,-3.4448,-3.4414,-3.4414,0.0,0.0,0.0,0.0,0.0,0.0,0.0,-3.4467,0.0,0.0,0.0,0.0,-3.33,0.0,0.0,0.0,0.0,0.0,-3.1466,-3.1495,-3.1003,0.0,0.0,0.0,0.0,0.0,0.0,0.0,0.0,-3.067,-3.0887,-3.1496,-3.1538,-3.2135,-3.3431,-3.3518,-3.3823,-3.4385,-3.4414,-3.4414,-3.4414,-3.4414,-3.4414,-3.4414,-3.4414,-3.4414,-3.4414,-3.4414,-3.4414,-3.4414,-3.4414,-3.4414,-3.4414,-3.4414,-3.4414,-3.4414,-3.4414,-3.4414,-3.4414,-3.4414,-3.4414,-3.4414,0.0,0.0,0.0,0.0,0.0,0.0,0.0,-2.668,0.0,0.0,0.0,0.0,0.0,-3.0656,-3.1246,0.0,0.0,-3.1078,-3.0867,-3.0249,0.0,0.0,0.0,-2.9169,0.0,0.0,0.0,0.0,0.0,0.0,0.0,0.0,0.0,0.0,0.0,-3.1285,0.0,0.0,0.0,0.0,0.0,-3.4378,-3.4414,0.0,-3.4414,-3.4414,-3.4414,-3.4414,-3.4414,-3.4414,-3.4414,-3.4414,-3.4414,-3.4414,-3.4414,-3.4414,-3.4414,-3.4414,-3.4414,-3.4414,-3.4414,-3.4414,-3.4414,0.0,0.0,0.0,0.0,0.0,0.0,0.0,0.0,0.0,-3.1495,-3.1495,-3.0988,-3.0598,0.0,0.0,0.0,0.0,0.0,0.0,0.0,0.0,-3.0685,-3.0872,-3.1279,-3.1903,-3.2788,-3.3271,-3.3794,-3.4385,-3.4414,-3.4414,-3.4414,-3.4414,-3.4414,-3.4414,-3.4414,-3.4414,-3.4414,-3.4414,-3.4414,-3.4414,-3.4414,-3.4414,-3.4414,-3.4414,-3.4414,-3.4414,-3.4414,-3.4414,-3.4414,-3.4414,-3.4414,-3.4472,-2.4425,0.0,0.0,0.0,0.0,0.0,0.0,0.0,0.0,0.0,-2.994,0.0,-3.0853,0.0,-3.2047,0.0,-3.1822,-3.1541,-3.0909,-3.0867,0.0,-2.9645,-2.9893,0.0,0.0,0.0,0.0,0.0,0.0,-3.0598,0.0,0.0,0.0,0.0,0.0,0.0,0.0,0.0,-3.3122,0.0,0.0,-3.4414,0.0,0.0,-3.4414,-3.4414,-3.4414,-3.4414,-3.4414,-3.4414,-3.4414,-3.4414,-3.4414,-3.4414,-3.4414,-3.4414,-3.4414,-3.4414,-3.4414,-3.4414,-3.438,-3.4312,-3.4312,-3.4312,-3.4312,0.0,-3.4312,0.0,0.0,0.0,0.0,0.0,-3.177,-3.1476,-3.0958,-3.0598,0.0,-3.0598,0.0,0.0,0.0,0.0,0.0,0.0,-3.0598,-3.0598,-3.0945,-3.1584,-3.2437,-3.2904,-3.3529,-3.4385,-3.4414,-3.438,-3.4312,-3.4346,-3.4346,-3.4312,-3.438,-3.4414,-3.4414,-3.4414,-3.4414,-3.4414,-3.4414,-3.4414,-3.4414,-3.4414,-3.4414,-3.4414,-3.4414,-3.4414,-3.4414,-3.4414,-3.4414,-3.4501,0.0,0.0,0.0,0.0,-2.5597,0.0,0.0,0.0,-2.894,0.0,-3.1241,-3.2154,-3.164,-3.2623,-3.3087,-3.2497,-3.244,-3.2188,-3.1569,-3.1527,0.0,0.0,-3.0203,-3.0298,-2.9834,0.0,0.0,0.0,0.0,0.0,0.0,0.0,0.0,0.0,-3.0598,0.0,-3.1524,-3.2162,-3.2861,-3.3547,-3.4167,-3.4414,-3.4414,-3.4414,-3.4414,-3.4414,-3.4414,-3.4414,-3.4414,-3.4414,-3.4414,-3.4414,-3.4414,-3.4414,-3.4414,-3.4414,-3.438,-3.438,-3.438,-3.438,-3.4346,-3.4128,-3.4094,-3.4094,-3.4094,-3.4094,-3.4094,0.0,0.0,0.0,0.0,0.0,-3.2214,-3.1421,-3.0881,-3.0598,0.0,0.0,0.0,0.0,0.0,0.0,0.0,-3.0598,-3.0598,-3.0598,-3.0598,0.0,0.0,-3.2481,-3.3075,-3.4337,-3.438,-3.4312,-3.4094,-3.4278,-3.4278,-3.4094,-3.4312,-3.438,-3.438,-3.4414,-3.4414,-3.4414,-3.4414,-3.4414,-3.4414,-3.4414,-3.4414,-3.4414,-3.4414,-3.4414,-3.4414,-3.4414,-3.4428,-3.4545,-2.4907,-2.584,-2.668,0.0,-2.6793,-2.6947,0.0,0.0,0.0,0.0,-3.1308,-3.1847,-3.2737,-3.3094,-3.322,-3.3066,-3.3087,0.0,0.0,0.0,0.0,-3.105,-3.0666,-3.0445,-3.0309,-3.0032,0.0,-3.0158,0.0,0.0,-3.0598,0.0,0.0,0.0,0.0,0.0,-3.1495,-3.1669,-3.2425,-3.3547,-3.4167,-3.4414,-3.4414,-3.4414,-3.4414,-3.4414,-3.4414,-3.4414,-3.4414,-3.4414,-3.4414,-3.4414,-3.4414,-3.4414,-3.4414,-3.4414,-3.4312,-3.4162,-3.4162,-3.4108,-3.402,-3.3951,-3.3951,-3.3951,-3.3951,-3.3951,-3.3951,-3.3951,-3.3985,-3.3785,-3.3025,-3.2477,-3.1911,0.0,0.0,0.0,0.0,0.0,0.0,-3.0598,0.0,0.0,0.0,-3.0447,-3.0447,-3.0598,-3.0447,0.0,-3.2408,-3.2481,-3.3028,-3.4153,-3.4312,-3.4244,-3.3951,-3.4108,-3.4108,-3.3951,-3.4108,-3.4162,-3.4162,-3.4346,-3.4414,-3.4414,-3.4414,-3.4414,-3.4414,-3.4414,-3.4414,-3.4414,-3.4414,-3.4414,-3.4414,-3.4414,-3.4719,-3.5116,-2.4736,0.0,0.0,-2.8041,0.0,0.0,-2.8464,-2.8756,0.0,-3.0804,-3.1328,0.0,-3.28,-3.305,-3.3066,-3.2803,-3.3086,0.0,-3.1951,0.0,0.0,-3.1527,-3.1134,-3.0811,-3.0498,-3.0055,0.0,-2.9974,0.0,0.0,-3.0477,0.0,0.0,0.0,0.0,-3.0801,0.0,-3.1714,-3.2542,-3.3547,-3.4167,-3.4414,0.0,-3.4312,-3.4264,-3.4264,-3.421,-3.4293,-3.4414,-3.4414,-3.4414,-3.438,-3.4312,-3.4264,-3.4278,-3.4191,-3.4108,-3.4005,-3.4005,-3.3951,-3.3896,-3.3793,-3.3793,-3.3793,-3.3793,-3.3793,-3.3793,-3.3793,-3.3862,-3.3662,-3.2837,-3.2525,-3.2097,0.0,0.0,0.0,0.0,0.0,0.0,0.0,-3.0387,0.0,-3.0568,-3.0371,-3.0326,-3.0568,-3.0417,0.0,0.0,-3.224,-3.2735,-3.3546,-3.4018,-3.4108,-3.3793,-3.4005,-3.4005,-3.3793,-3.3937,-3.4005,-3.4005,-3.421,-3.4264,-3.4264,-3.4346,-3.4346,-3.4264,-3.4264,-3.4244,-3.4191,-3.4191,-3.421,-3.4264,-3.421,-3.451,-3.4936,0.0,0.0,0.0,0.0,0.0,0.0,0.0,-2.9062,0.0,-3.0186,0.0,-3.1897,-3.2173,-3.2626,-3.268,-3.2164,0.0,-3.2779,-3.1566,-3.2519,-3.273,-3.178,-3.1573,-3.1203,-3.0624,-3.015,0.0,0.0,0.0,0.0,0.0,0.0,0.0,0.0,0.0,0.0,0.0,-3.193,-3.28,-3.338,-3.409,-3.4346,-3.4346,-3.4128,-3.4094,-3.4094,-3.3951,-3.4088,-3.4346,-3.4346,-3.4346,-3.4312,-3.4128,-3.4059,-3.4059,-3.3917,-3.3896,-3.3862,-3.3862,-3.3862,-3.3793,-3.3605,-3.357,-3.357,-3.357,-3.357,-3.357,-3.357,-3.3709,-3.3525,-3.2593,-3.2551,-3.234,0.0,0.0,0.0,0.0,0.0,0.0,0.0,0.0,0.0,-3.0507,-3.028,0.0,0.0,0.0,0.0,0.0,0.0,-3.2399,-3.2863,-3.3661,-3.3902,-3.357,-3.3868,-3.3868,-3.357,-3.3744,-3.3862,-3.3862,-3.4005,-3.4059,-3.4094,-3.4278,-3.4244,-3.4059,-3.4059,-3.4005,-3.3931,-3.3965,-3.404,-3.4128,-3.402,-3.4157,-3.4486,0.0,0.0,0.0,0.0,0.0,-2.9385,-2.8804,-2.8853,-2.9209,-2.9948,-3.0068,-3.038,-3.1098,-3.1823,-3.2232,-3.2123,-3.286,0.0,0.0,0.0,0.0,-3.2968,-3.1868,-3.1282,-3.1331,-3.0684,-3.0189,0.0,0.0,0.0,0.0,0.0,0.0,0.0,0.0,0.0,-3.0289,-3.185,0.0,-3.237,-3.3633,-3.4162,-3.4128,-3.3985,-3.4005,-3.4094,-3.3951,-3.3931,-3.3985,-3.3985,-3.3985,-3.3985,-3.3965,-3.3931,-3.3917,-3.3896,-3.3793,-3.364,-3.364,-3.3536,-3.3396,-3.3361,-3.3361,-3.3361,-3.3361,-3.3361,-3.3361,-3.3361,-3.3396,-3.3199,-3.2525,-3.2025,-3.1669,-3.1458,0.0,0.0,0.0,0.0,0.0,0.0,0.0,-2.9991,0.0,0.0,0.0,0.0,0.0,0.0,0.0,0.0,-3.2381,-3.2723,-3.3534,-3.3744,-3.3361,-3.357,-3.3556,-3.3361,-3.357,-3.364,-3.364,-3.3848,-3.3931,-3.3931,-3.3951,-3.3951,-3.3931,-3.3931,-3.3985,-3.4074,-3.4244,-3.4346,-3.4346,-3.4312,-3.4346,-3.4395,0.0,0.0,0.0,0.0,0.0,0.0,0.0,-2.8906,-2.8807,-2.9324,-2.929,-2.953,-3.034,-3.0675,-3.0857,-3.0857,-3.1576,-3.1882,-3.1466,-3.1452,-3.1833,-3.2618,-3.1422,-3.0959,-3.1499,-3.0544,-2.9929,-2.9713,0.0,0.0,0.0,0.0,0.0,0.0,0.0,-3.0158,0.0,0.0,-3.2145,-3.2129,-3.347,-3.402,-3.3985,-3.3813,-3.3779,-3.3833,-3.364,-3.3605,-3.3605,-3.3827,-3.3896,-3.3896,-3.3793,-3.3744,-3.3709,-3.3605,-3.3536,-3.3431,-3.3431,-3.3361,-3.329,-3.329,-3.329,-3.329,-3.329,-3.329,-3.329,-3.329,-3.329,-3.3192,-3.2932,-3.237,-3.1963,-3.1963,-3.1495,0.0,0.0,0.0,0.0,0.0,0.0,0.0,0.0,0.0,0.0,0.0,0.0,0.0,0.0,-3.1422,-3.1994,-3.2055,-3.3144,-3.3605,-3.329,-3.3501,-3.3501,-3.329,-3.3396,-3.3431,-3.3466,-3.364,-3.3744,-3.3744,-3.3862,-3.3862,-3.3744,-3.364,-3.364,-3.3695,-3.3799,-3.3902,-3.3971,-3.3868,-3.3902,-3.4005,0.0,-2.7617,0.0,0.0,-2.8762,-2.8511,-2.9256,-2.898,-2.8673,-2.8732,-2.8734,-2.8988,-2.9601,-2.9694,-2.9704,-2.9704,-3.0456,-3.0632,-2.9999,-3.0367,-3.0994,-3.1819,-3.078,-3.0435,-3.0989,-3.0021,-2.9398,0.0,0.0,-2.9418,-2.9515,0.0,0.0,0.0,0.0,0.0,-3.0074,-3.1422,-3.195,-3.1999,-3.3314,-3.3862,-3.3827,-3.3605,-3.357,-3.357,-3.3361,-3.329,-3.3312,-3.3486,-3.364,-3.3744,-3.3605,-3.3536,-3.3501,-3.3361,-3.329,-3.329,-3.329,-3.329,-3.329,-3.329,-3.329,-3.329,-3.329,-3.329,-3.329,-3.329,-3.329,-3.3241,-3.3086,-3.2814,-3.2595,-3.2595,-3.2075,0.0,0.0,0.0,0.0,0.0,0.0,0.0,-3.0003,0.0,0.0,0.0,0.0,0.0,-2.9808,-3.1013,-3.1622,-3.1485,-3.2817,-3.3466,-3.329,-3.3466,-3.3466,-3.329,-3.329,-3.329,-3.3326,-3.3466,-3.3536,-3.3536,-3.3709,-3.3675,-3.3536,-3.3396,-3.3361,-3.3361,-3.3396,-3.3536,-3.364,-3.3501,-3.3536,-3.3709,0.0,0.0,0.0,0.0,0.0,-2.9064,-2.8638,-2.896,-2.9068,-2.8578,-2.8545,-2.8545,-2.8624,-2.9264,-2.9704,-2.9704,-3.0456,-3.0857,-3.0782,-3.019,-3.019,-3.097,-3.0202,-2.9639,-2.9421,-2.9289,-2.8723,0.0,0.0,-2.8602,-2.862,-2.9421,0.0,-2.9853,-3.0005,-2.9927,-2.9749,-3.1326,-3.1819,-3.1664,-3.3075,-3.364,-3.3605,-3.3396,-3.3431,-3.357,-3.3361,-3.329,-3.3206,-3.2497,-3.2739,-3.3361,-3.3326,-3.3326,-3.3326,-3.3326,-3.329,-3.329,-3.329,-3.329,-3.329,-3.329,-3.329,-3.329,-3.329,-3.329,-3.329,-3.329,-3.329,-3.3086,-3.2354,-3.2769,-3.3206,-3.3206,-3.2721,-3.2103,0.0,0.0,-3.0951,0.0,0.0,0.0,0.0,-2.9634,0.0,0.0,-2.9927,0.0,0.0,-3.1013,-3.1622,-3.1485,-3.2679,-3.3326,-3.329,-3.3326,-3.3326,-3.329,-3.329,-3.329,-3.329,-3.3326,-3.3326,-3.3326,-3.3361,-3.3361,-3.3361,-3.3501,-3.357,-3.3605,-3.3793,-3.3862,-3.3862,-3.3862,-3.3862,-3.3896,0.0,0.0,0.0,0.0,0.0,0.0,-2.9869,-2.9569,-2.922,-2.9015,-2.8703,-2.851,-2.851,-2.8776,-2.9,-2.9,-2.925,-2.9445,-2.9445,-2.9145,-2.9328,-3.0139,-2.953,-2.9173,-2.9209,-2.8856,-2.8281,0.0,0.0,0.0,-2.9114,-2.9453,-2.9196,-2.8422,-2.8487,-2.8468,-2.8452,-3.029,-3.0981,-3.1005,-3.2737,-3.3431,-3.3347,-3.2775,-3.2618,-3.2618,-3.2064,-3.1882,-3.1796,-3.1489,-3.1905,-3.2583,-3.2583,-3.2583,-3.2654,-3.3171,-3.329,-3.329,-3.329,-3.329,-3.329,-3.329,-3.329,-3.329,-3.329,-3.329,-3.3157,-3.2668,-3.2209,-3.1905,-3.2074,-3.1978,-3.2028,-3.2511,-3.1969,-3.1473,0.0,0.0,0.0,0.0,0.0,0.0,0.0,-2.9602,0.0,0.0,0.0,0.0,-3.0217,-3.1077,-3.1706,-3.2033,-3.2876,-3.329,-3.329,-3.329,-3.329,-3.329,-3.329,-3.329,-3.329,-3.329,-3.329,-3.329,-3.329,-3.329,-3.3326,-3.3396,-3.3431,-3.3431,-3.3501,-3.3536,-3.3536,-3.3536,-3.3536,-3.3536,-3.0086,-2.9785,-2.9713,-3.0302,-2.9797,-2.9496,-3.0086,-2.9544,-2.9063,-2.9063,-2.8739,-2.851,-2.851,-2.851,-2.851,-2.851,-2.851,-2.851,-2.851,-2.851,-2.8736,-2.9328,-2.8782,0.0,-2.853,-2.7956,-2.7394,-2.6833,-2.8011,0.0,-2.8592,-2.8826,-2.8399,-2.7517,-2.7517,-2.7517,-2.7616,-2.9133,-2.9894,-3.0185,-3.1732,-3.2445,-3.2525,-3.1978,-3.1746,-3.1646,-3.0921,-3.0788,-3.0831,-3.0438,-3.0788,-3.1452,-3.1673,-3.1746,-3.1856,-3.2439,-3.2596,-3.2596,-3.2596,-3.2789,-3.2931,-3.2931,-3.2931,-3.2931,-3.2931,-3.2739,-3.2367,-3.1563,-3.1119,-3.1007,-3.1328,-3.1119,-3.1082,-3.1636,-3.1267,-3.0884,-3.0847,-3.1064,0.0,0.0,-3.0354,-3.0245,-2.9673,-2.9602,0.0,0.0,0.0,0.0,-3.0769,-3.1246,-3.178,-3.2384,-3.3002,-3.329,-3.329,-3.329,-3.329,-3.329,-3.329,-3.329,-3.329,-3.329,-3.329,-3.329,-3.329,-3.329,-3.329,-3.329,-3.329,-3.329,-3.329,-3.329,-3.329,-3.329,-3.329,-3.329,-3.0086,-3.0074,-2.9917,-2.9412,-2.9304,-2.9124,-2.8619,-2.8522,-2.8522,-2.8522,-2.851,-2.851,-2.851,-2.851,-2.851,-2.851,-2.851,-2.851,-2.851,-2.851,-2.851,0.0,0.0,-2.7476,-2.6947,-2.6419,-2.5877,-2.5347,0.0,-2.6427,-2.6461,-2.7196,-2.7517,-2.7517,-2.7517,-2.7517,-2.7556,-2.8166,-2.873,-2.9271,-2.9882,-3.0459,-3.0932,-3.0932,-3.0932,-3.0854,-3.0291,-3.0448,-3.0691,-2.9365,-2.929,-2.9858,-3.067,-3.0932,-3.0932,-3.0932,-3.0932,-3.0932,-3.0932,-3.1526,-3.211,-3.211,-3.211,-3.211,-3.211,-3.1489,-3.0707,-2.9884,-3.0329,-3.067,-2.9884,-3.0367,-3.0895,-3.0932,-3.0932,-3.0699,-3.0087,-3.0686,0.0,-2.9477,-3.0016,-3.0245,-2.9673,-2.9602,0.0,0.0,0.0,0.0,-3.1443,-3.1485,-3.178,-3.2384,-3.3002,-3.329,-3.329,-3.329,-3.329,-3.329,-3.329,-3.329,-3.329,-3.329,-3.329,-3.329,-3.329,-3.329,-3.329,-3.329,-3.329,-3.329,-3.329,-3.329,-3.329,-3.329,-3.329,-3.329,-3.0086,-3.0086,-3.0037,-2.9869,-2.9833,-2.9785,-2.9617,-2.928,-2.9051,-2.9051,-2.8739,-2.851,-2.851,-2.851,-2.851,0.0,-2.851,-2.851,-2.851,-2.851,-2.851,-2.851,-2.8354,-2.7798,-2.691,-2.6717,-2.6189,-2.5312,-2.6441,-2.7002,-2.7014,-2.7246,-2.687,-2.5988,-2.5988,-2.5988,-2.606,-2.7202,-2.7742,-2.7994,-2.9116,-2.9669,-2.9755,-2.9188,-2.898,-2.8918,-2.8164,-2.8039,-2.8126,-2.7665,-2.7651,-2.7835,-2.8075,-2.9063,-3.0113,-3.0314,-3.0618,-3.0895,-3.0895,-3.1082,-3.1267,-3.1267,-3.1267,-3.1267,-3.1267,-3.067,-2.9999,-2.9742,-2.9484,-2.9367,-2.9665,-2.9445,-2.9445,-2.9999,-2.9626,-2.9246,-2.925,-2.9471,-2.9518,-2.9245,-2.9478,-2.9719,-3.0043,-2.9665,-2.9807,0.0,0.0,-3.0797,-3.1457,-3.1893,-3.2398,-3.3002,-3.3178,-3.329,-3.329,-3.329,-3.329,-3.329,-3.329,-3.329,-3.329,-3.329,-3.329,-3.329,-3.329,-3.329,-3.329,-3.329,-3.329,-3.329,-3.329,-3.329,-3.329,-3.329,-3.329,-3.329,-3.0086,-3.0086,-3.0025,-2.9821,-2.9785,-2.9725,-2.9532,-2.9208,-2.9003,-2.9003,-2.8715,-2.851,-2.851,-2.851,-2.851,-2.851,-2.851,-2.851,-2.851,-2.851,-2.851,-2.851,-2.8318,-2.7774,-2.691,-2.6693,-2.619,-2.5312,-2.6122,-2.6542,-2.6542,-2.6542,-2.611,-2.5312,-2.5312,-2.5312,-2.5359,-2.6182,-2.6666,-2.69,-2.7761,-2.8206,-2.8337,-2.7852,-2.7631,-2.7582,-2.6868,-2.6717,-2.6861,-2.6657,-2.6717,-2.6861,-2.6645,-2.754,-2.8734,-2.91,-2.9453,-2.9732,-2.9948,-3.0215,-3.0443,-3.0443,-3.0443,-3.0367,-3.0075,-2.9626,-2.925,-2.925,-2.8843,-2.8657,-2.9145,-2.8843,-2.8657,-2.9184,-2.8685,-2.8246,-2.842,-2.835,-2.8393,0.0,-2.9092,-2.9552,-3.0234,-3.018,-3.0397,-3.1087,0.0,-3.1302,-3.1485,-3.2075,-3.2693,-3.3262,-3.329,-3.329,-3.329,-3.329,-3.329,-3.329,-3.329,-3.329,-3.329,-3.329,-3.329,-3.329,-3.329,-3.329,-3.329,-3.329,-3.329,-3.329,-3.329,-3.329,-3.329,-3.329,-3.329,-3.329,-3.0025,-3.0001,-2.9821,-2.9328,-2.9244,-2.9076,-2.8595,-2.851,-2.851,-2.851,-2.851,-2.851,-2.851,-2.851,-2.851,-2.851,-2.851,-2.851,-2.851,-2.851,-2.851,-2.851,-2.8041,-2.7474,-2.691,-2.6418,-2.5877,-2.5312,-2.5312,-2.5312,-2.5312,-2.5312,-2.5312,-2.5312,-2.5312,-2.5312,-2.5312,-2.5312,-2.5588,-2.6045,-2.6045,-2.6358,-2.6777,-2.6777,-2.6777,-2.6717,-2.6226,-2.6382,-2.6705,-2.6214,-2.6394,-2.6693,-2.6202,-2.6406,-2.6885,-2.7414,-2.7633,-2.775,-2.8318,-2.8978,-2.9576,-2.9614,-2.9626,-2.9406,-2.8657,-2.851,-2.851,-2.851,-2.851,-2.851,-2.851,-2.851,-2.8498,-2.8462,-2.8041,-2.7654,-2.7582,-2.7361,-2.7351,-2.7863,-2.8786,-2.9626,-3.0281,-3.0971,-3.1189,-3.0666,0.0,-3.2145,-3.1583,-3.2131,-3.2736,-3.3262,-3.329,-3.329,-3.329,-3.329,-3.329,-3.329,-3.329,-3.329,-3.329,-3.329,-3.329,-3.329,-3.329,-3.329,-3.329,-3.329,-3.329,-3.329,-3.329,-3.329,-3.329,-3.329,-3.329,-3.329,-2.9154,-2.8903,-2.8674,-2.8675,-2.8703,-2.8655,-2.8522,-2.851,-2.851,-2.851,-2.851,-2.851,-2.851,-2.851,-2.851,-2.851,-2.851,-2.851,-2.851,-2.851,-2.851,-2.851,-2.839,-2.7885,-2.6922,-2.6765,-2.6237,-2.5312,-2.5312,-2.5312,-2.5312,-2.5312,-2.5312,-2.5312,-2.5312,-2.5312,-2.5312,-2.5312,-2.5384,-2.5492,-2.5492,-2.5576,-2.5697,-2.5697,-2.5697,-2.5673,-2.554,-2.5576,-2.5673,-2.554,-2.5576,-2.5673,-2.554,-2.5588,-2.5793,-2.6322,-2.6791,-2.7198,-2.7726,-2.8014,-2.8266,-2.8667,-2.8764,-2.8736,-2.855,-2.851,-2.851,-2.851,-2.851,-2.851,-2.851,-2.851,-2.8378,-2.7981,-2.7762,-2.7428,-2.6598,-2.6771,-2.7003,-2.7161,-2.7742,-2.8824,-3.0598,-3.0497,-3.0807,-3.1862,-3.2244,-3.2342,-3.2188,-3.2778,-3.3136,-3.329,-3.329,-3.329,-3.329,-3.329,-3.329,-3.329,-3.329,-3.329,-3.329,-3.329,-3.329,-3.329,-3.329,-3.329,-3.329,-3.329,-3.329,-3.329,-3.329,-3.329,-3.329,-3.329,-3.329,-3.329,-2.8805,-2.8562,-2.8383,-2.8387,-2.8339,-2.8379,-2.8471,-2.851,-2.851,-2.851,-2.851,-2.851,-2.851,-2.851,-2.851,-2.851,-2.851,-2.851,-2.851,-2.851,-2.851,-2.851,-2.8282,-2.7726,-2.691,-2.6645,-2.6142,-2.5312,-2.5312,-2.5312,-2.5312,-2.5312,-2.5312,-2.5312,-2.5312,-2.5312,-2.5312,-2.5312,-2.5312,-2.5312,-2.5312,-2.5312,-2.5312,-2.5312,-2.5312,-2.5312,-2.5312,-2.5312,-2.5312,-2.5312,-2.5312,-2.5312,-2.5312,-2.5312,-2.536,-2.5661,-2.6117,-2.6681,-2.7474,-2.7678,-2.7849,-2.8378,-2.851,-2.851,-2.851,-2.851,-2.851,-2.851,-2.851,-2.851,-2.851,-2.8318,-2.8053,-2.7726,-2.7308,-2.6779,-2.6178,-2.6358,-2.6647,-2.6861,-2.7685,-2.881,-3.0202,-3.0384,-3.0662,-3.1246,-3.1548,-3.1766,-3.1854,-3.2407,-3.2931,-3.329,-3.329,-3.329,-3.329,-3.329,-3.329,-3.329,-3.329,-3.329,-3.329,-3.329,-3.329,-3.329,-3.329,-3.329,-3.329,-3.329,-3.329,-3.329,-3.329,-3.329,-3.329,-3.329,-3.329,-3.329,-2.8632,-2.848,-2.8363,-2.8182,-2.8179,-2.8259,-2.8431,-2.8471,-2.851,-2.851,-2.851,-2.851,-2.851,-2.851,-2.851,-2.851,-2.851,-2.851,-2.851,-2.851,-2.851,-2.851,-2.8077,-2.7522,-2.691,-2.631,-2.5757,-2.5312,-2.5312,-2.5312,-2.5312,-2.5312,-2.5312,-2.5312,-2.5312,-2.5312,-2.5312,-2.5312,-2.5312,-2.5312,-2.5312,-2.5312,-2.5312,-2.5312,-2.5312,-2.5312,-2.5312,-2.5312,-2.5312,-2.5312,-2.5312,-2.5312,-2.5312,-2.5312,-2.5324,-2.5408,-2.5745,-2.6322,-2.7332,-2.7678,-2.7906,-2.8402,-2.851,-2.851,-2.851,-2.851,-2.851,-2.851,-2.851,-2.8486,-2.8402,-2.8029,-2.7654,-2.7582,-2.6755,-2.6129,-2.6214,-2.6226,-2.643,-2.6946,-2.8098,-2.9088,-2.9654,-3.0329,-3.055,-3.0166,-3.062,-3.0969,-3.1141,-3.1622,-3.2245,-3.2909,-3.3171,-3.329,-3.329,-3.329,-3.329,-3.329,-3.329,-3.329,-3.329,-3.329,-3.329,-3.329,-3.329,-3.329,-3.329,-3.329,-3.329,-3.329,-3.329,-3.329,-3.329,-3.329,-3.329,-3.329,-2.8335,-2.7993,-2.7749,-2.7893,-2.8111,-2.8219,-2.8259,-2.8379,-2.851,-2.851,-2.851,-2.851,-2.851,-2.851,-2.851,-2.851,-2.851,-2.851,-2.851,-2.851,-2.851,-2.851,-2.8426,-2.7894,-2.6922,-2.5949,-2.5384,-2.5312,-2.5312,-2.5312,-2.5312,-2.5312,-2.5312,-2.5312,-2.5312,-2.5312,-2.5312,-2.5312,-2.5312,-2.5312,-2.5312,-2.5312,-2.5312,-2.5312,-2.5312,-2.5312,-2.5312,-2.5312,-2.5312,-2.5312,-2.5312,-2.5312,-2.5312,-2.5312,-2.5396,-2.5841,-2.6033,-2.6238,-2.6849,-2.7705,-2.8414,-2.8486,-2.851,-2.851,-2.851,-2.851,-2.851,-2.851,-2.851,-2.8378,-2.7933,-2.7777,-2.7534,-2.709,-2.6514,-2.6262,-2.6693,-2.6765,-2.6958,-2.7498,-2.8183,-2.8863,-2.9626,-2.9819,-3.0114,-3.0727,-3.0843,-3.093,-3.095,-3.1029,-3.1156,-3.1267,-3.2596,-3.329,-3.329,-3.329,-3.329,-3.329,-3.329,-3.329,-3.329,-3.329,-3.329,-3.329,-3.329,-3.329,-3.329,-3.329,-3.329,-3.329,-3.329,-3.329,-3.329,-3.329,-3.329,-3.329,-2.8161,-2.7949,-2.7736,-2.7702,-2.7869,-2.807,-2.8179,-2.8391,-2.851,-2.851,-2.851,-2.851,-2.851,-2.851,-2.851,-2.851,-2.851,-2.851,-2.851,-2.851,-2.851,-2.851,-2.8234,-2.7678,-2.691,-2.6405,-2.6141,-2.6141,-2.5877,-2.5889,-2.6129,-2.5576,-2.5456,-2.5721,-2.5432,-2.5312,-2.5312,-2.5312,-2.5312,-2.5312,-2.5312,-2.5312,-2.5312,-2.5312,-2.5312,-2.5312,-2.5312,-2.5312,-2.5312,-2.5312,-2.5312,-2.5312,-2.5312,-2.5312,-2.5408,-2.5937,-2.6514,-2.7031,-2.7246,-2.7921,-2.851,-2.851,-2.851,-2.851,-2.851,-2.851,-2.851,-2.851,-2.851,-2.8438,-2.8198,-2.7642,-2.727,-2.7318,-2.6647,-2.6298,-2.6813,-2.7138,-2.7402,-2.7654,-2.8186,-2.8669,-2.904,-2.9067,-2.9223,-2.9588,-2.9588,-2.9819,-3.0215,-3.0253,-3.0443,-3.0895,-3.1613,-3.2223,-3.2654,-3.2654,-3.286,-3.329,-3.329,-3.329,-3.329,-3.329,-3.329,-3.329,-3.329,-3.329,-3.329,-3.329,-3.329,-3.329,-3.329,-3.329,-3.329,-3.329,-3.329,-3.329,-2.7874,-2.7805,-2.772,-2.7481,-2.7626,-2.7869,-2.8111,-2.8299,-2.8431,-2.851,-2.851,-2.851,-2.851,-2.851,-2.851,-2.851,-2.851,-2.851,-2.851,-2.851,-2.851,-2.851,-2.8005,-2.7498,-2.709,-2.6958,-2.6837,-2.6693,-2.6442,-2.6382,-2.6501,-2.5829,-2.5636,-2.5901,-2.5492,-2.5312,-2.5312,-2.5312,-2.5312,-2.5312,-2.5312,-2.5312,-2.5312,-2.5312,-2.5312,-2.5312,-2.5312,-2.5312,-2.5312,-2.5312,-2.5312,-2.5336,-2.5456,-2.5492,-2.5624,-2.6286,-2.7152,-2.7846,-2.7714,-2.8114,-2.851,-2.851,-2.851,-2.851,-2.851,-2.851,-2.851,-2.851,-2.851,-2.8474,-2.8354,-2.763,-2.721,-2.7618,-2.6911,-2.6526,-2.7162,-2.7498,-2.7726,-2.7885,-2.827,-2.851,-2.851,-2.851,-2.851,-2.851,-2.851,-2.8776,-2.9406,-2.9406,-2.9704,-3.0329,-3.0707,-3.1193,-3.1819,-3.2015,-3.2426,-3.3016,-3.3206,-3.329,-3.329,-3.329,-3.329,-3.329,-3.3086,-3.3016,-3.3016,-3.2824,-3.2753,-3.2753,-3.2753,-3.2753,-3.2753,-3.2753,-3.2753,-3.2753,-2.7247,-2.7247,-2.7224,-2.7231,-2.7371,-2.7615,-2.7881,-2.8111,-2.8299,-2.8471,-2.851,-2.851,-2.851,-2.851,-2.851,-2.851,-2.851,-2.851,-2.851,-2.851,-2.851,-2.851,-2.8005,-2.7666,-2.763,-2.715,-2.6645,-2.6154,-2.6635,-2.6333,-2.5444,-2.5841,-2.5793,-2.536,-2.5324,-2.5312,-2.5312,-2.5312,-2.5312,-2.5312,-2.5312,-2.5312,-2.5312,-2.5312,-2.5312,-2.5312,-2.5312,-2.5312,-2.5312,-2.5312,-2.5312,-2.5396,-2.5877,-2.6045,-2.6238,-2.7296,-2.8005,-2.8342,-2.781,-2.8114,-2.851,-2.851,-2.851,-2.851,-2.851,-2.851,-2.851,-2.851,-2.851,-2.8366,-2.7834,-2.7678,-2.763,-2.7678,-2.721,-2.7186,-2.8246,-2.8005,-2.7858,-2.839,-2.8486,-2.851,-2.851,-2.851,-2.851,-2.851,-2.851,-2.851,-2.859,-2.859,-2.8618,-2.8657,-3.0114,-3.0932,-3.1007,-3.1746,-3.2123,-3.2196,-3.2931,-3.329,-3.329,-3.329,-3.329,-3.3241,-3.2511,-3.2196,-3.2123,-3.1378,-3.1082,-3.1082,-3.1082,-3.1082,-3.1082,-3.1082,-3.1082,-3.1082,-2.5516,-2.5977,-2.631,-2.631,-2.6969,-2.7522,-2.7655,-2.7869,-2.8042,-2.8122,-2.8231,-2.8299,-2.8299,-2.8431,-2.851,-2.851,-2.851,-2.851,-2.851,-2.851,-2.851,-2.851,-2.8318,-2.821,-2.821,-2.8017,-2.7801,-2.7596,-2.7114,-2.6849,-2.6791,-2.5985,-2.5673,-2.5781,-2.5456,-2.5312,-2.5312,-2.5312,-2.5312,-2.5312,-2.5312,-2.5312,-2.5312,-2.5312,-2.5312,-2.5312,-2.5312,-2.5312,-2.5312,-2.5312,-2.5312,-2.5396,-2.5925,-2.6093,-2.631,-2.7404,-2.8089,-2.8462,-2.827,-2.8354,-2.851,-2.851,-2.851,-2.851,-2.851,-2.851,-2.851,-2.851,-2.851,-2.845,-2.8246,-2.7906,-2.7798,-2.8162,-2.7726,-2.763,-2.8414,-2.833,-2.8282,-2.8486,-2.851,-2.851,-2.851,-2.851,-2.851,-2.851,-2.851,-2.851,-2.851,-2.851,-2.851,-2.851,-2.9106,-2.9665,-3.0152,-3.0443,-3.0844,-3.1378,-3.1686,-3.1796,-3.1796,-3.1796,-3.1796,-3.1796,-3.1489,-3.1378,-3.1328,-3.1044,-3.0895,-3.0895,-3.0895,-3.0895,-3.0895,-3.0895,-3.0895,-3.0895,-2.4498,-2.4999,-2.5411,-2.5411,-2.6038,-2.6682,-2.7021,-2.7237,-2.7505,-2.7841,-2.803,-2.8111,-2.8111,-2.8231,-2.8323,-2.8323,-2.8351,-2.8431,-2.8431,-2.8471,-2.851,-2.851,-2.851,-2.851,-2.851,-2.851,-2.8426,-2.827,-2.7666,-2.7402,-2.7414,-2.6502,-2.6081,-2.6081,-2.5721,-2.5468,-2.5312,-2.5312,-2.5312,-2.5312,-2.5312,-2.5312,-2.5312,-2.5312,-2.5312,-2.5312,-2.5312,-2.5312,-2.5312,-2.5312,-2.542,-2.5648,-2.619,-2.6586,-2.6995,-2.7753,-2.8222,-2.851,-2.851,-2.851,-2.851,-2.851,-2.851,-2.851,-2.851,-2.851,-2.851,-2.851,-2.851,-2.851,-2.851,-2.821,-2.8089,-2.845,-2.821,-2.8089,-2.8462,-2.851,-2.851,-2.851,-2.851,-2.851,-2.851,-2.851,-2.851,-2.851,-2.851,-2.851,-2.851,-2.851,-2.851,-2.851,-2.851,-2.8776,-2.9328,-2.9549,-2.9961,-3.0519,-3.0782,-3.0895,-3.0895,-3.0895,-3.0895,-3.0895,-3.0632,-3.0519,-3.0519,-3.0266,-3.0152,-3.0152,-3.0152,-3.0152,-3.0152,-3.0152,-3.0152,-3.0152,-2.4498,-2.4498,-2.4498,-2.4498,-2.4498,-2.4872,-2.6019,-2.6185,-2.661,-2.776,-2.7893,-2.7893,-2.7893,-2.7881,-2.7893,-2.7893,-2.807,-2.8179,-2.8179,-2.8379,-2.8471,-2.8471,-2.8471,-2.851,-2.851,-2.851,-2.8246,-2.769,-2.8246,-2.7969,-2.691,-2.7438,-2.714,-2.6105,-2.6093,-2.5805,-2.5312,-2.5312,-2.5312,-2.5312,-2.5312,-2.5312,-2.5312,-2.5312,-2.5312,-2.5312,-2.5312,-2.5312,-2.5312,-2.5312,-2.5673,-2.6202,-2.6729,-2.763,-2.851,-2.851,-2.851,-2.851,-2.851,-2.851,-2.851,-2.851,-2.851,-2.851,-2.851,-2.851,-2.851,-2.851,-2.851,-2.851,-2.851,-2.851,-2.851,-2.851,-2.851,-2.851,-2.851,-2.851,-2.851,-2.851,-2.851,-2.851,-2.851,-2.851,-2.851,-2.851,-2.851,-2.851,-2.851,-2.851,-2.851,-2.851,-2.851,-2.851,-2.851,-2.9289,-2.9704,-2.9704,-3.0481,-3.0895,-3.0895,-3.0895,-3.0895,-3.0857,-3.0037,-2.9704,-2.9626,-2.8843,-2.851,-2.851,-2.851,-2.851,-2.851,-2.851,-2.851,-2.851,-2.2555,-2.3062,-2.3531,-2.3531,-2.4059,-2.4829,-2.5788,-2.5913,-2.6268,-2.726,-2.7545,-2.7615,-2.7615,-2.7214,-2.6917,-2.6917,-2.6946,-2.7028,-2.7028,-2.7684,-2.7482,-2.6182,-2.7661,-2.851,-2.851,-2.851,-2.8426,-2.827,-2.8026,-2.775,-2.745,-2.7234,-2.6958,-2.6633,-2.6274,-2.6009,-2.5841,-2.5468,-2.5312,-2.5276,-2.5218,-2.5374,-2.5588,-2.5123,-2.5242,-2.5612,-2.5278,-2.5445,-2.5829,-2.5696,-2.6017,-2.6542,-2.7079,-2.771,-2.8299,-2.8471,-2.851,-2.851,-2.851,-2.8391,-2.8299,-2.8471,-2.851,-2.851,-2.851,-2.851,-2.851,-2.851,-2.851,-2.851,-2.851,-2.851,-2.851,-2.851,-2.851,-2.851,-2.851,-2.851,-2.851,-2.851,-2.851,-2.851,-2.851,-2.851,-2.851,-2.851,-2.851,-2.851,-2.851,-2.851,-2.851,-2.851,-2.851,-2.851,-2.851,-2.8736,-2.8843,-2.8843,-2.9106,-2.9223,-2.9223,-2.9223,-2.9223,-2.9184,-2.8961,-2.8843,-2.8843,-2.859,-2.851,-2.851,-2.851,-2.851,-2.851,-2.851,-2.851,-2.851,-2.1696,-2.2167,-2.2545,-2.2545,-2.3028,-2.3714,-2.4585,-2.4713,-2.5062,-2.603,-2.6227,-2.6299,-2.6299,-2.5955,-2.5694,-2.5694,-2.5766,-2.5839,-2.5922,-2.6494,-2.6287,-2.5168,-2.6431,-2.7325,-2.7701,-2.7701,-2.7914,-2.8379,-2.7225,-2.7074,-2.7861,-2.7085,-2.6721,-2.6647,-2.6302,-2.604,-2.5814,-2.5338,-2.5314,-2.5671,-2.536,-2.5561,-2.5961,-2.5543,-2.5651,-2.595,-2.5667,-2.5824,-2.6159,-2.6022,-2.634,-2.6872,-2.7431,-2.781,-2.8111,-2.8231,-2.8283,-2.8283,-2.8283,-2.8151,-2.8111,-2.8231,-2.8283,-2.8271,-2.8351,-2.8311,-2.8283,-2.8283,-2.8283,-2.8283,-2.8283,-2.8283,-2.8283,-2.8283,-2.8283,-2.8283,-2.8283,-2.8283,-2.8283,-2.8283,-2.8283,-2.8283,-2.8283,-2.8283,-2.8311,-2.8391,-2.8471,-2.851,-2.851,-2.851,-2.851,-2.851,-2.851,-2.851,-2.851,-2.8715,-2.8715,-2.851,-2.8727,-2.8823,-2.8823,-2.9039,-2.9136,-2.9136,-2.9136,-2.9015,-2.8823,-2.8823,-2.8703,-2.851,-2.851,-2.851,-2.851,-2.851,-2.851,-2.851,-2.1696,-2.1696,-2.1696,-2.1696,-2.1696,-2.2033,-2.2965,-2.3096,-2.3444,-2.437,-2.4498,-2.4498,-2.4498,-2.4413,-2.436,-2.436,-2.4553,-2.4745,-2.4914,-2.4999,-2.4957,-2.4787,-2.4957,-2.542,-2.6182,-2.6307,-2.6894,-2.7914,-2.6016,-2.6058,-2.7914,-2.6864,-2.6295,-2.6193,-2.6147,-2.5867,-2.5364,-2.4865,-2.518,-2.6007,-2.5457,-2.5585,-2.6085,-2.6115,-2.6165,-2.62,-2.6241,-2.6341,-2.6376,-2.6385,-2.6725,-2.7191,-2.77,-2.7841,-2.7893,-2.7881,-2.7893,-2.7893,-2.7893,-2.7881,-2.7881,-2.7881,-2.7893,-2.7881,-2.8099,-2.803,-2.7893,-2.7893,-2.7893,-2.7893,-2.7893,-2.7893,-2.7893,-2.7893,-2.7893,-2.7893,-2.7893,-2.7893,-2.7893,-2.7893,-2.7893,-2.7904,-2.7951,-2.7951,-2.8009,-2.8139,-2.8339,-2.8431,-2.8431,-2.8431,-2.8431,-2.8431,-2.8431,-2.8471,-2.8471,-2.8951,-2.8975,-2.8595,-2.9124,-2.9364,-2.9388,-2.9869,-3.0086,-3.0086,-3.0086,-2.9809,-2.9364,-2.9316,-2.9015,-2.857,-2.8522,-2.851,-2.851,-2.851,-2.851,-2.851,-2.1696,-2.1696,-2.1696,-2.1696,-2.1696,-2.2033,-2.2965,-2.3096,-2.3444,-2.437,-2.4498,-2.4498,-2.4498,-2.3833,-2.34,-2.34,-2.3434,-2.3477,-2.3521,-2.4211,-2.3963,-2.2501,-2.3844,-2.4392,-2.3856,-2.4872,-2.5504,-2.5755,-2.5336,-2.5336,-2.5755,-2.5504,-2.5396,-2.5346,-2.4935,-2.4667,-2.4516,-2.366,-2.3638,-2.4057,-2.3483,-2.3727,-2.4527,-2.4678,-2.5076,-2.5655,-2.5958,-2.6434,-2.696,-2.7177,-2.7198,-2.7244,-2.7499,-2.7574,-2.7615,-2.7841,-2.7893,-2.7893,-2.7893,-2.7748,-2.7655,-2.7841,-2.7598,-2.7476,-2.7881,-2.7921,-2.7893,-2.7893,-2.7893,-2.7893,-2.7893,-2.7893,-2.7893,-2.7893,-2.7893,-2.7893,-2.7893,-2.7893,-2.7893,-2.7893,-2.7893,-2.8045,-2.8422,-2.8457,-2.8304,-2.7997,-2.8002,-2.8042,-2.8042,-2.8042,-2.8042,-2.8042,-2.8042,-2.8122,-2.8259,-2.8366,-2.8662,-2.9136,-2.9665,-2.9917,-2.9917,-3.0037,-3.0086,-3.0086,-3.0086,-3.0025,-2.9881,-2.9472,-2.9232,-2.9088,-2.8679,-2.851,-2.851,-2.851,-2.851,-2.851,-2.1696,-2.1696,-2.1696,-2.1696,-2.1696,-2.1865,-2.2378,-2.2413,-2.2589,-2.3115,-2.3159,-2.3159,-2.3159,-2.2721,-2.2413,-2.2413,-2.2413,-2.2413,-2.2413,-2.2896,-2.2731,-2.1731,-2.2643,-2.294,-2.2457,-2.3139,-2.3943,-2.4957,-2.3943,-2.3986,-2.4957,-2.4404,-2.4248,-2.4409,-2.4127,-2.4022,-2.3981,-2.324,-2.3334,-2.3929,-2.3368,-2.3566,-2.4263,-2.4354,-2.4624,-2.4982,-2.5196,-2.5518,-2.5894,-2.6003,-2.6019,-2.5988,-2.6505,-2.6712,-2.6805,-2.7383,-2.7557,-2.7557,-2.7557,-2.7464,-2.7383,-2.7516,-2.7394,-2.7313,-2.7626,-2.7626,-2.7627,-2.7871,-2.797,-2.804,-2.8219,-2.8266,-2.8196,-2.7964,-2.8156,-2.8184,-2.7993,-2.8126,-2.8266,-2.8266,-2.8266,-2.837,-2.8626,-2.8524,-2.8467,-2.8444,-2.8538,-2.8633,-2.8633,-2.8633,-2.8545,-2.8368,-2.8368,-2.849,-2.871,-2.8838,-2.9231,-2.9881,-3.0032,-3.0218,-3.047,-3.0766,-3.0874,-3.0874,-3.0874,-3.0555,-3.0062,-2.9785,-2.9335,-2.8774,-2.8579,-2.8431,-2.8351,-2.8351,-2.8311,-2.8203,-2.1696,-2.1696,-2.1696,-2.1696,-2.1696,-2.1696,-2.1696,-2.1696,-2.1696,-2.1696,-2.1696,-2.1696,-2.1696,-2.1696,-2.1696,-2.1696,-2.1696,-2.1696,-2.1696,-2.1696,-2.1696,-2.1696,-2.1696,-2.1696,-2.1696,-2.1696,-2.2545,-2.4276,-2.2545,-2.2589,-2.4243,-2.3304,-2.303,-2.3353,-2.3353,-2.3353,-2.3323,-2.2857,-2.3192,-2.3986,-2.3466,-2.3558,-2.4026,-2.4198,-2.4274,-2.4274,-2.4445,-2.4498,-2.4498,-2.4498,-2.4498,-2.4616,-2.5368,-2.5568,-2.5746,-2.6498,-2.6757,-2.6757,-2.6921,-2.6839,-2.6757,-2.6921,-2.6974,-2.7026,-2.73,-2.7277,-2.7328,-2.7874,-2.7977,-2.8126,-2.8609,-2.87,-2.8574,-2.8172,-2.8436,-2.8563,-2.8161,-2.8448,-2.87,-2.87,-2.8781,-2.8804,-2.8712,-2.8595,-2.8634,-2.8947,-2.9153,-2.9262,-2.9262,-2.9262,-2.9136,-2.8857,-2.8887,-2.897,-2.9272,-2.948,-2.9882,-3.0434,-3.0221,-3.0421,-3.098,-3.1468,-3.1705,-3.1705,-3.1705,-3.1211,-3.0338,-3.0158,-2.9445,-2.8469,-2.8503,-2.8379,-2.8219,-2.8219,-2.807,-2.7893,-2.1696,-2.1696,-2.1696,-2.1696,-2.1696,-2.1696,-2.1696,-2.1696,-2.1696,-2.1696,-2.1696,-2.1696,-2.1696,-2.1696,-2.1696,-2.1696,-2.1696,-2.1696,-2.1696,-2.1696,-2.1696,-2.1696,-2.1696,-2.1696,-2.1696,-2.1696,-2.182,-2.2122,-2.182,-2.182,-2.2122,-2.1945,-2.1917,-2.195,-2.195,-2.195,-2.1922,-2.1537,-2.164,-2.2041,-2.1612,-2.1696,-2.2167,-2.2974,-2.327,-2.34,-2.4188,-2.4498,-2.4498,-2.4498,-2.4498,-2.4541,-2.4616,-2.4659,-2.4701,-2.484,-2.4882,-2.5052,-2.5788,-2.5463,-2.5041,-2.5788,-2.5997,-2.6118,-2.66,-2.6978,-2.7328,-2.7874,-2.7977,-2.8126,-2.8609,-2.87,-2.8677,-2.8609,-2.8654,-2.8677,-2.8609,-2.8654,-2.87,-2.87,-2.9102,-2.9206,-2.8746,-2.91,-2.9169,-2.8766,-2.8786,-2.8798,-2.8798,-2.8798,-2.8752,-2.8726,-2.8726,-2.8811,-2.9036,-2.9064,-2.9495,-3.0252,-3.0225,-3.058,-3.1243,-3.1536,-3.1705,-3.1705,-3.1705,-3.1633,-3.1428,-3.0458,-2.9888,-2.9517,-2.879,-2.8379,-2.8219,-2.8219,-2.807,-2.7893,-2.1696,-2.1696,-2.1696,-2.1696,-2.1696,-2.1696,-2.1696,-2.1696,-2.1696,-2.1696,-2.1696,-2.1696,-2.1696,-2.1696,-2.1696,-2.1696,-2.1696,-2.1696,-2.1696,-2.1696,-2.1696,-2.1696,-2.1696,-2.1696,-2.1696,-2.1696,-2.1696,-2.1696,-2.1696,-2.1696,-2.1696,-2.1696,-2.1696,-2.1696,-2.1696,-2.1696,-2.1678,-2.1495,-2.1522,-2.1678,-2.1485,-2.1522,-2.1731,-2.2157,-2.2334,-2.2378,-2.2765,-2.295,-2.295,-2.295,-2.295,-2.3028,-2.3541,-2.3714,-2.3844,-2.437,-2.4498,-2.4573,-2.4956,-2.4787,-2.4584,-2.4999,-2.5073,-2.5137,-2.5349,-2.5744,-2.656,-2.8439,-2.8597,-2.862,-2.9401,-2.955,-2.9458,-2.9194,-2.9378,-2.9458,-2.9183,-2.9378,-2.955,-2.955,-2.9515,-2.9515,-2.955,-2.9515,-2.9515,-2.955,-2.955,-2.955,-2.955,-2.955,-2.9456,-2.9311,-2.93,-2.9442,-2.9682,-2.9529,-2.9785,-3.043,-3.043,-3.0648,-3.1139,-3.1241,-3.133,-3.133,-3.133,-3.1163,-3.0787,-3.0015,-2.9413,-2.8927,-2.8378,-2.803,-2.7805,-2.7805,-2.7696,-2.7516]}]]